[[{"header":{"parameterUnit":"m.s-1","parameterCategory":1,"la1":30.6,"la2":29.2853,"lo1":-89.7004,"lo2":-87.6739,"dx":0.0162,"dy":0.0183,"nx":112,"ny":82,"refTime":"2023-01-27T06:00:00:Z","depth":0,"parameterNumber":2,"parameterNumberName":"U-component_of_WINDS"},"data":[0.0,0.0,0.0,0.0,0.0,0.0,0.0,0.0,0.0,0.0,0.0,0.0,0.0,0.0,0.0,0.0,0.0,0.0,0.0,0.0,0.0,0.0,0.0,0.0,0.0,0.0,0.0,0.0,0.0,0.0,0.0,0.0,0.0,0.0,0.0,0.0,0.0,0.0,0.0,0.0,0.0,0.0,0.0,0.0,0.0,0.0,0.0,0.0,0.0,0.0,0.0,0.0,0.0,0.0,0.0,0.0,0.0,0.0,0.0,0.0,0.0,0.0,0.0,0.0,0.0,0.0,0.0,0.0,0.0,0.0,0.0,0.0,0.0,0.0,0.0,0.0,0.0,0.0,0.0,0.0,0.0,0.0,0.0,0.0,0.0,0.0,0.0,0.0,0.0,0.0,3.4622,3.4236,3.3403,3.2797,3.2667,3.0732,3.0406,3.2525,0.0,0.0,0.0,0.0,0.0,0.0,0.0,0.0,0.0,0.0,0.0,0.0,0.0,0.0,0.0,0.0,0.0,0.0,0.0,0.0,0.0,0.0,0.0,0.0,0.0,0.0,0.0,0.0,0.0,0.0,0.0,0.0,0.0,0.0,0.0,0.0,0.0,0.0,0.0,0.0,0.0,0.0,0.0,0.0,0.0,0.0,0.0,0.0,0.0,0.0,0.0,0.0,0.0,0.0,0.0,0.0,0.0,0.0,0.0,0.0,0.0,0.0,0.0,0.0,0.0,0.0,0.0,0.0,0.0,0.0,0.0,0.0,0.0,0.0,0.0,0.0,0.0,0.0,0.0,0.0,0.0,0.0,0.0,0.0,0.0,0.0,0.0,0.0,0.0,0.0,0.0,0.0,0.0,0.0,0.0,0.0,0.0,0.0,0.0,0.0,0.0,0.0,0.0,0.0,3.4223,3.2258,3.1933,3.1492,3.0711,2.9131,2.889,3.0531,0.0,0.0,0.0,0.0,0.0,0.0,0.0,0.0,0.0,0.0,0.0,0.0,0.0,0.0,0.0,0.0,0.0,0.0,0.0,0.0,0.0,0.0,0.0,0.0,0.0,0.0,0.0,0.0,0.0,0.0,0.0,0.0,0.0,0.0,0.0,0.0,0.0,0.0,0.0,0.0,0.0,0.0,0.0,0.0,0.0,0.0,0.0,0.0,0.0,0.0,0.0,0.0,0.0,0.0,0.0,0.0,0.0,0.0,0.0,0.0,0.0,0.0,0.0,0.0,0.0,0.0,0.0,0.0,0.0,0.0,0.0,0.0,0.0,0.0,0.0,0.0,0.0,0.0,0.0,0.0,0.0,0.0,0.0,0.0,0.0,0.0,0.0,0.0,0.0,0.0,0.0,0.0,0.0,0.0,0.0,0.0,0.0,0.0,0.0,0.0,0.0,0.0,0.0,3.3678,3.271,3.1024,3.0845,3.0678,3.026,2.8808,2.8762,3.0845,2.959,0.0,0.0,0.0,0.0,0.0,0.0,0.0,0.0,0.0,0.0,0.0,0.0,0.0,0.0,0.0,0.0,0.0,0.0,0.0,0.0,0.0,0.0,0.0,0.0,0.0,0.0,0.0,0.0,0.0,0.0,0.0,0.0,0.0,0.0,0.0,0.0,0.0,0.0,0.0,0.0,0.0,0.0,0.0,0.0,0.0,0.0,0.0,0.0,0.0,0.0,0.0,0.0,0.0,0.0,0.0,0.0,0.0,0.0,0.0,0.0,0.0,0.0,0.0,0.0,0.0,0.0,0.0,0.0,0.0,0.0,0.0,0.0,0.0,0.0,0.0,0.0,0.0,0.0,0.0,0.0,0.0,0.0,0.0,0.0,0.0,0.0,0.0,0.0,0.0,0.0,0.0,0.0,0.0,0.0,0.0,0.0,0.0,0.0,0.0,0.0,0.0,0.0,3.1801,3.1125,2.9988,2.9852,2.9761,2.9532,2.8308,2.8448,3.0441,2.868,0.0,0.0,0.0,0.0,0.0,0.0,0.0,0.0,0.0,0.0,0.0,0.0,0.0,0.0,0.0,0.0,0.0,0.0,0.0,0.0,0.0,0.0,0.0,0.0,0.0,0.0,0.0,0.0,0.0,0.0,0.0,0.0,0.0,0.0,0.0,0.0,0.0,0.0,0.0,0.0,0.0,0.0,0.0,0.0,0.0,0.0,0.0,0.0,0.0,0.0,0.0,0.0,0.0,0.0,0.0,0.0,0.0,0.0,0.0,0.0,0.0,0.0,0.0,0.0,0.0,0.0,0.0,0.0,0.0,0.0,0.0,0.0,0.0,0.0,0.0,0.0,0.0,0.0,0.0,0.0,0.0,0.0,0.0,0.0,0.0,0.0,0.0,0.0,0.0,0.0,0.0,0.0,0.0,0.0,0.0,0.0,0.0,0.0,0.0,0.0,0.0,0.0,3.1146,2.9943,2.8899,2.8817,2.8445,2.7584,2.6965,2.687,2.7584,2.6965,0.0,0.0,0.0,0.0,0.0,0.0,0.0,0.0,0.0,0.0,0.0,0.0,0.0,0.0,0.0,0.0,0.0,0.0,0.0,0.0,0.0,0.0,0.0,0.0,0.0,0.0,0.0,0.0,0.0,0.0,0.0,0.0,0.0,0.0,0.0,0.0,0.0,0.0,0.0,0.0,0.0,0.0,0.0,0.0,0.0,0.0,0.0,0.0,0.0,0.0,0.0,0.0,0.0,0.0,0.0,0.0,0.0,0.0,0.0,0.0,0.0,0.0,0.0,0.0,0.0,0.0,0.0,0.0,0.0,0.0,0.0,0.0,0.0,0.0,0.0,0.0,0.0,0.0,0.0,0.0,0.0,0.0,0.0,0.0,0.0,0.0,0.0,0.0,0.0,0.0,0.0,0.0,0.0,0.0,0.0,0.0,0.0,0.0,0.0,0.0,0.0,0.0,3.0283,2.9084,2.7951,2.7809,2.7678,2.7309,2.6986,2.7167,2.8128,0.0,0.0,0.0,0.0,0.0,0.0,0.0,0.0,0.0,0.0,0.0,0.0,0.0,0.0,0.0,0.0,0.0,0.0,0.0,0.0,0.0,0.0,0.0,0.0,0.0,0.0,0.0,0.0,0.0,0.0,0.0,0.0,0.0,0.0,0.0,0.0,0.0,0.0,0.0,0.0,0.0,0.0,0.0,0.0,0.0,0.0,0.0,0.0,0.0,0.0,0.0,0.0,0.0,0.0,0.0,0.0,0.0,0.0,0.0,0.0,0.0,0.0,0.0,0.0,0.0,0.0,0.0,0.0,0.0,0.0,0.0,0.0,0.0,0.0,0.0,0.0,0.0,0.0,0.0,0.0,0.0,0.0,0.0,0.0,0.0,0.0,0.0,0.0,0.0,0.0,0.0,0.0,0.0,0.0,0.0,0.0,0.0,0.0,0.0,0.0,0.0,0.0,3.0909,2.9453,2.8222,2.7404,2.7013,2.6918,2.7262,2.6332,2.6456,2.8175,0.0,0.0,0.0,0.0,0.0,0.0,0.0,0.0,0.0,0.0,0.0,0.0,0.0,0.0,0.0,0.0,0.0,0.0,0.0,0.0,0.0,0.0,0.0,0.0,0.0,0.0,0.0,0.0,0.0,0.0,0.0,0.0,0.0,0.0,0.0,0.0,0.0,0.0,0.0,0.0,0.0,0.0,0.0,0.0,0.0,0.0,0.0,0.0,0.0,0.0,0.0,0.0,0.0,0.0,0.0,0.0,0.0,0.0,0.0,0.0,0.0,0.0,0.0,0.0,0.0,0.0,0.0,0.0,0.0,0.0,0.0,0.0,0.0,0.0,0.0,0.0,0.0,0.0,0.0,0.0,0.0,0.0,0.0,0.0,0.0,0.0,0.0,0.0,0.0,0.0,0.0,0.0,0.0,0.0,0.0,0.0,0.0,0.0,0.0,0.0,0.0,0.0,3.0808,2.8727,2.7262,2.7262,2.6332,2.6129,2.7156,2.4826,2.4424,0.0,0.0,0.0,0.0,0.0,0.0,0.0,0.0,0.0,0.0,0.0,0.0,0.0,0.0,0.0,0.0,0.0,0.0,0.0,0.0,0.0,0.0,0.0,0.0,0.0,0.0,0.0,0.0,0.0,0.0,0.0,0.0,0.0,0.0,0.0,0.0,0.0,0.0,0.0,0.0,0.0,0.0,0.0,0.0,0.0,0.0,0.0,0.0,0.0,0.0,0.0,0.0,0.0,0.0,0.0,0.0,0.0,0.0,0.0,0.0,0.0,0.0,0.0,0.0,0.0,0.0,0.0,0.0,0.0,0.0,0.0,0.0,0.0,0.0,0.0,0.0,0.0,0.0,0.0,0.0,0.0,0.0,0.0,0.0,0.0,0.0,0.0,0.0,0.0,0.0,0.0,0.0,0.0,0.0,0.0,0.0,0.0,0.0,0.0,0.0,0.0,0.0,0.0,3.073,2.8089,2.6177,2.6177,2.5187,2.4688,2.5031,2.4137,2.3989,2.4982,0.0,0.0,0.0,0.0,0.0,0.0,0.0,0.0,0.0,0.0,0.0,0.0,0.0,0.0,0.0,0.0,0.0,0.0,0.0,0.0,0.0,0.0,0.0,0.0,0.0,0.0,0.0,0.0,0.0,0.0,0.0,0.0,0.0,0.0,0.0,0.0,0.0,0.0,0.0,0.0,0.0,0.0,0.0,0.0,0.0,0.0,0.0,0.0,0.0,0.0,0.0,0.0,0.0,0.0,0.0,0.0,0.0,0.0,0.0,0.0,0.0,0.0,0.0,0.0,0.0,0.0,0.0,0.0,0.0,0.0,0.0,0.0,0.0,0.0,0.0,0.0,0.0,0.0,0.0,0.0,0.0,0.0,0.0,0.0,0.0,0.0,0.0,0.0,0.0,0.0,0.0,0.0,0.0,0.0,0.0,0.0,0.0,0.0,0.0,0.0,0.0,0.0,3.01,2.7563,2.5548,2.5089,2.4097,2.3651,2.4038,2.2985,2.2576,2.3231,0.0,0.0,0.0,0.0,0.0,0.0,0.0,0.0,0.0,0.0,0.0,0.0,0.0,0.0,0.0,0.0,0.0,0.0,0.0,0.0,0.0,0.0,0.0,0.0,0.0,0.0,0.0,0.0,0.0,0.0,0.0,0.0,0.0,0.0,0.0,0.0,0.0,0.0,0.0,0.0,0.0,0.0,0.0,0.0,0.0,0.0,0.0,0.0,0.0,0.0,0.0,0.0,0.0,0.0,0.0,0.0,0.0,0.0,0.0,0.0,0.0,0.0,0.0,0.0,0.0,0.0,0.0,0.0,0.0,0.0,0.0,0.0,0.0,0.0,0.0,0.0,0.0,0.0,0.0,0.0,0.0,0.0,0.0,0.0,0.0,0.0,0.0,0.0,0.0,0.0,0.0,0.0,0.0,0.0,0.0,0.0,0.0,0.0,0.0,0.0,0.0,0.0,2.9112,2.6985,2.5041,2.4048,2.3011,2.2769,2.3741,2.143,2.0444,2.1611,0.0,0.0,0.0,0.0,0.0,0.0,0.0,0.0,0.0,0.0,0.0,0.0,0.0,0.0,0.0,0.0,0.0,0.0,0.0,0.0,0.0,0.0,0.0,0.0,0.0,0.0,0.0,0.0,0.0,0.0,0.0,0.0,0.0,0.0,0.0,0.0,0.0,0.0,0.0,0.0,0.0,0.0,0.0,0.0,0.0,0.0,0.0,0.0,0.0,0.0,0.0,0.0,0.0,0.0,0.0,0.0,0.0,0.0,0.0,0.0,2.4549,2.6305,0.0,0.0,0.0,0.0,0.0,0.0,0.0,0.0,0.0,0.0,0.0,0.0,0.0,0.0,0.0,0.0,0.0,0.0,0.0,0.0,0.0,0.0,0.0,0.0,0.0,0.0,0.0,0.0,0.0,0.0,0.0,0.0,0.0,0.0,0.0,0.0,0.0,0.0,0.0,0.0,2.8025,2.5247,2.312,2.287,2.1869,2.1318,2.1564,1.9849,1.8954,1.9435,1.7994,0.0,0.0,0.0,0.0,0.0,0.0,0.0,0.0,0.0,0.0,0.0,0.0,0.0,0.0,0.0,0.0,0.0,0.0,0.0,0.0,0.0,0.0,0.0,0.0,0.0,0.0,0.0,0.0,0.0,0.0,0.0,0.0,0.0,0.0,0.0,0.0,0.0,0.0,0.0,0.0,0.0,0.0,0.0,0.0,0.0,0.0,0.0,0.0,0.0,0.0,0.0,0.0,0.0,0.0,0.0,0.0,0.0,0.0,0.0,2.2431,2.3476,0.0,0.0,0.0,0.0,0.0,0.0,0.0,0.0,0.0,0.0,0.0,0.0,0.0,0.0,0.0,0.0,0.0,0.0,0.0,0.0,0.0,0.0,0.0,0.0,0.0,0.0,0.0,0.0,0.0,0.0,0.0,0.0,0.0,0.0,0.0,0.0,0.0,0.0,0.0,0.0,2.6791,2.4328,2.2274,2.1776,2.1224,2.0719,2.0351,1.9131,1.8067,1.7206,1.6632,0.0,0.0,0.0,0.0,0.0,0.0,0.0,0.0,0.0,0.0,0.0,0.0,0.0,0.0,0.0,0.0,0.0,0.0,0.0,0.0,0.0,0.0,0.0,0.0,0.0,0.0,0.0,0.0,0.0,0.0,0.0,0.0,0.0,0.0,0.0,0.0,0.0,0.0,0.0,0.0,0.0,0.0,0.0,0.0,0.0,0.0,0.0,0.0,0.0,0.0,0.0,0.0,0.0,2.0518,2.0313,2.0313,2.0313,1.9797,1.902,2.0385,2.0436,1.9782,2.2064,0.0,0.0,0.0,0.0,0.0,0.0,0.0,0.0,0.0,0.0,0.0,0.0,0.0,0.0,0.0,0.0,0.0,0.0,0.0,0.0,0.0,0.0,2.1803,2.2215,2.1304,2.0872,2.2778,0.0,0.0,0.0,0.0,0.0,0.0,0.0,0.0,0.0,0.0,0.0,2.5412,2.3507,2.1878,2.0968,2.0763,2.0403,1.9783,1.8603,1.7114,1.5304,1.5304,1.4646,0.0,0.0,0.0,0.0,0.0,0.0,0.0,0.0,0.0,0.0,0.0,0.0,0.0,0.0,0.0,0.0,0.0,0.0,0.0,0.0,0.0,0.0,0.0,0.0,0.0,0.0,0.0,0.0,0.0,0.0,0.0,0.0,2.1269,2.0538,0.0,0.0,0.0,0.0,0.0,0.0,0.0,0.0,0.0,0.0,0.0,0.0,0.0,2.103,2.103,1.9996,1.9487,1.9487,1.8513,1.8048,1.8048,1.8048,1.7943,1.7838,1.8042,0.0,1.9627,1.9981,0.0,0.0,0.0,0.0,0.0,0.0,0.0,0.0,0.0,0.0,0.0,0.0,0.0,0.0,0.0,0.0,0.0,0.0,0.0,0.0,0.0,0.0,1.7061,1.8133,1.7443,1.6692,1.6983,2.0425,2.3516,2.3534,2.3674,2.3822,0.0,0.0,0.0,0.0,0.0,0.0,2.3416,2.2005,2.107,2.0925,2.03,1.9835,1.9732,1.7279,1.5352,1.4325,1.2733,1.1864,1.2041,1.2203,0.0,0.0,0.0,0.0,0.0,0.0,0.0,0.0,0.0,0.0,0.0,0.0,0.0,0.0,0.0,0.0,0.0,0.0,0.0,0.0,0.0,0.0,0.0,0.0,0.0,0.0,0.0,0.0,0.0,2.1625,2.0518,1.9013,1.8603,1.8401,0.0,0.0,0.0,0.0,0.0,0.0,0.0,0.0,0.0,1.9702,1.9131,1.8826,1.8826,1.8461,1.8304,1.8304,1.7838,1.7582,1.7582,1.7582,1.7582,1.7582,1.7582,1.7943,1.8558,1.9272,2.004,2.0751,0.0,0.0,0.0,0.0,2.187,2.176,2.0845,2.0538,2.0538,2.0633,0.0,0.0,0.0,0.0,0.0,0.0,0.0,1.9192,1.9443,1.8189,1.6778,1.6658,1.6234,1.5914,1.5914,1.8105,2.0333,2.106,2.1752,2.2484,2.3543,2.4168,0.0,0.0,0.0,2.3211,2.2761,2.1251,2.0248,2.0248,1.9465,1.8624,1.7877,1.6327,1.4716,1.3048,1.1769,1.0789,0.9998,1.0815,1.1139,0.0,0.0,0.0,0.0,0.0,0.0,0.0,0.0,0.0,0.0,0.0,0.0,0.0,0.0,0.0,0.0,0.0,0.0,0.0,0.0,0.0,0.0,0.0,0.0,0.0,0.0,0.0,0.0,2.0554,1.9443,1.7687,1.7582,1.7582,0.0,0.0,0.0,0.0,0.0,0.0,1.9413,1.8042,1.7265,1.7489,1.7094,1.6736,1.6411,1.6617,1.6717,1.6717,1.6717,1.6717,1.6717,1.6717,1.6717,1.6717,1.6717,1.6717,1.6823,1.844,1.9124,1.928,2.0341,2.0794,2.0845,2.0794,2.0743,2.0538,1.9147,1.885,1.9013,1.8366,1.8471,1.8946,2.001,0.0,0.0,0.0,0.0,1.7644,1.7705,1.6858,1.5854,1.537,1.5001,1.484,1.4894,1.5808,1.7074,1.8762,2.0033,2.1183,2.2433,2.2885,0.0,2.3085,2.2601,2.2165,2.1717,2.0447,1.9524,1.9361,1.8468,1.7463,1.6399,1.5209,1.3696,1.1814,1.0899,0.975,0.8208,0.9247,0.9519,0.8854,0.0,0.0,0.0,0.0,0.0,0.0,0.0,0.0,0.0,0.0,0.0,0.0,0.0,0.0,0.0,0.0,0.0,0.0,0.0,0.0,0.0,0.0,0.0,0.0,0.0,0.0,0.0,0.0,0.0,1.7279,1.743,0.0,0.0,0.0,0.0,1.7687,1.7378,1.6783,1.5737,1.6677,1.6193,1.4019,1.5263,1.5429,1.4245,1.4293,1.4293,1.4293,1.4293,1.4293,1.4293,1.4293,1.4293,1.4293,1.4293,1.4293,1.4454,1.677,1.7852,1.8069,1.8167,1.8318,1.852,1.8272,1.8167,1.7957,1.6552,1.677,1.7305,1.5097,1.5316,1.6505,1.6552,1.6704,0.0,0.0,1.5108,1.3766,1.4626,1.3339,1.2159,1.3181,1.259,1.1891,1.2164,1.3078,1.4632,1.7199,1.8632,1.9532,1.9828,0.0,2.1191,2.0431,2.1132,2.1183,1.9687,1.9376,1.9116,1.8527,1.7252,1.6399,1.6299,1.376,1.176,1.0836,0.9416,0.8208,0.7321,0.7318,0.749,0.766,0.8799,0.0,0.0,0.0,0.0,0.0,0.0,0.0,0.0,0.0,0.0,0.0,0.0,0.0,0.0,0.0,0.0,0.0,0.0,0.0,0.0,0.0,0.0,0.0,0.0,0.0,0.0,0.0,0.0,1.7536,1.7529,0.0,1.7483,1.7384,1.7107,1.6558,1.6199,1.5601,1.4615,1.4793,1.4583,1.3717,1.4202,1.4256,1.3825,1.403,1.4078,1.4078,1.4078,1.4078,1.4078,1.4078,1.4078,1.4078,1.4078,1.4078,1.4186,1.4995,1.5423,1.5482,1.5482,1.553,1.563,1.553,1.5482,1.5429,1.4942,1.4995,1.5209,1.4347,1.446,1.4728,1.403,1.403,1.4191,1.3868,1.3019,1.2432,1.3285,1.2536,1.1678,1.211,1.1891,1.1678,1.1946,1.292,1.4046,1.5179,1.6935,1.8048,1.7601,1.9072,1.9968,1.9124,1.9324,1.9369,1.8767,1.7608,1.6869,1.7035,1.6092,1.5072,1.4143,1.3117,1.1596,0.9416,0.8813,0.8097,0.721,0.721,0.7265,0.7324,0.7759,0.8198,0.0,0.0,0.0,0.0,0.0,0.0,0.0,0.0,0.0,0.0,0.0,0.0,0.0,0.0,0.0,0.0,0.0,0.0,0.0,0.0,0.0,0.0,0.0,0.0,0.0,1.8819,1.8408,1.7687,1.7582,1.7582,1.7483,1.7054,1.6465,1.5755,1.5173,1.4417,1.3437,1.3609,1.3344,1.259,1.3019,1.3073,1.2698,1.2847,1.2955,1.2955,1.2955,1.2955,1.2955,1.2955,1.2955,1.2955,1.2955,1.2955,1.2955,1.2955,1.2955,1.3004,1.3814,1.4078,1.4078,1.4078,1.4078,1.4078,1.4078,1.3599,1.3009,1.3383,1.3545,1.3383,1.263,1.258,1.2689,1.2472,1.1882,1.1459,1.1991,1.1723,1.1295,1.1295,1.1295,1.1404,1.1787,1.2432,1.3137,1.3521,1.5441,1.6823,1.6274,1.7443,1.8401,1.829,1.7864,1.7654,1.7916,1.6374,1.5375,1.5547,1.4643,1.3565,1.2635,1.1869,1.0613,0.865,0.8318,0.7878,0.721,0.7268,0.7324,0.7324,0.693,0.6705,0.6644,0.0,0.0,0.0,0.0,0.0,0.0,0.0,0.0,0.0,0.0,0.0,0.0,0.0,0.0,0.0,0.0,0.0,0.0,0.0,0.0,0.0,0.0,0.0,1.7964,1.7747,1.7582,1.7529,1.7529,1.7424,1.712,1.6299,1.5648,1.5339,1.4261,1.3127,1.2037,1.3019,1.2585,1.0366,1.166,1.1823,1.0692,1.0692,1.0692,1.0692,1.0692,1.0692,1.0692,1.0692,1.0692,1.0692,1.0692,1.0692,1.0692,1.0692,1.0692,1.0907,1.3112,1.397,1.397,1.397,1.397,1.397,1.397,1.2521,1.0852,1.1987,1.2363,1.2363,1.2363,1.2363,1.2363,1.2363,1.1555,1.0692,1.0692,1.0692,1.0692,1.0692,1.0692,1.0857,1.1459,1.1623,1.1787,1.2278,1.4256,1.5808,1.5808,1.5861,1.634,1.7667,1.6711,0.0,1.6922,1.5755,1.4691,1.4272,1.2911,1.2037,1.1982,1.0123,0.8809,0.8484,0.7937,0.7493,0.721,0.7438,0.7496,0.7496,0.6316,0.514,0.3965,0.0,0.0,0.0,0.0,0.0,0.0,0.0,0.0,0.0,0.0,0.0,0.0,0.0,0.0,0.0,0.0,0.0,0.0,0.0,0.0,0.0,1.6664,1.6776,1.7582,1.7635,1.7199,1.6121,1.6015,1.5583,1.4454,1.4143,1.3717,1.3009,1.2644,1.205,1.1122,1.1341,1.1236,1.0637,1.0962,1.1017,1.0692,1.0692,1.0692,1.0692,1.0692,1.0692,1.0692,1.0692,1.0692,1.0692,1.0692,1.0692,1.0692,1.0692,1.0692,1.0747,1.1396,1.161,1.161,1.161,1.161,1.161,1.161,1.1232,1.0747,1.1067,1.1177,1.1177,1.1177,1.1177,1.1177,1.1177,1.0962,1.0692,1.0692,1.0692,1.0692,1.0692,1.0857,1.1072,1.1514,1.1732,1.2005,1.2332,1.292,1.3349,1.3349,1.4793,1.5755,1.5334,1.4911,1.475,1.4965,1.3344,1.2698,1.4062,1.329,1.2358,1.1692,1.1088,0.9838,0.7706,0.7376,0.7268,0.721,0.6429,0.5592,0.4697,0.4582,0.4244,0.0,0.0,0.0,0.0,0.0,0.0,0.0,0.0,0.0,0.0,0.0,0.0,0.0,0.0,0.0,0.0,0.0,0.0,0.0,0.0,0.0,0.0,1.608,1.5914,1.5962,1.6068,1.5749,1.4776,1.4669,1.4347,1.3383,1.2955,1.2531,1.2046,1.1673,1.124,1.0747,1.0692,1.0692,1.0692,1.0692,1.0692,1.0692,1.0692,1.0692,1.0692,1.0692,1.0692,1.0692,1.0692,1.0692,1.0692,1.0692,1.0692,1.0692,1.0692,1.0692,1.0692,0.0,0.0,0.0,0.0,1.0692,1.0692,1.0692,1.0692,1.0692,1.0692,1.0692,1.0692,1.0692,1.0692,1.0692,1.0692,1.0692,1.0692,1.0692,1.0692,1.0692,1.0692,1.0802,1.1017,1.1295,1.1509,1.1728,1.2005,1.2055,0.0,1.2223,1.3452,1.4417,1.4374,1.384,1.3511,1.376,1.2205,1.1396,1.2254,1.1601,1.0832,1.0276,1.0002,0.0,0.0,0.0,0.7154,0.6649,0.5477,0.0,0.0,0.0,0.2794,0.1901,0.1955,0.0,0.0,0.2781,0.3503,0.0,0.0,0.0,0.0,0.0,0.0,0.0,0.0,0.0,0.0,0.0,0.0,0.0,0.0,0.0,0.0,1.5642,1.4995,1.3539,1.3593,1.3647,1.3431,1.3431,1.3275,1.2911,1.2205,1.1769,1.1782,1.1131,1.0692,1.0692,1.0692,0.0,0.0,0.0,1.0692,1.0692,1.0692,1.0692,1.0692,1.0692,1.0692,1.0692,1.0692,1.0692,1.0692,1.0692,1.0692,1.0692,1.0692,1.0692,1.0692,1.0692,1.0692,1.0692,1.0692,1.0692,1.0692,1.0692,0.0,0.0,1.0692,1.0692,1.0692,1.0692,1.0692,1.0692,1.0692,1.0692,1.0692,1.0692,1.0692,1.0692,1.0692,1.0747,1.0802,1.1072,1.1126,1.1236,1.1514,1.1514,1.1509,1.1787,1.2055,1.2649,1.3986,1.3019,1.2259,1.2758,1.1647,1.0574,0.9962,0.914,0.0,0.8592,0.81,0.7601,0.721,0.7268,0.6765,0.5419,0.4301,0.3185,0.1956,0.19,0.1119,-0.0449,-0.0785,-0.1065,-0.129,0.1453,0.2905,0.0,0.0,0.0,0.0,0.0,0.0,0.0,0.0,0.0,0.0,0.0,0.0,0.0,0.0,0.0,1.3329,1.3117,1.2684,1.1446,1.1337,1.1442,1.1596,1.1592,1.1219,1.0249,1.0194,1.0363,1.0586,1.0692,1.0692,1.0692,1.0692,1.0692,1.0692,1.0692,1.0692,1.0692,1.0692,1.0692,1.0692,1.0692,0.0,1.0692,1.0692,1.0692,1.0692,1.0692,1.0692,1.0692,1.0692,1.0692,1.0692,1.0692,1.0692,1.0692,1.0692,1.0692,1.0692,1.0692,1.0692,1.0692,1.0692,1.0692,1.0692,1.0692,1.0692,0.0,1.0692,1.0692,1.0692,1.0692,1.0692,1.0692,1.0692,1.0857,1.1021,1.1072,1.1295,1.1514,1.1568,1.0794,1.0296,1.0852,1.0966,1.1181,1.1723,1.0954,1.0343,1.0445,0.9633,0.9416,1.0398,0.9677,0.9127,0.9127,0.9016,0.8468,0.7265,0.6318,0.4866,0.2685,0.235,0.1679,0.0448,0.0224,-0.0224,-0.0785,-0.1065,-0.1402,-0.1683,-0.0336,0.0672,0.0,0.0,0.0,0.0,0.0,0.0,0.0,0.0,0.0,0.0,0.0,1.5861,1.5156,0.0,1.3706,1.2575,1.2417,1.1987,1.0692,1.0472,1.0527,1.0684,1.068,1.0468,0.9926,0.9981,1.0202,1.0472,1.0637,1.0692,1.0692,1.0692,1.0692,1.0692,1.0692,1.0692,1.0692,1.0692,1.0692,1.0692,1.0692,1.0692,1.0692,1.0692,1.0692,1.0692,1.0692,1.0692,1.0692,1.0692,1.0692,1.0692,1.0692,1.0692,1.0692,1.0692,1.0692,1.0692,1.0692,1.0692,1.0692,1.0692,1.0692,1.0692,1.0692,1.0692,1.0692,1.0692,1.0692,1.0692,1.0692,1.0249,0.9805,0.9805,0.9412,0.9075,0.9075,0.924,0.935,0.935,0.8854,0.8579,0.9075,0.8803,0.8916,1.0241,1.0076,0.9633,0.9196,0.8758,0.8592,0.8916,0.8527,0.8247,0.8247,0.7692,0.6972,0.6091,0.4529,0.2965,0.1623,0.112,0.0616,0.0,-0.028,-0.0561,-0.0897,-0.1177,-0.1627,-0.2244,-0.1795,-0.1065,0.0,0.0,0.0,0.0,0.0,0.0,0.0,1.6234,1.6393,1.4513,1.4674,1.4942,1.3976,1.3599,1.3112,1.22,1.2096,1.166,1.0527,1.0366,1.0366,1.0366,1.0257,1.0257,1.0312,1.0312,1.0417,1.0692,1.0692,1.0692,1.0692,1.0692,1.0692,1.0692,1.0692,1.0692,1.0692,1.0692,1.0692,1.0692,1.0692,1.0692,1.0692,1.0692,1.0692,1.0692,1.0692,1.0712,1.0745,1.0745,1.0765,1.0798,1.0798,1.0627,1.0453,1.0702,1.0599,1.0402,1.0402,1.0402,1.0402,1.0402,1.0402,1.0402,1.0402,1.0235,1.0065,1.0065,1.0065,1.0065,1.0065,0.9339,0.8614,0.8614,0.7809,0.7118,0.7118,0.7099,0.7083,0.7083,0.6919,0.6919,0.7304,0.6589,0.6705,0.8858,0.9078,0.8692,0.7983,0.7983,0.7817,0.7099,0.7154,0.721,0.721,0.6096,0.5146,0.4585,0.2741,0.1456,0.1008,0.028,-0.0056,0.0,-0.0336,-0.0617,-0.0897,-0.1234,-0.1851,-0.2693,-0.2806,-0.2354,1.7312,1.6776,1.5914,1.5914,1.5108,1.4293,0.0,1.4406,1.44,1.4132,1.3383,1.2738,1.263,1.1769,1.1017,1.0907,1.0907,1.0852,1.0692,1.0637,1.0637,1.0637,1.0202,0.9981,1.0257,1.0312,1.0417,1.0692,1.0692,1.0692,1.0692,1.0692,1.0692,1.0692,1.0692,1.0692,1.0692,1.0692,1.0692,1.0692,1.0692,1.0692,1.0692,1.0692,1.0692,1.0692,1.0692,1.0785,1.0992,1.0992,1.1029,1.1163,1.1163,1.0467,0.9584,1.0593,1.0345,0.9486,0.9486,0.9486,0.9486,0.9486,0.9486,0.9486,0.9486,0.8618,0.769,0.769,0.769,0.769,0.769,0.7577,0.7462,0.7462,0.7323,0.7185,0.7185,0.7158,0.7083,0.7083,0.6311,0.5759,0.6371,0.5481,0.5258,0.6811,0.6369,0.5871,0.5759,0.6207,0.6485,0.6429,0.6877,0.721,0.721,0.6096,0.481,0.3412,0.207,0.0896,-0.0168,-0.028,-0.0224,0.0,-0.0561,-0.0841,-0.0897,-0.1458,-0.2076,-0.2693,-0.3253,-0.297,1.5423,1.5209,1.4674,1.403,1.3491,1.3112,1.3112,1.3599,1.3706,1.2413,1.2254,1.22,1.1555,1.1017,1.0692,1.0692,1.0692,1.0692,1.0692,1.0692,1.0692,1.0692,1.0472,1.0363,1.0527,1.0527,1.0582,1.0692,1.0692,1.0692,1.0692,1.0692,1.0692,1.0692,1.0692,1.0692,1.0692,1.0692,1.0692,1.0692,1.0692,1.0692,1.0696,1.0806,1.0907,1.1001,1.1001,1.1045,1.1118,1.1118,1.0578,0.9816,0.9997,0.9237,0.8175,0.95,0.9195,0.8081,0.7901,0.7962,0.8081,0.7901,0.7962,0.8139,0.8139,0.7732,0.7328,0.7328,0.7328,0.7328,0.7328,0.68,0.6217,0.6044,0.549,0.4942,0.4942,0.4915,0.4934,0.5117,0.4713,0.4475,0.4711,0.4313,0.4201,0.4812,0.5202,0.5427,0.5427,0.5929,0.6429,0.6765,0.6429,0.6151,0.6151,0.4249,0.2685,0.1846,0.0672,-0.028,-0.0897,-0.0561,-0.0449,-0.0505,-0.0785,-0.0953,-0.1121,-0.1908,-0.2636,-0.3253,-0.3866,-0.4199,1.4835,1.446,1.3922,1.2684,1.2146,1.1932,1.1932,1.2575,1.2684,1.1017,1.1341,1.166,1.0857,1.0692,1.0692,1.0692,1.0692,1.0692,1.0692,1.0692,1.0692,1.0692,1.0692,1.0692,1.0692,1.0692,1.0692,1.0692,1.0692,1.0692,1.0692,1.0692,1.0692,1.0692,1.0692,1.0692,1.0692,1.0692,1.0716,1.0769,1.0769,1.0794,1.0842,1.0976,1.1106,1.1224,1.1224,1.1252,1.1239,1.0825,0.9971,0.8945,0.8716,0.7765,0.6633,0.7684,0.7536,0.6712,0.6471,0.6591,0.6712,0.6471,0.665,0.6892,0.6892,0.6655,0.6362,0.6362,0.6362,0.6362,0.6243,0.559,0.488,0.4585,0.386,0.32,0.3318,0.3308,0.3402,0.3653,0.3703,0.3689,0.3646,0.3638,0.3638,0.3638,0.4372,0.4921,0.4931,0.5427,0.604,0.6652,0.5704,0.5035,0.5035,0.2685,0.1063,0.0784,-0.0336,-0.1121,-0.129,-0.0897,-0.0729,-0.0897,-0.0953,-0.1121,-0.129,-0.2244,-0.303,-0.3643,-0.4313,-0.5039,1.6611,1.5435,1.425,1.2792,1.1555,1.0747,1.0747,1.0802,1.0802,1.0692,1.0747,1.0747,1.0692,1.0692,1.0692,1.0692,1.0692,1.0692,1.0692,1.0692,1.0692,1.0692,1.0692,1.0692,1.0692,1.0692,1.0692,1.0692,1.0692,1.0692,1.0692,1.0692,1.0692,1.0692,1.0692,1.0692,1.0692,1.0692,1.0781,1.1016,1.1016,1.1045,1.1208,1.1212,1.122,1.1224,1.1224,1.1325,1.137,0.9815,0.9241,0.9124,0.7599,0.6134,0.4974,0.5033,0.5217,0.5466,0.5466,0.5466,0.5466,0.5466,0.5651,0.5959,0.5959,0.5046,0.4006,0.4006,0.4006,0.3944,0.3697,0.3574,0.3451,0.3142,0.2984,0.3011,0.3313,0.3334,0.3414,0.3708,0.3824,0.3824,0.3823,0.3822,0.3822,0.3822,0.3823,0.3779,0.3658,0.4201,0.4758,0.5371,0.4589,0.403,0.403,0.2126,0.0784,0.0448,-0.0672,-0.129,-0.129,-0.129,-0.1177,-0.0897,-0.1177,-0.129,-0.129,-0.2244,-0.303,-0.3643,-0.4482,-0.5208,1.5435,1.4196,1.2847,1.1555,1.0962,1.0692,1.0692,1.0692,1.0692,1.0692,1.0692,1.0692,1.0692,1.0692,1.0692,1.0692,1.0692,1.0692,1.0692,1.0692,1.0692,1.0692,1.0692,1.0692,1.0692,1.0692,1.0692,1.0692,1.0692,1.0692,1.0692,1.0692,1.0692,1.0692,1.081,1.0875,1.0875,1.0988,1.1078,1.1139,1.1139,1.1232,1.1407,1.1407,1.0992,1.0256,1.0256,0.968,0.8757,0.8213,0.7205,0.602,0.5712,0.4673,0.3326,0.3573,0.3573,0.3511,0.3758,0.3944,0.4129,0.4129,0.4315,0.4562,0.4562,0.4256,0.3889,0.3703,0.3642,0.358,0.3271,0.3146,0.3085,0.2775,0.2826,0.2938,0.2815,0.2987,0.3149,0.3176,0.323,0.3278,0.3421,0.3473,0.3533,0.3768,0.3829,0.3694,0.336,0.3527,0.3641,0.3521,0.2542,0.1851,0.1851,0.0347,-0.0692,-0.0798,-0.1311,-0.1646,-0.1627,-0.1402,-0.1346,-0.1514,-0.1739,-0.202,-0.2244,-0.3531,-0.426,-0.4482,-0.5377,-0.6158,1.425,1.328,1.2254,1.1017,1.0692,1.0692,1.0692,1.0692,1.0692,1.0692,1.0802,1.0802,1.0692,1.0802,1.0802,1.0692,1.0692,1.0692,1.0692,1.0304,1.0084,1.0084,0.9691,0.9412,0.9412,0.9412,0.9746,1.0637,1.0692,1.072,1.0789,1.0789,1.0818,1.0879,1.0997,1.1062,1.1062,1.1167,1.1256,1.1321,1.0911,1.076,1.0867,1.0323,0.9653,0.8948,0.8827,0.8155,0.7179,0.6566,0.559,0.4369,0.4,0.3203,0.2345,0.2592,0.2591,0.2529,0.29,0.3146,0.3332,0.3455,0.3703,0.3889,0.3765,0.3765,0.3703,0.3394,0.3332,0.3271,0.29,0.2837,0.2715,0.2406,0.2469,0.2591,0.2529,0.2652,0.2829,0.2922,0.2917,0.2969,0.3179,0.2813,0.2392,0.2152,0.2273,0.2561,0.2826,0.2586,0.2232,0.1995,0.0999,0.0353,0.0353,-0.0824,-0.1584,-0.1567,-0.174,-0.1848,-0.1828,-0.1884,-0.1935,-0.2093,-0.2546,-0.2877,-0.3139,-0.4314,-0.4985,-0.5094,-0.6158,-0.6824,1.3171,1.2743,1.2363,1.1017,1.0692,1.0692,1.0692,1.0692,1.0747,1.0747,1.0966,1.1072,1.0802,1.0966,1.1017,1.0747,1.0692,1.0692,1.0637,0.964,0.8865,0.8809,0.7805,0.7085,0.7091,0.7093,0.8039,1.0327,1.0543,1.0619,1.0916,1.0868,1.0883,1.1101,1.1117,1.1178,1.1236,1.1244,1.1279,1.1394,1.0282,0.9741,0.962,0.8094,0.736,0.7238,0.6935,0.6754,0.6571,0.4981,0.4307,0.4125,0.2591,0.1977,0.1977,0.1977,0.2222,0.2529,0.2837,0.2961,0.3023,0.3394,0.3642,0.3826,0.358,0.3455,0.3394,0.3085,0.2961,0.29,0.259,0.2467,0.2406,0.2099,0.2038,0.2099,0.2406,0.2467,0.259,0.29,0.29,0.29,0.29,0.1786,0.0492,-0.08,-0.0492,0.0426,0.1894,0.1297,0.0707,0.059,-0.0118,-0.065,-0.0649,-0.1476,-0.2008,-0.2006,-0.2006,-0.2005,-0.2003,-0.259,-0.2863,-0.2761,-0.3452,-0.3881,-0.4039,-0.4713,-0.5214,-0.5545,-0.6765,-0.7376,1.2847,1.2041,1.1122,1.0798,1.0692,1.0692,1.0692,1.0857,1.1021,1.1021,1.1236,1.1459,1.1404,1.124,1.1076,1.1017,1.0857,1.0414,0.9475,0.9089,0.8589,0.7639,0.7307,0.712,0.7153,0.7161,0.7425,0.809,0.8121,0.8577,0.9702,0.8788,0.8746,0.9766,0.9883,1.0421,1.1427,1.1565,1.1048,0.9875,0.9546,0.883,0.7609,0.724,0.6508,0.5527,0.5468,0.4734,0.3571,0.3143,0.2836,0.2591,0.2161,0.1977,0.1977,0.1977,0.2038,0.2161,0.253,0.2775,0.3023,0.3085,0.3146,0.3208,0.3146,0.3146,0.3085,0.2714,0.2652,0.2529,0.2222,0.2099,0.2099,0.2038,0.216,0.2345,0.2161,0.2345,0.2467,0.2284,0.1666,0.1109,0.1109,0.0246,-0.0615,-0.0923,-0.1477,-0.1535,-0.0671,-0.0305,-0.067,-0.1889,-0.2255,-0.256,-0.2985,-0.3229,-0.3395,-0.3415,-0.3413,-0.3394,-0.3413,-0.3528,-0.3639,-0.3623,-0.4381,-0.4839,-0.4875,-0.6075,-0.6724,-0.6832,-0.8412,-0.9354,1.1823,1.1286,1.0692,1.0692,1.0692,1.0747,1.0857,1.0966,1.1126,1.1291,1.1568,1.1732,1.1623,1.1459,1.1295,1.1131,1.0414,0.9695,0.8975,0.8036,0.7091,0.6422,0.5904,0.5614,0.5667,0.5709,0.5944,0.657,0.7003,0.7624,0.8509,0.7811,0.7836,0.8663,0.874,0.9143,0.9926,0.9889,0.938,0.8462,0.7728,0.6874,0.6018,0.5286,0.4551,0.3816,0.3694,0.3143,0.2283,0.2283,0.2161,0.1977,0.1977,0.1977,0.1977,0.1977,0.2099,0.2222,0.2284,0.253,0.2775,0.2961,0.3023,0.2961,0.2837,0.2775,0.2715,0.2345,0.2283,0.2222,0.2038,0.1977,0.1977,0.1977,0.216,0.2222,0.2038,0.216,0.2036,0.1296,0.0678,-0.0062,-0.1231,-0.1907,-0.246,-0.3077,-0.3386,-0.3447,-0.3018,-0.2402,-0.2341,-0.3268,-0.3391,-0.3513,-0.3881,-0.3883,-0.3929,-0.3895,-0.3892,-0.3877,-0.3903,-0.4202,-0.4367,-0.4514,-0.5284,-0.5856,-0.6226,-0.7043,-0.7927,-0.8886,-0.9987,-1.1114,1.0692,1.0692,1.0692,1.0692,1.0692,1.0747,1.1021,1.1126,1.124,1.1568,1.1896,1.2001,1.1732,1.1678,1.1568,1.124,0.9915,0.892,0.8699,0.6758,0.532,0.522,0.4326,0.3684,0.37,0.3751,0.4278,0.5484,0.6366,0.7002,0.7334,0.722,0.7266,0.7612,0.7734,0.7856,0.7856,0.7484,0.7238,0.6994,0.5529,0.4734,0.449,0.308,0.2406,0.2406,0.2099,0.1977,0.1977,0.1977,0.1977,0.1977,0.1977,0.1977,0.1977,0.1977,0.216,0.2406,0.2099,0.216,0.2467,0.2776,0.2838,0.2838,0.2529,0.2406,0.2345,0.2099,0.1977,0.1977,0.1977,0.1977,0.1977,0.1915,0.1977,0.1977,0.1915,0.1977,0.1605,0.0247,-0.0123,-0.1047,-0.3506,-0.406,-0.4555,-0.573,-0.5421,-0.5049,-0.5049,-0.4373,-0.3944,-0.4006,-0.4006,-0.4067,-0.4129,-0.419,-0.419,-0.419,-0.419,-0.419,-0.419,-0.4742,-0.5201,-0.5433,-0.6155,-0.6891,-0.7626,-0.7956,-0.9101,-1.0993,-1.1651,-1.2885,1.0747,1.0692,1.0692,1.0692,1.0692,1.0747,1.1021,1.1295,1.1568,1.1896,1.2164,1.2332,1.2273,1.206,1.1841,1.1568,1.03,0.8861,0.7584,0.6258,0.5064,0.4111,0.3844,0.3718,0.3878,0.3898,0.399,0.4234,0.4412,0.5018,0.6124,0.5152,0.5037,0.6211,0.706,0.7484,0.7484,0.7179,0.6265,0.492,0.4614,0.3819,0.2468,0.2223,0.2099,0.2099,0.2038,0.1977,0.1977,0.1977,0.1977,0.1977,0.1977,0.1977,0.1977,0.1977,0.2038,0.2099,0.2038,0.2038,0.2099,0.2161,0.2161,0.2161,0.2099,0.2099,0.2099,0.2038,0.1977,0.1977,0.1977,0.1977,0.1915,0.1667,0.1791,0.1915,0.1667,0.1791,0.1605,0.0247,-0.0924,-0.2154,-0.3629,-0.4802,-0.5607,-0.5855,-0.5794,-0.573,-0.573,-0.4682,-0.4127,-0.4679,-0.4742,-0.4928,-0.5485,-0.5548,-0.5548,-0.5548,-0.5548,-0.5548,-0.5548,-0.5912,-0.6149,-0.6193,-0.7169,-0.7707,-0.787,-0.9839,-1.1004,-1.1465,-1.4168,-1.5732,1.0747,1.0692,1.0692,1.0692,1.0802,1.0966,1.1291,1.1568,1.1896,1.2169,1.2327,1.2387,1.2387,1.2164,1.1896,1.1623,0.9849,0.8137,0.7249,0.5588,0.4283,0.3785,0.3706,0.3819,0.3912,0.3888,0.3857,0.3701,0.3703,0.401,0.4807,0.4133,0.3887,0.4373,0.486,0.5104,0.5104,0.4797,0.4185,0.3388,0.3204,0.2776,0.1977,0.1977,0.1977,0.1977,0.1977,0.1977,0.1977,0.1977,0.1977,0.1977,0.1977,0.1977,0.1977,0.1977,0.1977,0.1977,0.1977,0.1977,0.1977,0.1977,0.1977,0.1977,0.1977,0.1977,0.1977,0.1977,0.1977,0.1977,0.1791,0.1729,0.1667,0.1297,0.1482,0.1482,0.0617,0.074,0.0555,-0.0801,-0.2092,-0.3384,-0.474,-0.5483,-0.5916,-0.5916,-0.5916,-0.5916,-0.5916,-0.5362,-0.5053,-0.536,-0.5421,-0.5546,-0.5855,-0.5916,-0.5916,-0.5916,-0.6039,-0.616,-0.616,-0.6469,-0.6712,-0.6896,-0.8227,-0.9131,-0.9613,-1.1634,-1.3244,-1.4583,-1.6166,-1.7565,1.0966,1.0802,1.0747,1.0857,1.1021,1.1181,1.1623,1.1841,1.206,1.2327,1.2387,1.2387,1.2387,1.2219,1.2005,1.1623,0.9402,0.7523,0.7138,0.5104,0.363,0.3691,0.3811,0.3812,0.3873,0.3922,0.3765,0.3517,0.3455,0.3455,0.3703,0.3517,0.3271,0.3023,0.29,0.29,0.29,0.259,0.2406,0.2406,0.2099,0.1977,0.1977,0.1977,0.1977,0.1977,0.1977,0.1977,0.1977,0.1977,0.1977,0.1977,0.1977,0.1977,0.1977,0.1977,0.1977,0.1977,0.1977,0.1977,0.1915,0.1605,0.1729,0.1977,0.1977,0.1729,0.1481,0.1481,0.1234,0.0925,0.0987,0.074,0.0555,0.0555,0.0987,0.1049,-0.0246,-0.0246,-0.0493,-0.2092,-0.3199,-0.4307,-0.5669,-0.5916,-0.5916,-0.5916,-0.5916,-0.5916,-0.5916,-0.5916,-0.5916,-0.5978,-0.5916,-0.5916,-0.5978,-0.5978,-0.6039,-0.6101,-0.6344,-0.6528,-0.6528,-0.6837,-0.7143,-0.7508,-0.9191,-1.051,-1.1294,-1.3384,-1.5467,-1.7412,-1.7886,-1.9118,1.1514,1.1131,1.0857,1.1404,1.1295,1.1236,1.1841,1.2001,1.206,1.2327,1.2387,1.2387,1.2387,1.2387,1.2223,1.1678,0.9567,0.7741,0.7193,0.5156,0.3692,0.3753,0.3874,0.3875,0.3875,0.3885,0.3765,0.3517,0.3208,0.3085,0.3085,0.3085,0.3023,0.3023,0.2714,0.2529,0.2529,0.2222,0.2038,0.2038,0.2038,0.1977,0.1977,0.1977,0.1977,0.1977,0.1977,0.1977,0.1977,0.1977,0.1977,0.1977,0.1977,0.1977,0.1977,0.1977,0.1977,0.1977,0.1977,0.1977,0.1729,0.0246,0.074,0.1977,0.1977,0.0925,-0.0246,-0.0246,-0.1353,-0.2214,-0.1046,-0.166,-0.2275,-0.1107,0.0123,0.0741,-0.0247,-0.0247,-0.0739,-0.326,-0.3813,-0.4307,-0.5669,-0.5916,-0.5916,-0.5916,-0.5916,-0.5916,-0.5916,-0.5916,-0.6039,-0.6344,-0.6099,-0.6039,-0.6342,-0.6342,-0.6467,-0.6778,-0.6839,-0.6839,-0.6839,-0.7204,-0.7508,-0.7872,-0.9973,-1.1234,-1.1671,-1.5284,-1.7178,-1.7477,-1.9479,-2.0823,1.135,1.1021,1.0802,1.1181,1.135,1.1514,1.1896,1.2114,1.2273,1.2387,1.2387,1.2387,1.2387,1.2387,1.2219,1.1678,1.0178,0.8631,0.7304,0.5784,0.4564,0.3879,0.3702,0.3641,0.3637,0.3455,0.3209,0.29,0.2592,0.2407,0.2407,0.2591,0.2591,0.2407,0.2284,0.2222,0.2222,0.2038,0.1977,0.1977,0.1977,0.1977,0.1977,0.1977,0.1977,0.1977,0.1977,0.1977,0.1977,0.1977,0.1853,0.1729,0.1915,0.1358,0.0617,0.1606,0.0987,-0.0308,0.0308,-0.0062,-0.0862,-0.1722,-0.1538,-0.0985,-0.0985,-0.1354,-0.1723,-0.1968,-0.2459,-0.289,-0.2521,-0.3014,-0.3628,-0.3873,-0.2769,-0.1908,-0.2952,-0.2892,-0.2892,-0.3752,-0.4737,-0.5602,-0.6096,-0.6346,-0.6532,-0.6532,-0.6532,-0.6532,-0.6532,-0.6532,-0.653,-0.6714,-0.6405,-0.6344,-0.6653,-0.6714,-0.6775,-0.69,-0.7263,-0.7508,-0.7508,-0.7997,-0.8781,-0.9852,-1.1715,-1.3269,-1.4584,-1.7255,-1.8739,-1.9196,-2.0587,-2.1566,1.14,1.1072,1.0911,1.1291,1.1514,1.1787,1.206,1.2273,1.2387,1.2387,1.2387,1.2387,1.2387,1.2387,1.211,1.1236,1.0069,0.8631,0.6864,0.5696,0.4705,0.3882,0.3658,0.3537,0.3513,0.3085,0.2775,0.2529,0.216,0.1977,0.1977,0.2222,0.2222,0.1977,0.1977,0.1977,0.1977,0.1977,0.1977,0.1977,0.1915,0.1853,0.1853,0.1729,0.1729,0.1729,0.1729,0.1729,0.1667,0.1296,0.0987,0.074,0.0617,-0.0185,-0.1047,0.0123,-0.0677,-0.2214,-0.1476,-0.1846,-0.2769,-0.3505,-0.3626,-0.3625,-0.424,-0.3935,-0.3383,-0.3628,-0.3812,-0.3996,-0.461,-0.4304,-0.4244,-0.56,-0.4613,-0.3689,-0.4794,-0.4797,-0.4614,-0.4737,-0.5724,-0.6528,-0.6528,-0.6714,-0.69,-0.69,-0.69,-0.69,-0.69,-0.69,-0.6962,-0.7021,-0.6896,-0.6893,-0.7021,-0.7143,-0.7266,-0.7329,-0.7875,-0.8238,-0.8299,-0.9147,-1.0169,-1.1479,-1.3448,-1.5236,-1.6774,-1.8687,-1.9982,-2.0723,-2.1509,-2.2717,1.1896,1.1564,1.1236,1.1841,1.2005,1.206,1.2332,1.2387,1.2387,1.2387,1.2387,1.2387,1.2387,1.2387,1.1832,1.0127,0.8793,0.7409,0.5648,0.4496,0.3827,0.3829,0.3876,0.3765,0.3517,0.29,0.2529,0.2529,0.216,0.1977,0.1977,0.1977,0.1977,0.1977,0.1977,0.1977,0.1977,0.1977,0.1977,0.1977,0.1667,0.1482,0.1482,0.1173,0.0988,0.0988,0.0988,0.0988,0.0926,-0.0431,-0.0984,-0.1107,-0.2337,-0.2889,-0.2889,-0.295,-0.2951,-0.3012,-0.2951,-0.3012,-0.3258,-0.4856,-0.5163,-0.5224,-0.7253,-0.6703,-0.5351,-0.5351,-0.5598,-0.6151,-0.7503,-0.5902,-0.4244,-0.56,-0.4613,-0.3751,-0.5104,-0.5102,-0.5287,-0.6589,-0.69,-0.69,-0.69,-0.69,-0.69,-0.69,-0.69,-0.69,-0.69,-0.69,-0.7021,-0.7385,-0.7689,-0.775,-0.7447,-0.7689,-0.8058,-0.8369,-0.8674,-0.9034,-0.9275,-1.0521,-1.1475,-1.2153,-1.4999,-1.6774,-1.7412,-1.9319,-2.0723,-2.1616,-2.2184,-2.4684,1.292,1.2323,1.1514,1.1896,1.2005,1.206,1.2332,1.2387,1.2387,1.2387,1.2387,1.2327,1.2169,1.1446,1.0621,0.9691,0.852,0.7191,0.5592,0.5123,0.4584,0.3591,0.3148,0.2838,0.2531,0.2285,0.216,0.216,0.2038,0.1977,0.1977,0.1977,0.1977,0.1977,0.1977,0.1977,0.1977,0.1977,0.1915,0.1667,0.1544,0.0925,-0.0185,-0.0308,-0.037,-0.0431,-0.1354,-0.1231,-0.0493,-0.1784,-0.246,-0.2644,-0.289,-0.3626,-0.4488,-0.3381,-0.412,-0.5538,-0.4858,-0.5226,-0.6149,-0.6886,-0.7008,-0.707,-0.7686,-0.738,-0.6827,-0.7072,-0.7194,-0.7378,-0.7808,-0.7255,-0.6761,-0.7194,-0.6886,-0.6517,-0.6705,-0.6705,-0.6646,-0.6837,-0.7082,-0.7266,-0.7266,-0.7633,-0.7816,-0.763,-0.7997,-0.8183,-0.7941,-0.8122,-0.8305,-0.8427,-0.8546,-0.8427,-0.8125,-0.8366,-0.8729,-0.8973,-0.9339,-0.964,-0.9943,-1.1434,-1.2868,-1.4128,-1.6127,-1.7775,-1.9036,-2.0479,-2.2387,-2.4591,-2.5243,-2.7334,1.3403,1.2758,1.1787,1.1951,1.206,1.2164,1.2387,1.2387,1.2387,1.2387,1.2387,1.2332,1.206,1.1004,0.9904,0.8858,0.7692,0.6432,0.4968,0.4798,0.4487,0.3471,0.2866,0.2406,0.2222,0.2099,0.1977,0.1977,0.1977,0.1977,0.1977,0.1977,0.1977,0.1977,0.1977,0.1977,0.1977,0.1853,0.1729,0.1482,0.074,-0.0185,-0.123,-0.1846,-0.2092,-0.2153,-0.2952,-0.289,0.0,-0.3566,-0.4182,-0.4366,-0.4732,-0.5469,-0.6208,-0.5223,-0.5902,-0.7202,-0.658,-0.6888,-0.763,-0.7811,-0.7872,-0.7872,-0.7872,-0.775,-0.7627,-0.7872,-0.7872,-0.7872,-0.7872,-0.7872,-0.7872,-0.7872,-0.7872,-0.7872,-0.7627,-0.7566,-0.7569,-0.7513,-0.7633,-0.7816,-0.7936,-0.8305,-0.8488,-0.8302,-0.861,-0.8796,-0.8613,-0.8796,-0.8915,-0.8915,-0.8976,-0.8976,-0.8732,-0.8915,-0.9156,-0.9457,-0.9822,-1.0183,-1.0668,-1.2577,-1.4187,-1.544,-1.7319,-1.9016,-2.0493,-2.2322,-2.4527,-2.7039,-2.8101,-2.9922,0.0,1.292,1.2005,1.2005,1.2223,1.2387,1.2387,1.2387,0.0,1.2387,1.2387,1.2278,1.1891,1.084,0.9457,0.7744,0.6417,0.5176,0.3841,0.3676,0.364,0.3444,0.2837,0.2467,0.2467,0.216,0.1977,0.1977,0.1977,0.1977,0.1977,0.1977,0.1915,0.1853,0.1853,0.1853,0.1977,0.1544,0.1358,0.1235,-0.0677,-0.1723,-0.1846,-0.3383,-0.4059,-0.4059,-0.412,-0.412,-0.4122,-0.5475,-0.6031,-0.6151,-0.7441,-0.7872,-0.7872,-0.7872,-0.7872,-0.7872,-0.7872,-0.7872,-0.7872,-0.7872,-0.7872,-0.7872,-0.7872,-0.7872,-0.7872,-0.7872,-0.7872,-0.7872,-0.7872,-0.7872,-0.7933,-0.7933,-0.7933,-0.7933,-0.7994,-0.7994,-0.8055,-0.8369,-0.843,-0.8552,-0.8854,-0.8915,-0.8915,-0.8915,-0.8915,-0.8976,-0.8915,-0.8976,-0.8976,-0.8976,-0.9217,-0.9396,-0.9396,-0.9396,-0.9518,-0.9822,-1.0183,-1.0728,-1.145,-1.3834,-1.5499,-1.6197,-1.8739,-2.0658,-2.1892,-2.4756,-2.703,-2.8843,-3.0792,-3.2348,1.3786,0.0,1.2327,1.2327,1.2327,1.2387,0.0,1.2387,1.2387,1.2387,1.2387,1.1941,1.057,0.9347,0.7962,0.62,0.4923,0.3944,0.3382,0.3003,0.2716,0.2708,0.2346,0.2099,0.2099,0.2038,0.1977,0.1977,0.1977,0.1977,0.1977,0.1977,0.1419,0.0123,0.0062,0.0555,0.1606,0.0493,-0.0308,-0.0801,-0.2276,-0.3629,-0.486,-0.523,-0.5414,-0.5475,-0.6519,-0.6394,-0.5536,-0.6888,-0.7441,-0.7441,-0.7747,-0.7872,-0.7872,-0.7872,-0.7872,-0.7872,-0.7872,-0.7872,-0.7872,-0.7872,-0.7872,-0.7872,-0.7872,-0.7872,-0.7872,-0.7872,-0.7872,-0.7872,-0.7872,-0.7872,-0.7994,-0.8244,-0.8305,-0.8366,-0.8607,-0.8668,-0.8668,-0.8793,-0.8793,-0.8793,-0.8915,-0.9095,-0.9156,-0.8915,-0.9278,-0.9521,-0.9217,-0.9457,-0.9579,-0.9579,-0.9883,-1.0061,-1.0061,-1.0061,-1.0183,-1.0547,-1.091,-1.1804,-1.3352,-1.4955,-1.6662,-1.8474,-2.0966,-2.3119,-2.4977,-2.6318,-2.8294,-3.0854,-3.2526,-3.4097,1.3197,1.2925,1.2387,1.2387,1.2387,1.2387,1.2387,1.2387,1.2387,1.2223,1.2223,1.1669,0.9962,0.8631,0.7301,0.5648,0.4397,0.3602,0.3514,0.318,0.2872,0.2773,0.2406,0.2161,0.2038,0.1419,0.1111,0.1111,0.0493,0.0123,-0.0062,-0.0062,-0.0554,-0.1599,-0.166,-0.1292,-0.0554,-0.1415,-0.2029,-0.2399,-0.3875,-0.5044,-0.5906,-0.6521,-0.6827,-0.6888,-0.7564,-0.7503,-0.6888,-0.7625,-0.7872,-0.7872,-0.7872,-0.7872,-0.7872,-0.7872,-0.7872,-0.7872,-0.7872,-0.7872,-0.7872,-0.7872,-0.7872,-0.7872,-0.7872,-0.7872,-0.7872,-0.7872,-0.7872,-0.7872,-0.7872,-0.7872,-0.7994,-0.8308,-0.8369,-0.8491,-0.8854,-0.8915,-0.8915,-0.9034,-0.9095,-0.9156,-0.9278,-0.9457,-0.9457,-0.9339,-0.9579,-0.9761,-0.9761,-0.9943,-1.0061,-1.0243,-1.0425,-1.0668,-1.097,-1.1088,-1.1269,-1.145,-1.2041,-1.3168,-1.488,-1.6598,-1.8584,-2.0959,-2.3383,-2.5535,-2.7387,-2.8612,-3.0687,-3.3566,-3.4449,-3.6058,1.2387,1.2219,1.211,1.2327,1.2387,1.2332,1.2332,1.2164,1.2001,1.1951,1.1673,1.095,0.9412,0.8137,0.6861,0.5369,0.427,0.3614,0.3664,0.3423,0.3147,0.2901,0.2591,0.2221,0.1729,0.0678,-0.0123,-0.037,-0.1416,-0.2216,-0.2585,-0.2585,-0.283,-0.332,-0.3381,-0.3504,-0.3748,-0.3749,-0.3751,-0.3812,-0.5412,-0.6213,-0.6215,-0.738,-0.7872,-0.7872,-0.7872,-0.7872,-0.7872,-0.7872,-0.7872,-0.7872,-0.7872,-0.7872,-0.7872,-0.7872,-0.7872,-0.7872,-0.7872,-0.7872,-0.7872,-0.7872,-0.7872,-0.7872,-0.7872,-0.7872,-0.7872,-0.7872,-0.7872,-0.7872,-0.7872,-0.7933,-0.8058,-0.8369,-0.8491,-0.8613,-0.8976,-0.9037,-0.9095,-0.9339,-0.9396,-0.9457,-0.9761,-0.9822,-0.9822,-0.9883,-0.9879,-1.0001,-1.0304,-1.0365,-1.0547,-1.091,-1.097,-1.139,-1.2286,-1.2646,-1.2942,-1.3237,-1.3701,-1.4811,-1.6692,-1.8918,-2.1073,-2.3255,-2.5553,-2.7561,-2.924,-3.1002,-3.3381,-3.6223,-3.6638,-3.8227,1.2387,1.15,1.0836,1.211,1.2219,1.2055,1.2055,1.1118,1.046,1.1455,1.0065,0.8459,0.7965,0.6916,0.5588,0.4088,0.3335,0.2891,0.2644,0.2384,0.2223,0.2161,0.2099,0.1605,0.0432,0.0123,-0.0616,-0.2032,-0.2278,-0.2585,-0.289,-0.289,-0.3504,-0.4981,-0.5042,-0.5716,-0.7131,-0.578,-0.5228,-0.5536,-0.695,-0.7564,-0.7625,-0.7808,-0.7872,-0.7872,-0.7872,-0.7872,-0.7872,-0.7872,-0.7872,-0.7872,-0.7872,-0.7872,-0.7872,-0.7872,-0.7872,-0.7872,-0.7872,-0.7872,-0.7872,-0.7872,-0.7872,-0.7872,-0.7872,-0.7872,-0.7872,-0.7872,-0.7872,-0.7872,-0.7872,-0.8119,-0.843,-0.8732,-0.8973,-0.9275,-0.9579,-0.964,-0.97,-0.97,-0.97,-0.9761,-0.9822,-0.9822,-0.9879,-1.0183,-1.0243,-1.0365,-1.0668,-1.0728,-1.097,-1.1575,-1.1877,-1.2817,-1.4752,-1.5231,-1.6163,-1.8023,-1.6575,-1.7038,-2.0165,-2.242,-2.3863,-2.4501,-2.6743,-2.8777,-3.0429,-3.2587,-3.5005,-3.77,-3.9051,-4.048,1.2387,1.1887,1.1337,1.1223,1.0503,0.9838,0.9838,0.9288,0.8958,0.935,0.8572,0.7523,0.6586,0.5855,0.4903,0.3431,0.3011,0.2818,0.274,0.2641,0.2469,0.2284,0.2284,0.1975,0.1172,-0.037,-0.1662,-0.2462,-0.4,-0.5046,-0.5349,-0.5349,-0.578,-0.67,-0.6764,-0.7131,-0.7872,-0.7131,-0.6825,-0.7011,-0.7625,-0.7872,-0.7872,-0.7872,-0.7872,-0.7872,-0.7872,-0.7872,-0.7872,-0.7872,-0.7872,-0.7872,-0.7872,-0.7872,-0.7872,-0.7872,-0.7872,-0.7872,-0.7872,-0.7872,-0.7872,-0.7872,-0.7872,-0.7872,-0.7872,-0.8058,-0.8183,-0.8183,-0.8058,-0.7872,-0.7872,-0.8119,-0.8491,-0.8793,-0.9095,-0.9396,-0.97,-0.9822,-0.9822,-0.9822,-0.9822,-0.9883,-1.0061,-1.0065,-1.0183,-1.0547,-1.091,-1.1212,-1.1514,-1.1872,-1.2354,-1.3011,-1.377,-1.488,-1.6404,-1.7277,-1.8429,-2.0115,-1.9929,-2.073,-2.2991,-2.4726,-2.6065,-2.704,-2.9183,-3.1445,-3.3753,-3.5494,-3.7747,-4.0294,-4.102,-4.2463,1.2387,1.2164,1.161,1.0453,0.9402,0.8517,0.8017,0.7741,0.7578,0.7523,0.7025,0.6427,0.5566,0.4964,0.4252,0.3059,0.2833,0.2788,0.2771,0.2776,0.2653,0.2406,0.2406,0.2098,0.1481,-0.0986,-0.2708,-0.3139,-0.554,-0.7143,-0.7508,-0.7508,-0.7627,-0.7872,-0.7872,-0.7872,-0.7872,-0.7872,-0.7872,-0.7872,-0.7872,-0.7872,-0.7872,-0.7872,-0.7933,-0.7994,-0.7933,-0.7994,-0.8116,-0.8055,-0.8055,-0.8116,-0.8116,-0.8116,-0.8116,-0.8055,-0.8055,-0.8116,-0.8055,-0.8055,-0.8116,-0.8116,-0.8116,-0.8116,-0.8116,-0.8305,-0.8491,-0.8491,-0.8305,-0.8116,-0.8116,-0.8363,-0.8671,-0.8915,-0.9217,-0.9457,-0.9761,-0.9883,-0.9943,-0.9943,-1.0001,-1.0126,-1.0365,-1.0547,-1.0789,-1.1091,-1.1696,-1.2238,-1.2595,-1.3181,-1.3815,-1.4525,-1.585,-1.7339,-1.8933,-2.0266,-2.1478,-2.258,-2.3051,-2.3981,-2.5435,-2.6715,-2.7975,-2.9342,-3.158,-3.3851,-3.6147,-3.7928,-3.9943,-4.2256,-4.2635,-4.4179,1.2387,1.1391,1.0343,1.0233,1.0351,1.0021,0.8076,0.6977,0.6538,0.703,0.5421,0.422,0.5311,0.4356,0.3309,0.2946,0.2651,0.2364,0.2095,0.2099,0.2038,0.2038,0.2038,0.1419,-0.0185,-0.1663,-0.3262,-0.5042,-0.6521,-0.7508,-0.7872,-0.7872,-0.7869,-0.7872,-0.7872,-0.7872,-0.7872,-0.7872,-0.7872,-0.7872,-0.7872,-0.7872,-0.7872,-0.7872,-0.8058,-0.8369,-0.8058,-0.8238,-0.8793,-0.8488,-0.8549,-0.8854,-0.8854,-0.8854,-0.8793,-0.8491,-0.8549,-0.8793,-0.8491,-0.8552,-0.8854,-0.8854,-0.8854,-0.8854,-0.8854,-0.8854,-0.8854,-0.8854,-0.8854,-0.8854,-0.8854,-0.9034,-0.9214,-0.9278,-0.9518,-0.9761,-0.9822,-1.0061,-1.0243,-1.0243,-1.0547,-1.0728,-1.0789,-1.1273,-1.1756,-1.2053,-1.2659,-1.332,-1.3973,-1.4333,-1.4831,-1.5798,-1.758,-2.0167,-2.3771,-2.545,-2.6637,-2.7266,-2.5558,-2.5433,-2.7503,-2.8727,-2.9721,-3.0394,-3.3142,-3.4929,-3.5653,-3.8492,-4.0736,-4.2423,-4.3831,-4.5544,1.2387,1.1337,0.9955,0.9068,0.852,0.7919,0.675,0.6091,0.5611,0.5102,0.4095,0.3443,0.3827,0.3271,0.2702,0.2684,0.2386,0.2146,0.2036,0.1977,0.1977,0.1977,0.1791,0.142,0.0802,-0.0862,-0.2522,-0.4057,-0.5598,-0.6888,-0.7872,-0.7872,-0.7872,-0.7872,-0.7872,-0.7872,-0.7872,-0.7872,-0.7994,-0.8183,-0.8183,-0.8183,-0.8244,-0.8424,-0.861,-0.8735,-0.8549,-0.8668,-0.8915,-0.8735,-0.8793,-0.8915,-0.8915,-0.8915,-0.8915,-0.8735,-0.8793,-0.8854,-0.8732,-0.8793,-0.8915,-0.8915,-0.8915,-0.8915,-0.8915,-0.9037,-0.9156,-0.9156,-0.946,-0.964,-0.9037,-0.9095,-0.9275,-0.9275,-0.9579,-0.9883,-1.0065,-1.0183,-1.0365,-1.0547,-1.0728,-1.097,-1.1571,-1.1872,-1.2298,-1.3024,-1.3797,-1.4484,-1.4957,-1.5584,-1.6647,-1.8452,-2.1153,-2.3716,-2.6163,-2.7285,-2.8025,-2.8438,-2.7301,-2.7482,-2.94,-3.0139,-3.154,-3.3614,-3.5759,-3.7912,-4.0027,-4.196,-4.3626,-4.5052,-4.6137,-4.7387,1.1723,1.0617,0.9233,0.8125,0.7354,0.6584,0.5697,0.5312,0.4837,0.3779,0.3418,0.3172,0.2942,0.2723,0.2559,0.2524,0.2222,0.1977,0.1977,0.1977,0.1977,0.1853,0.1667,0.142,0.1235,-0.0431,-0.2092,-0.3444,-0.4983,-0.6458,-0.7811,-0.7872,-0.7872,-0.7872,-0.7872,-0.7933,-0.8058,-0.8058,-0.8241,-0.8552,-0.8674,-0.8613,-0.8552,-0.8793,-0.8976,-0.9037,-0.8915,-0.9037,-0.9156,-0.9095,-0.9098,-0.9156,-0.9156,-0.9156,-0.9156,-0.9034,-0.9098,-0.9156,-0.9034,-0.9095,-0.9156,-0.9156,-0.9156,-0.9156,-0.9156,-0.9335,-0.9457,-0.9579,-0.994,-1.0186,-0.964,-0.964,-0.9761,-0.9761,-0.994,-1.0183,-1.0425,-1.0547,-1.0668,-1.091,-1.1212,-1.1571,-1.2234,-1.2768,-1.3356,-1.4144,-1.4998,-1.5753,-1.6287,-1.7005,-1.847,-2.1343,-2.4062,-2.6342,-2.791,-2.8563,-2.9186,-2.9882,-2.9537,-2.9865,-3.1136,-3.2184,-3.3923,-3.6514,-3.8099,-4.0171,-4.2697,-4.4036,-4.5326,-4.6535,-4.746,-4.862,1.0233,0.9123,0.7901,0.7674,0.7343,0.6682,0.5188,0.4697,0.4278,0.3379,0.3303,0.3317,0.2954,0.2931,0.29,0.2529,0.2222,0.1977,0.1977,0.1977,0.1853,0.1544,0.1482,0.1235,0.0556,-0.0678,-0.2153,-0.3752,-0.5105,-0.6458,-0.7808,-0.7869,-0.7869,-0.7872,-0.7933,-0.8058,-0.8369,-0.843,-0.8552,-0.8915,-0.9156,-0.9156,-0.8915,-0.8915,-0.9034,-0.9275,-0.9037,-0.9278,-0.9761,-0.9457,-0.9518,-0.9822,-0.9822,-0.9822,-0.9761,-0.9457,-0.9518,-0.9761,-0.9396,-0.9518,-0.9822,-0.9822,-0.9822,-0.9822,-0.9822,-0.9822,-0.9883,-1.0183,-1.0304,-1.0365,-1.0728,-1.0789,-1.0789,-1.0789,-1.0789,-1.0789,-1.0789,-1.1091,-1.1333,-1.1333,-1.2057,-1.2719,-1.2719,-1.398,-1.5161,-1.5455,-1.6268,-1.7168,-1.8208,-1.8579,-2.0257,-2.4117,-2.6053,-2.7718,-2.9381,-2.9745,-3.0606,-3.2119,-3.2509,-3.267,-3.267,-3.4958,-3.7002,-3.8567,-4.0084,-4.1452,-4.2745,-4.4083,-4.53,-4.6372,-4.764,-4.9135,1.1177,0.9343,0.7346,0.729,0.5633,0.3918,0.3473,0.4123,0.4478,0.325,0.29,0.2756,0.2634,0.246,0.2346,0.2467,0.2222,0.1977,0.1977,0.1791,0.1606,0.1482,0.1111,0.0741,0.0494,-0.0062,-0.1048,-0.2465,-0.2957,-0.4125,-0.6396,-0.6521,-0.695,-0.7869,-0.8119,-0.8308,-0.8369,-0.8613,-0.8915,-0.9156,-0.9278,-0.9278,-0.9217,-0.9396,-0.9579,-0.964,-0.9579,-0.964,-0.9822,-0.97,-0.97,-0.9822,-0.9822,-0.9822,-0.9761,-0.97,-0.97,-0.9761,-0.97,-0.97,-0.9822,-0.9822,-0.9822,-0.9822,-0.9822,-0.9943,-1.0183,-1.0243,-1.0668,-1.1031,-1.1152,-1.1341,-1.1405,-1.091,-1.0789,-1.0849,-1.1091,-1.1575,-1.1997,-1.2238,-1.3075,-1.3961,-1.4534,-1.5226,-1.5944,-1.6669,-1.7332,-1.8476,-2.0325,-2.2031,-2.3917,-2.6037,-2.7958,-2.9422,-3.0382,-3.1275,-3.2166,-3.3067,-3.4792,-3.5683,-3.5442,-3.721,-3.8879,-4.0426,-4.2428,-4.384,-4.4627,-4.6329,-4.743,-4.7981,-4.9512,-5.0499,0.9237,0.7296,0.5301,0.519,0.3804,0.2534,0.2567,0.3284,0.3679,0.2877,0.2624,0.2467,0.2345,0.2222,0.2222,0.2283,0.216,0.1977,0.1791,0.1606,0.142,0.1112,0.0741,0.0432,0.0309,0.0123,-0.0555,-0.1912,-0.1973,-0.3142,-0.5784,-0.5906,-0.6582,-0.8058,-0.8305,-0.8491,-0.8732,-0.8976,-0.9217,-0.9518,-0.9518,-0.9518,-0.9518,-0.97,-0.9822,-0.9822,-0.994,-0.9943,-0.9822,-0.994,-0.9943,-0.9822,-0.994,-0.9943,-0.9822,-0.994,-1.0001,-1.0001,-1.0001,-1.0061,-1.0183,-1.0183,-1.0183,-1.0183,-1.0183,-1.0365,-1.0547,-1.0668,-1.097,-1.1394,-1.1756,-1.2001,-1.201,-1.1341,-1.1398,-1.1635,-1.1816,-1.2359,-1.2926,-1.3365,-1.4159,-1.5013,-1.591,-1.6524,-1.7139,-1.7919,-1.9256,-2.0592,-2.1943,-2.4509,-2.6547,-2.746,-2.9611,-3.1159,-3.1737,-3.2954,-3.4013,-3.4902,-3.6871,-3.8158,-3.8432,-3.9368,-4.0776,-4.2662,-4.4041,-4.5345,-4.6535,-4.7658,-4.8677,-4.9599,-5.0631,-5.1268,0.5968,0.4308,0.2748,0.2467,0.2244,0.2208,0.234,0.2298,0.2309,0.2408,0.2443,0.2345,0.2038,0.2222,0.2345,0.2038,0.1977,0.1853,0.1544,0.1482,0.1235,0.0556,0.0494,0.0309,0.0,0.0,-0.0494,-0.1727,-0.1788,-0.2957,-0.56,-0.572,-0.6582,-0.8369,-0.843,-0.8732,-0.9275,-0.9335,-0.9518,-0.9822,-0.9822,-0.9822,-0.9822,-0.9822,-0.9822,-0.9883,-1.0183,-1.0183,-0.9943,-1.0243,-1.0183,-0.9943,-1.0243,-1.0183,-0.994,-1.0243,-1.0365,-1.0365,-1.0365,-1.0547,-1.0789,-1.0789,-1.0789,-1.0789,-1.0789,-1.0849,-1.091,-1.1273,-1.1394,-1.1635,-1.2539,-1.2779,-1.2664,-1.2074,-1.2367,-1.2779,-1.2779,-1.3338,-1.4014,-1.4572,-1.5232,-1.5982,-1.6898,-1.7752,-1.8611,-1.945,-2.1624,-2.3266,-2.3452,-2.6175,-2.8256,-2.8765,-3.1158,-3.284,-3.3293,-3.477,-3.6151,-3.7275,-3.8867,-4.0336,-4.1551,-4.1551,-4.2697,-4.5087,-4.5283,-4.6329,-4.8346,-4.8429,-4.9352,-5.1118,-5.1194,-5.1635,0.7913,0.5802,0.3689,0.3634,0.2743,0.1924,0.1989,0.2004,0.2078,0.238,0.2278,0.2099,0.2038,0.2038,0.2099,0.2038,0.1977,0.1853,0.1544,0.1297,0.0926,0.0556,0.0247,0.0062,0.0,0.0,-0.0123,-0.0432,-0.0432,-0.1541,-0.4183,-0.4611,-0.5839,-0.8308,-0.8854,-0.9156,-0.9275,-0.9579,-0.97,-0.9822,-0.9822,-0.994,-1.0183,-0.9943,-0.994,-1.0183,-1.0547,-1.0668,-1.0607,-1.0668,-1.0668,-1.0607,-1.0668,-1.0668,-1.0607,-1.0668,-1.0668,-1.0668,-1.0668,-1.0728,-1.0789,-1.0789,-1.0789,-1.0789,-1.0789,-1.097,-1.1333,-1.1877,-1.2178,-1.2599,-1.3324,-1.3504,-1.3444,-1.3329,-1.3389,-1.3504,-1.3504,-1.4354,-1.515,-1.5262,-1.6397,-1.7532,-1.8167,-1.87,-1.9725,-2.1846,-2.3778,-2.5542,-2.7065,-2.8101,-2.9583,-3.1849,-3.283,-3.3778,-3.5068,-3.7228,-3.8738,-3.9201,-4.1373,-4.3163,-4.4428,-4.4489,-4.5089,-4.6329,-4.733,-4.8388,-4.9447,-5.0135,-5.0707,-5.1118,-5.1782,-5.2214,0.6914,0.5301,0.3855,0.3132,0.2353,0.1811,0.1872,0.1886,0.1962,0.2208,0.2099,0.1977,0.1977,0.1853,0.1791,0.1791,0.1606,0.142,0.105,0.0864,0.0617,0.0309,0.0123,0.0,0.0,0.0,0.0,0.0,0.0,-0.0863,-0.2894,-0.3322,-0.4794,-0.7622,-0.8172,-0.8781,-0.9518,-0.97,-0.9879,-1.0061,-1.0061,-1.0183,-1.0547,-1.0365,-1.0365,-1.0547,-1.091,-1.097,-1.0789,-1.097,-1.097,-1.0849,-1.097,-1.097,-1.0849,-1.097,-1.1031,-1.1031,-1.1031,-1.1156,-1.1281,-1.1281,-1.1281,-1.1341,-1.1635,-1.1812,-1.2118,-1.2719,-1.3024,-1.3324,-1.3978,-1.4282,-1.4461,-1.4764,-1.4466,-1.4187,-1.4475,-1.5427,-1.6376,-1.6915,-1.781,-1.892,-2.0309,-2.1458,-2.2788,-2.4416,-2.6089,-2.7767,-2.9468,-3.0539,-3.1933,-3.4114,-3.5101,-3.5977,-3.6865,-3.9201,-4.0676,-4.0852,-4.3067,-4.4889,-4.599,-4.6608,-4.713,-4.7598,-4.8661,-4.9599,-5.0422,-5.0876,-5.1306,-5.1745,-5.2178,-5.257,0.5804,0.4636,0.3634,0.2185,0.1795,0.181,0.1865,0.1882,0.1902,0.1958,0.1973,0.1977,0.1977,0.1729,0.1482,0.1482,0.1235,0.0864,0.0556,0.0494,0.037,0.0062,0.0,0.0,0.0,0.0,0.0,0.0,0.0,-0.0617,-0.2034,-0.2402,-0.3936,-0.6877,-0.7309,-0.8227,-0.9761,-0.9883,-1.0001,-1.0304,-1.0425,-1.0607,-1.091,-1.097,-1.091,-1.091,-1.1212,-1.1216,-1.0974,-1.1277,-1.1216,-1.0974,-1.1277,-1.1216,-1.1035,-1.1277,-1.1398,-1.1398,-1.1398,-1.1587,-1.1837,-1.1893,-1.1953,-1.2074,-1.2664,-1.2844,-1.3024,-1.3684,-1.3868,-1.3983,-1.4694,-1.5051,-1.5429,-1.6072,-1.5655,-1.5215,-1.5711,-1.6613,-1.7655,-1.8895,-1.9699,-2.0788,-2.2707,-2.4717,-2.6357,-2.7116,-2.861,-3.0247,-3.1681,-3.305,-3.4448,-3.5988,-3.724,-3.8206,-3.8874,-4.1004,-4.2412,-4.2593,-4.4706,-4.6285,-4.6997,-4.8315,-4.905,-4.905,-4.9702,-5.0461,-5.1343,-5.1359,-5.1709,-5.2445,-5.2535,-5.2852,0.8079,0.6021,0.3634,0.2185,0.1795,0.1804,0.1838,0.1867,0.1896,0.193,0.1958,0.1977,0.1977,0.1729,0.1482,0.1482,0.1235,0.0864,0.0556,0.0494,0.037,0.0062,0.0,0.0,0.0,0.0,0.0,0.0,0.0,-0.074,-0.234,-0.2709,-0.4244,-0.725,-0.7675,-0.8471,-0.9761,-1.0061,-1.0243,-1.0304,-1.091,-1.1212,-1.1212,-1.1526,-1.1526,-1.1273,-1.1587,-1.1716,-1.1651,-1.1712,-1.1716,-1.1651,-1.1712,-1.1716,-1.1651,-1.1712,-1.1712,-1.1712,-1.1712,-1.1776,-1.1897,-1.2427,-1.2603,-1.2724,-1.3389,-1.3569,-1.3684,-1.4331,-1.4451,-1.4694,-1.5661,-1.5903,-1.6131,-1.6631,-1.6923,-1.706,-1.7155,-1.7877,-1.8957,-2.054,-2.2661,-2.4347,-2.4648,-2.6772,-2.8788,-2.9898,-3.1674,-3.343,-3.4924,-3.5266,-3.6042,-3.7784,-3.8113,-3.9134,-4.1317,-4.2821,-4.4022,-4.4872,-4.6971,-4.821,-4.832,-4.99,-5.0761,-5.0761,-5.0876,-5.1401,-5.2395,-5.2285,-5.2357,-5.2589,-5.3042,-5.3315,0.7692,0.5635,0.3634,0.2185,0.1795,0.1803,0.1776,0.1851,0.1874,0.1922,0.1759,0.1651,0.1727,0.142,0.1173,0.0988,0.0679,0.037,0.0247,0.0247,0.0185,0.0,0.0,0.0,0.0,0.0,0.0,0.0,-0.0185,-0.0617,-0.1357,-0.185,-0.3387,-0.6208,-0.6634,-0.7734,-0.9758,-1.0122,-1.0486,-1.0849,-1.1341,-1.1587,-1.1587,-1.1712,-1.1712,-1.1587,-1.1712,-1.2014,-1.2307,-1.1953,-1.2195,-1.2853,-1.2427,-1.2552,-1.2853,-1.2853,-1.2853,-1.2853,-1.2853,-1.2853,-1.2913,-1.3149,-1.3264,-1.3384,-1.4038,-1.4217,-1.4336,-1.4992,-1.5294,-1.5537,-1.5963,-1.6479,-1.6968,-1.7367,-1.8507,-1.9694,-2.0227,-2.038,-2.1039,-2.316,-2.5278,-2.6797,-2.7134,-2.926,-3.1321,-3.2333,-3.3757,-3.5332,-3.6972,-3.7133,-3.7959,-4.0147,-4.0515,-4.1254,-4.293,-4.421,-4.536,-4.6285,-4.7758,-4.901,-4.9955,-5.0723,-5.1306,-5.1818,-5.1911,-5.2181,-5.2589,-5.2535,-5.2729,-5.3162,-5.3332,-5.3797,0.7526,0.5968,0.4689,0.2799,0.2353,0.2249,0.188,0.1778,0.1795,0.178,0.156,0.1392,0.1287,0.1047,0.0803,0.0556,0.0247,0.0,0.0,0.0,0.0,0.0,0.0,0.0,0.0,0.0,-0.0062,-0.0123,-0.037,-0.0556,-0.0741,-0.1543,-0.308,-0.5471,-0.6082,-0.7551,-0.9883,-1.0365,-1.0849,-1.1458,-1.1651,-1.1893,-1.2014,-1.2014,-1.2134,-1.2255,-1.2074,-1.2367,-1.2904,-1.2492,-1.2853,-1.3629,-1.3144,-1.3264,-1.3688,-1.3688,-1.3688,-1.3688,-1.3688,-1.3688,-1.3748,-1.3863,-1.3923,-1.4043,-1.4694,-1.4932,-1.511,-1.5596,-1.6001,-1.6349,-1.6527,-1.7362,-1.8287,-1.8778,-2.0476,-2.2274,-2.3026,-2.3285,-2.3909,-2.5882,-2.7811,-2.9366,-2.9876,-3.1886,-3.3733,-3.4759,-3.5738,-3.6918,-3.8546,-3.9055,-4.0007,-4.1887,-4.2536,-4.3327,-4.4599,-4.5586,-4.6608,-4.7725,-4.8702,-4.9797,-5.1043,-5.1306,-5.1802,-5.2624,-5.2782,-5.2852,-5.2852,-5.2852,-5.3196,-5.3895,-5.3895,-5.4454,0.8803,0.8303,0.7578,0.4632,0.3911,0.3523,0.2132,0.182,0.1726,0.1498,0.1418,0.1207,0.0664,0.055,0.0494,0.0494,0.0247,0.0,0.0,0.0,0.0,0.0,0.0,0.0,0.0,0.0,-0.0123,-0.0432,-0.0494,-0.0803,-0.142,-0.2651,-0.4062,-0.5835,-0.7121,-0.859,-1.0243,-1.091,-1.1402,-1.1776,-1.1776,-1.207,-1.2664,-1.2664,-1.3024,-1.3569,-1.2904,-1.3024,-1.3629,-1.3629,-1.3629,-1.3688,-1.3688,-1.3688,-1.3688,-1.3688,-1.3688,-1.3688,-1.3688,-1.3688,-1.3808,-1.4396,-1.457,-1.4689,-1.5359,-1.5779,-1.6022,-1.6087,-1.6476,-1.7006,-1.7613,-1.9,-2.0355,-2.1319,-2.3021,-2.4503,-2.479,-2.634,-2.782,-2.8179,-3.0461,-3.2499,-3.284,-3.4337,-3.5934,-3.7133,-3.7784,-3.8598,-3.9853,-4.1069,-4.1936,-4.2355,-4.3232,-4.4677,-4.6782,-4.6998,-4.7767,-4.9551,-5.0461,-5.0989,-5.1118,-5.1908,-5.2659,-5.3315,-5.3483,-5.3533,-5.3533,-5.3533,-5.3927,-5.4658,-5.5087,-5.5325,0.8913,0.8524,0.7968,0.5695,0.5027,0.4693,0.3971,0.3656,0.3288,0.2407,0.2667,0.2521,0.083,0.0486,0.0432,0.0185,0.0062,0.0,0.0,0.0,0.0,0.0,0.0,0.0,0.0,-0.0185,-0.037,-0.0494,-0.0926,-0.1605,-0.2651,-0.3325,-0.4855,-0.7362,-0.7914,-0.9073,-1.091,-1.1152,-1.1462,-1.1776,-1.2191,-1.2483,-1.2719,-1.3144,-1.3679,-1.4277,-1.4033,-1.4033,-1.4277,-1.3868,-1.4167,-1.4883,-1.4456,-1.4515,-1.4942,-1.4942,-1.4942,-1.4942,-1.4942,-1.4942,-1.5002,-1.5418,-1.5537,-1.5655,-1.607,-1.6926,-1.7883,-1.8121,-1.9233,-2.041,-2.0907,-2.1721,-2.2893,-2.4685,-2.6096,-2.7549,-2.9439,-2.9043,-2.8833,-3.0752,-3.2089,-3.3293,-3.457,-3.6042,-3.7293,-3.7942,-3.9534,-4.088,-4.1482,-4.2523,-4.3807,-4.5242,-4.5752,-4.6752,-4.8656,-4.8835,-4.9336,-5.0554,-5.0914,-5.1533,-5.254,-5.2888,-5.3365,-5.4025,-5.4235,-5.4299,-5.4313,-5.4313,-5.4658,-5.5331,-5.5373,-5.5636,0.9196,0.8916,0.853,0.6811,0.6253,0.5919,0.5087,0.4754,0.4324,0.3351,0.326,0.2879,0.1224,0.0597,0.0243,0.0061,0.0,0.0,0.0,0.0,0.0,0.0,0.0,-0.0062,-0.0185,-0.037,-0.0617,-0.0803,-0.1235,-0.2097,-0.351,-0.4183,-0.5894,-0.8891,-0.9195,-0.9926,-1.1273,-1.1635,-1.1881,-1.213,-1.2728,-1.314,-1.3375,-1.3799,-1.4336,-1.4932,-1.4932,-1.4932,-1.4873,-1.452,-1.4823,-1.5537,-1.5116,-1.5235,-1.5601,-1.572,-1.5779,-1.5779,-1.5893,-1.5893,-1.5952,-1.6135,-1.6253,-1.6366,-1.705,-1.8135,-1.9342,-2.013,-2.1451,-2.2733,-2.3131,-2.4045,-2.5507,-2.7758,-2.9061,-3.0393,-3.2431,-3.1379,-3.0674,-3.3149,-3.4225,-3.5101,-3.6368,-3.8065,-3.9328,-3.9546,-4.129,-4.2834,-4.3286,-4.4307,-4.5648,-4.7325,-4.7863,-4.8681,-5.0135,-5.029,-5.0691,-5.1471,-5.1733,-5.2329,-5.3349,-5.3616,-5.404,-5.4734,-5.4861,-5.5074,-5.5343,-5.5117,-5.5361,-5.5947,-5.5815,-5.6014,0.0,0.0,0.0,0.8036,0.7648,0.7202,0.5421,0.4975,0.4808,0.4196,0.3119,0.2237,0.1893,0.0872,0.0118,0.0059,0.0,0.0,0.0,0.0,0.0,0.0,0.0,-0.0123,-0.0494,-0.0494,-0.0803,-0.142,-0.1482,-0.2221,-0.3876,-0.5284,-0.7362,-1.0243,-1.097,-1.1333,-1.1333,-1.2238,-1.2719,-1.2719,-1.3389,-1.4043,-1.4629,-1.4629,-1.4992,-1.5601,-1.5601,-1.5601,-1.5601,-1.5601,-1.5601,-1.5601,-1.5596,-1.5655,-1.5661,-1.5963,-1.6081,-1.6146,-1.6425,-1.6478,-1.6537,-1.6532,-1.6596,-1.6885,-1.8422,-1.9427,-2.0375,-2.1904,-2.3024,-2.383,-2.4147,-2.5917,-2.8197,-3.0421,-3.1842,-3.283,-3.3508,-3.3452,-3.3789,-3.5497,-3.696,-3.8048,-3.8364,-4.0451,-4.207,-4.207,-4.3156,-4.4293,-4.5171,-4.6373,-4.7468,-4.8296,-4.9441,-5.0413,-5.1081,-5.1327,-5.1712,-5.2373,-5.3042,-5.3416,-5.3449,-5.4072,-5.4765,-5.5414,-5.5443,-5.5826,-5.66,-5.6014,-5.5975,-5.6428,-5.6428,-5.6465,0.9816,0.0,0.0,0.0,0.0,0.0,0.7648,0.7152,0.6541,0.5532,0.5553,0.5234,0.3436,0.2828,0.2327,0.1419,0.0582,0.0,0.0,0.0,0.0,0.0,-0.0241,-0.0425,-0.0486,-0.092,-0.1297,-0.1482,-0.1729,-0.2898,-0.5223,-0.7972,-0.993,-1.097,-1.1462,-1.1885,-1.2298,-1.2599,-1.296,-1.3444,-1.4038,-1.4451,-1.4629,-1.5116,-1.5418,-1.5601,-1.5844,-1.5963,-1.5963,-1.5963,-1.5963,-1.5963,-1.6188,-1.6242,-1.6242,-1.6366,-1.6366,-1.6425,-1.6478,-1.6478,-1.6708,-1.8085,-1.8738,-1.9305,-2.1039,-2.2662,-2.4114,-2.4842,-2.6033,-2.7234,-2.7855,-2.9381,-3.108,-3.1937,-3.335,-3.4891,-3.6151,-3.708,-3.7802,-3.8298,-3.8687,-3.9625,-4.1696,-4.2807,-4.3361,-4.3361,-4.4984,-4.6315,-4.6519,-4.8046,-4.936,-5.0242,-5.0735,-5.1311,-5.198,-5.2181,-5.252,-5.3076,-5.3298,-5.3878,-5.4961,-5.5172,-5.5629,-5.6384,-5.6411,-5.6537,-5.6742,-5.6474,-5.6474,-5.6707,-5.6707,-5.6653,0.943,0.943,0.9375,0.9213,0.0,0.0,0.8377,0.8045,0.749,0.6594,0.6427,0.6038,0.4587,0.3525,0.2629,0.1903,0.0797,0.0,0.0,0.0,-0.0059,-0.0177,-0.0356,-0.0597,-0.0836,-0.1212,-0.1529,-0.1652,-0.1846,-0.3204,-0.5955,-0.883,-1.0668,-1.1273,-1.1647,-1.207,-1.2719,-1.296,-1.3444,-1.4097,-1.4694,-1.4992,-1.5051,-1.5601,-1.5785,-1.5839,-1.6135,-1.6253,-1.6253,-1.6436,-1.6377,-1.6253,-1.6419,-1.6478,-1.6537,-1.6661,-1.672,-1.672,-1.6891,-1.7421,-1.8326,-1.9427,-2.043,-2.1612,-2.3309,-2.4729,-2.5905,-2.6791,-2.7944,-2.9151,-3.0296,-3.1476,-3.2525,-3.3497,-3.5342,-3.7169,-3.8251,-3.9753,-4.0837,-4.0412,-4.0837,-4.1777,-4.3381,-4.4256,-4.4812,-4.518,-4.6651,-4.7966,-4.8681,-4.9694,-5.0669,-5.1545,-5.2043,-5.2435,-5.2782,-5.3264,-5.3665,-5.391,-5.423,-5.4774,-5.5641,-5.5943,-5.6311,-5.6794,-5.6794,-5.6907,-5.7177,-5.6829,-5.6715,-5.6794,-5.7069,-5.7127,0.8771,0.8826,0.8826,0.8826,0.8826,0.0,0.81,0.7989,0.7823,0.7324,0.6374,0.5594,0.5594,0.3748,0.2183,0.2183,0.1064,0.0113,0.0,-0.0058,-0.0176,-0.041,-0.047,-0.0764,-0.1355,-0.1435,-0.157,-0.1875,-0.2267,-0.3634,-0.632,-0.8711,-1.0425,-1.1394,-1.1768,-1.2251,-1.29,-1.3504,-1.4102,-1.4689,-1.5359,-1.5661,-1.5661,-1.5963,-1.614,-1.614,-1.6425,-1.6537,-1.6596,-1.6903,-1.6838,-1.6537,-1.6596,-1.6708,-1.6826,-1.7132,-1.7385,-1.7645,-1.7932,-1.9207,-2.0732,-2.0909,-2.2112,-2.3803,-2.5394,-2.6124,-2.6786,-2.8308,-2.9229,-3.0187,-3.1947,-3.2727,-3.3497,-3.5266,-3.7517,-3.9472,-4.0045,-4.1914,-4.3238,-4.2336,-4.3286,-4.4275,-4.4428,-4.545,-4.6491,-4.7257,-4.8247,-4.9399,-5.0914,-5.1252,-5.1676,-5.2464,-5.3247,-5.3698,-5.3566,-5.4391,-5.4857,-5.4743,-5.5402,-5.5851,-5.5936,-5.6519,-5.6821,-5.6847,-5.6899,-5.7202,-5.7794,-5.7195,-5.6925,-5.6984,-5.748,-5.7719,0.7989,0.8377,0.8488,0.8266,0.8156,0.0,0.8045,0.7826,0.766,0.7551,0.7157,0.6877,0.6877,0.5648,0.4698,0.4698,0.2629,0.0729,-0.0169,-0.0339,-0.0453,-0.0736,-0.1032,-0.1278,-0.1412,-0.1614,-0.1881,-0.1966,-0.4176,-0.5894,-0.6752,-0.9502,-1.1454,-1.2419,-1.2483,-1.308,-1.4212,-1.4331,-1.4753,-1.5418,-1.5785,-1.6022,-1.6022,-1.6307,-1.6425,-1.6419,-1.6779,-1.6903,-1.6903,-1.725,-1.7191,-1.6903,-1.7191,-1.7883,-1.8745,-1.8803,-1.9815,-2.1183,-2.1242,-2.1906,-2.2881,-2.4114,-2.4943,-2.589,-2.7625,-2.8449,-2.9124,-3.0626,-3.1138,-3.1717,-3.3508,-3.488,-3.6213,-3.7863,-3.9714,-4.1353,-4.2261,-4.4315,-4.5947,-4.5754,-4.5947,-4.6475,-4.7516,-4.844,-4.9094,-4.9256,-5.0057,-5.0723,-5.1081,-5.2186,-5.306,-5.3348,-5.4136,-5.4593,-5.4541,-5.4852,-5.5201,-5.5548,-5.5691,-5.6093,-5.6758,-5.6881,-5.7028,-5.7112,-5.7498,-5.7932,-5.8421,-5.776,-5.7655,-5.801,-5.796,-5.7867,0.7897,0.8303,0.8401,0.8164,0.8093,0.0,0.0,0.7718,0.7551,0.7438,0.7268,0.721,0.721,0.6207,0.5427,0.5427,0.3099,0.1074,0.0336,-0.028,-0.0787,-0.1135,-0.1316,-0.1447,-0.1647,-0.1794,-0.2065,-0.2466,-0.4614,-0.6326,-0.7368,-0.9566,-1.1394,-1.2659,-1.2719,-1.3315,-1.457,-1.4629,-1.4992,-1.5844,-1.6028,-1.62,-1.6312,-1.6608,-1.672,-1.6779,-1.7073,-1.7713,-1.8402,-1.8577,-1.8971,-1.9421,-1.8687,-1.9261,-2.0472,-2.0693,-2.1423,-2.245,-2.2617,-2.354,-2.483,-2.573,-2.6818,-2.797,-2.9006,-2.9908,-3.0927,-3.2395,-3.284,-3.3293,-3.5013,-3.6549,-3.8016,-3.9522,-4.1888,-4.3911,-4.456,-4.6475,-4.8114,-4.8239,-4.861,-4.8951,-4.9166,-4.9543,-4.9939,-5.0384,-5.0838,-5.1385,-5.2243,-5.3027,-5.3664,-5.4164,-5.4896,-5.5332,-5.5297,-5.5766,-5.6138,-5.6384,-5.6465,-5.667,-5.7087,-5.7105,-5.7239,-5.7546,-5.8,-5.8463,-5.891,-5.8354,-5.8216,-5.8455,-5.8455,-5.8415,0.7799,0.8273,0.8253,0.8087,0.8061,0.7977,0.0,0.0,0.0,0.7251,0.7245,0.7245,0.7245,0.6405,0.5727,0.5599,0.3526,0.1774,0.1403,0.0113,-0.0965,-0.1429,-0.1497,-0.1627,-0.1883,-0.1919,-0.2314,-0.3203,-0.48,-0.639,-0.8099,-0.9808,-1.1394,-1.284,-1.302,-1.3614,-1.4808,-1.4873,-1.5294,-1.6087,-1.6205,-1.6377,-1.6602,-1.6961,-1.7197,-1.7485,-1.783,-1.8803,-2.0178,-2.0178,-2.1117,-2.2294,-2.0593,-2.0823,-2.2234,-2.2586,-2.3138,-2.3689,-2.3983,-2.5258,-2.683,-2.7075,-2.8487,-3.0079,-3.0255,-3.1217,-3.2509,-3.4024,-3.447,-3.4958,-3.6811,-3.8146,-3.951,-4.135,-4.3929,-4.6153,-4.6764,-4.8445,-4.986,-5.0017,-5.0881,-5.1236,-5.0213,-5.0174,-5.0538,-5.129,-5.1475,-5.2062,-5.3465,-5.3844,-5.4259,-5.4952,-5.5634,-5.6037,-5.6065,-5.6661,-5.7054,-5.7054,-5.7138,-5.7188,-5.7188,-5.7188,-5.7443,-5.7969,-5.8351,-5.877,-5.9234,-5.8889,-5.8728,-5.8749,-5.8829,-5.8869,0.6927,0.7807,0.7979,0.7677,0.7555,0.7552,0.7539,0.0,0.7448,0.7336,0.0,0.7315,0.7315,0.0,0.0,0.6391,0.4993,0.3707,0.2977,0.0919,-0.0754,-0.1636,-0.179,-0.1882,-0.1885,-0.1938,-0.2587,-0.4125,-0.5778,-0.7426,-0.9076,-1.1201,-1.2779,-1.3569,-1.4097,-1.4753,-1.5477,-1.5779,-1.5963,-1.6087,-1.6613,-1.6908,-1.6961,-1.7309,-1.8,-1.9036,-1.9377,-2.0228,-2.1415,-2.1635,-2.2728,-2.4106,-2.2755,-2.2993,-2.4212,-2.4622,-2.5853,-2.7284,-2.7337,-2.8133,-2.9129,-2.9189,-3.0422,-3.19,-3.1957,-3.2975,-3.4325,-3.5585,-3.612,-3.6865,-3.9353,-4.0274,-4.1363,-4.4564,-4.5784,-4.6764,-4.8722,-5.008,-5.0914,-5.0951,-5.2134,-5.2664,-5.1199,-5.1582,-5.2161,-5.2412,-5.2818,-5.3298,-5.3797,-5.4747,-5.5507,-5.5816,-5.6465,-5.6915,-5.7018,-5.7112,-5.7181,-5.7181,-5.7188,-5.7188,-5.7188,-5.7188,-5.754,-5.8235,-5.8301,-5.8644,-5.929,-5.9253,-5.9215,-5.9215,-5.8884,-5.8719,0.6032,0.6515,0.6681,0.7401,0.6904,0.6412,0.7298,0.7519,0.7505,0.7453,0.0,0.0,0.0,0.0,0.0,0.0,0.4695,0.3605,0.3293,0.1066,-0.06,-0.0938,-0.154,-0.2039,-0.248,-0.2878,-0.3758,-0.5412,-0.6754,-0.834,-1.0347,-1.1864,-1.314,-1.4217,-1.4451,-1.4932,-1.5596,-1.5903,-1.62,-1.6371,-1.7525,-1.8169,-1.835,-1.9196,-1.9991,-2.0623,-2.0795,-2.1749,-2.3175,-2.3561,-2.4599,-2.6065,-2.5979,-2.6022,-2.6179,-2.6554,-2.7333,-2.8241,-2.8469,-2.8956,-2.9677,-3.0704,-3.168,-3.2711,-3.4101,-3.4947,-3.5881,-3.7878,-3.8509,-3.9018,-4.1017,-4.2546,-4.3948,-4.5531,-4.7392,-4.9106,-4.9993,-5.1086,-5.1964,-5.2364,-5.2957,-5.3332,-5.3078,-5.3298,-5.3599,-5.373,-5.3958,-5.4339,-5.5029,-5.5548,-5.6047,-5.6625,-5.6941,-5.7138,-5.7206,-5.713,-5.7061,-5.7061,-5.7028,-5.6984,-5.7079,-5.727,-5.7642,-5.8172,-5.8397,-5.8789,-5.929,-5.9178,-5.912,-5.912,-5.8964,-5.8864,0.4052,0.4484,0.4902,0.6612,0.617,0.5606,0.7037,0.7318,0.7251,0.7044,0.6624,0.0,0.0,0.0,0.5554,0.5412,0.0,0.3609,0.3361,0.1208,-0.0367,-0.042,-0.1443,-0.2367,-0.2957,-0.3575,-0.48,-0.6874,-0.7728,-0.9246,-1.18,-1.2771,-1.3614,-1.457,-1.4873,-1.5235,-1.572,-1.614,-1.6608,-1.7173,-1.8383,-1.9248,-1.9832,-2.0787,-2.1529,-2.2104,-2.2358,-2.3424,-2.4979,-2.5487,-2.6411,-2.7572,-2.8159,-2.8162,-2.7794,-2.8084,-2.8368,-2.8599,-2.9002,-2.9618,-3.0529,-3.2234,-3.3212,-3.3966,-3.5674,-3.6708,-3.7648,-3.9456,-4.0338,-4.1054,-4.2732,-4.4394,-4.5844,-4.6879,-4.897,-5.0773,-5.1091,-5.1951,-5.2834,-5.3298,-5.3698,-5.4104,-5.4579,-5.4516,-5.4468,-5.4637,-5.4791,-5.5166,-5.5991,-5.6185,-5.6519,-5.7087,-5.7156,-5.7112,-5.7087,-5.7003,-5.6951,-5.6951,-5.6951,-5.7003,-5.7105,-5.7449,-5.7807,-5.8168,-5.8439,-5.877,-5.9139,-5.9003,-5.8924,-5.8924,-5.8924,-5.8924,0.0428,0.1593,0.2637,0.4913,0.5408,0.5651,0.6696,0.694,0.6668,0.5912,0.5716,0.5716,0.5716,0.5716,0.5508,0.0,0.4828,0.0,0.0,0.1389,-0.0122,-0.0355,-0.1852,-0.2911,-0.3019,-0.3575,-0.5224,-0.8505,-0.8745,-1.0208,-1.3444,-1.4217,-1.457,-1.4629,-1.5537,-1.6087,-1.6087,-1.6672,-1.7531,-1.8719,-1.908,-1.9883,-2.1066,-2.1408,-2.2217,-2.3384,-2.4348,-2.547,-2.6657,-2.7402,-2.7985,-2.8361,-2.8388,-2.8618,-2.8948,-2.8957,-2.8966,-2.9025,-2.9381,-3.0645,-3.2348,-3.3821,-3.5124,-3.6122,-3.6188,-3.7902,-3.9879,-3.9982,-4.1117,-4.2759,-4.4624,-4.5486,-4.6634,-4.9552,-5.0474,-5.1016,-5.2089,-5.287,-5.3382,-5.3399,-5.4454,-5.5325,-5.5355,-5.4826,-5.4516,-5.4844,-5.5278,-5.5744,-5.6229,-5.6679,-5.6959,-5.6984,-5.7003,-5.6951,-5.6821,-5.6794,-5.6794,-5.6794,-5.7181,-5.7363,-5.7406,-5.7768,-5.8092,-5.8279,-5.8301,-5.8449,-5.8719,-5.8698,-5.8698,-5.8698,-5.8698,-5.8698,-0.2563,-0.2258,-0.1526,0.1407,0.1346,0.1348,0.4548,0.4734,0.4358,0.4769,0.446,0.3848,0.2806,0.2747,0.2499,0.0,0.0,0.0858,0.0,-0.0734,-0.1901,-0.2612,-0.3595,-0.4225,-0.4249,-0.5051,-0.6637,-0.9246,-0.967,-1.1121,-1.4152,-1.451,-1.4932,-1.5601,-1.5903,-1.6608,-1.7584,-1.7987,-1.8842,-2.0049,-2.1365,-2.2225,-2.2677,-2.3807,-2.4787,-2.5595,-2.5951,-2.6614,-2.7477,-2.8012,-2.8269,-2.8425,-2.8908,-2.9653,-3.0383,-2.9608,-2.9331,-2.9499,-3.081,-3.2223,-3.3631,-3.5113,-3.6487,-3.7671,-3.8457,-3.9892,-4.1439,-4.2323,-4.3501,-4.4807,-4.6315,-4.7874,-4.9306,-5.0358,-5.122,-5.2056,-5.2888,-5.323,-5.3665,-5.4548,-5.5087,-5.5549,-5.5986,-5.5854,-5.5808,-5.6118,-5.6219,-5.6411,-5.6837,-5.6959,-5.7003,-5.7003,-5.7003,-5.6951,-5.6821,-5.6977,-5.7061,-5.7061,-5.7363,-5.7577,-5.7673,-5.7721,-5.7867,-5.8168,-5.8168,-5.8323,-5.8716,-5.8716,-5.8716,-5.8716,-5.8716,-5.8716,-0.5798,-0.562,-0.4948,-0.1952,-0.2076,-0.1956,0.1532,0.1778,0.1471,0.1902,0.1905,0.1291,-0.0429,0.0,0.0123,0.0,0.0,-0.123,0.0,-0.2523,-0.3386,-0.4498,-0.4803,-0.4926,-0.5049,-0.5849,-0.7497,-1.0105,-1.0525,-1.1916,-1.4808,-1.5056,-1.5418,-1.6087,-1.6318,-1.7126,-1.8558,-1.8842,-1.9876,-2.165,-2.2854,-2.3704,-2.427,-2.548,-2.6303,-2.6722,-2.7124,-2.7576,-2.8079,-2.8609,-2.9049,-2.9457,-3.0023,-3.0965,-3.1907,-3.0684,-3.0636,-3.1313,-3.2954,-3.4035,-3.509,-3.6942,-3.8129,-3.9072,-4.0299,-4.1794,-4.3265,-4.4139,-4.55,-4.6937,-4.8133,-4.9575,-5.0833,-5.1431,-5.215,-5.2956,-5.3599,-5.3943,-5.4359,-5.5236,-5.5578,-5.5883,-5.6328,-5.6401,-5.6465,-5.6707,-5.6653,-5.6715,-5.7028,-5.6959,-5.6925,-5.6873,-5.7003,-5.7061,-5.7061,-5.7239,-5.7338,-5.7338,-5.7631,-5.7821,-5.7914,-5.796,-5.8097,-5.8319,-5.8301,-5.8428,-5.8716,-5.8716,-5.8716,-5.8716,-5.8716,-5.8716]},{"header":{"parameterUnit":"m.s-1","parameterCategory":1,"la1":30.6,"la2":29.2853,"lo1":-89.7004,"lo2":-87.6739,"dx":0.0162,"dy":0.0183,"nx":112,"ny":82,"refTime":"2023-01-27T06:00:00:Z","depth":0,"parameterNumber":3,"parameterNumberName":"V-component_of_WINDS"},"data":[0.0,0.0,0.0,0.0,0.0,0.0,0.0,0.0,0.0,0.0,0.0,0.0,0.0,0.0,0.0,0.0,0.0,0.0,0.0,0.0,0.0,0.0,0.0,0.0,0.0,0.0,0.0,0.0,0.0,0.0,0.0,0.0,0.0,0.0,0.0,0.0,0.0,0.0,0.0,0.0,0.0,0.0,0.0,0.0,0.0,0.0,0.0,0.0,0.0,0.0,0.0,0.0,0.0,0.0,0.0,0.0,0.0,0.0,0.0,0.0,0.0,0.0,0.0,0.0,0.0,0.0,0.0,0.0,0.0,0.0,0.0,0.0,0.0,0.0,0.0,0.0,0.0,0.0,0.0,0.0,0.0,0.0,0.0,0.0,0.0,0.0,0.0,0.0,0.0,0.0,3.7866,3.819,3.9023,3.961,3.9717,4.1062,4.128,3.9809,0.0,0.0,0.0,0.0,0.0,0.0,0.0,0.0,0.0,0.0,0.0,0.0,0.0,0.0,0.0,0.0,0.0,0.0,0.0,0.0,0.0,0.0,0.0,0.0,0.0,0.0,0.0,0.0,0.0,0.0,0.0,0.0,0.0,0.0,0.0,0.0,0.0,0.0,0.0,0.0,0.0,0.0,0.0,0.0,0.0,0.0,0.0,0.0,0.0,0.0,0.0,0.0,0.0,0.0,0.0,0.0,0.0,0.0,0.0,0.0,0.0,0.0,0.0,0.0,0.0,0.0,0.0,0.0,0.0,0.0,0.0,0.0,0.0,0.0,0.0,0.0,0.0,0.0,0.0,0.0,0.0,0.0,0.0,0.0,0.0,0.0,0.0,0.0,0.0,0.0,0.0,0.0,0.0,0.0,0.0,0.0,0.0,0.0,0.0,0.0,0.0,0.0,0.0,0.0,3.8175,3.9925,4.0235,4.0581,4.1127,4.2189,4.2331,4.126,0.0,0.0,0.0,0.0,0.0,0.0,0.0,0.0,0.0,0.0,0.0,0.0,0.0,0.0,0.0,0.0,0.0,0.0,0.0,0.0,0.0,0.0,0.0,0.0,0.0,0.0,0.0,0.0,0.0,0.0,0.0,0.0,0.0,0.0,0.0,0.0,0.0,0.0,0.0,0.0,0.0,0.0,0.0,0.0,0.0,0.0,0.0,0.0,0.0,0.0,0.0,0.0,0.0,0.0,0.0,0.0,0.0,0.0,0.0,0.0,0.0,0.0,0.0,0.0,0.0,0.0,0.0,0.0,0.0,0.0,0.0,0.0,0.0,0.0,0.0,0.0,0.0,0.0,0.0,0.0,0.0,0.0,0.0,0.0,0.0,0.0,0.0,0.0,0.0,0.0,0.0,0.0,0.0,0.0,0.0,0.0,0.0,0.0,0.0,0.0,0.0,0.0,0.0,3.8657,3.9505,4.0891,4.1026,4.1176,4.1459,4.241,4.2442,4.1026,4.1869,0.0,0.0,0.0,0.0,0.0,0.0,0.0,0.0,0.0,0.0,0.0,0.0,0.0,0.0,0.0,0.0,0.0,0.0,0.0,0.0,0.0,0.0,0.0,0.0,0.0,0.0,0.0,0.0,0.0,0.0,0.0,0.0,0.0,0.0,0.0,0.0,0.0,0.0,0.0,0.0,0.0,0.0,0.0,0.0,0.0,0.0,0.0,0.0,0.0,0.0,0.0,0.0,0.0,0.0,0.0,0.0,0.0,0.0,0.0,0.0,0.0,0.0,0.0,0.0,0.0,0.0,0.0,0.0,0.0,0.0,0.0,0.0,0.0,0.0,0.0,0.0,0.0,0.0,0.0,0.0,0.0,0.0,0.0,0.0,0.0,0.0,0.0,0.0,0.0,0.0,0.0,0.0,0.0,0.0,0.0,0.0,0.0,0.0,0.0,0.0,0.0,0.0,4.0339,4.0839,4.1656,4.1754,4.1819,4.1981,4.2769,4.2676,4.1327,4.252,0.0,0.0,0.0,0.0,0.0,0.0,0.0,0.0,0.0,0.0,0.0,0.0,0.0,0.0,0.0,0.0,0.0,0.0,0.0,0.0,0.0,0.0,0.0,0.0,0.0,0.0,0.0,0.0,0.0,0.0,0.0,0.0,0.0,0.0,0.0,0.0,0.0,0.0,0.0,0.0,0.0,0.0,0.0,0.0,0.0,0.0,0.0,0.0,0.0,0.0,0.0,0.0,0.0,0.0,0.0,0.0,0.0,0.0,0.0,0.0,0.0,0.0,0.0,0.0,0.0,0.0,0.0,0.0,0.0,0.0,0.0,0.0,0.0,0.0,0.0,0.0,0.0,0.0,0.0,0.0,0.0,0.0,0.0,0.0,0.0,0.0,0.0,0.0,0.0,0.0,0.0,0.0,0.0,0.0,0.0,0.0,0.0,0.0,0.0,0.0,0.0,0.0,4.0774,4.1689,4.2443,4.2522,4.2772,4.3402,4.3789,4.3848,4.3402,4.3789,0.0,0.0,0.0,0.0,0.0,0.0,0.0,0.0,0.0,0.0,0.0,0.0,0.0,0.0,0.0,0.0,0.0,0.0,0.0,0.0,0.0,0.0,0.0,0.0,0.0,0.0,0.0,0.0,0.0,0.0,0.0,0.0,0.0,0.0,0.0,0.0,0.0,0.0,0.0,0.0,0.0,0.0,0.0,0.0,0.0,0.0,0.0,0.0,0.0,0.0,0.0,0.0,0.0,0.0,0.0,0.0,0.0,0.0,0.0,0.0,0.0,0.0,0.0,0.0,0.0,0.0,0.0,0.0,0.0,0.0,0.0,0.0,0.0,0.0,0.0,0.0,0.0,0.0,0.0,0.0,0.0,0.0,0.0,0.0,0.0,0.0,0.0,0.0,0.0,0.0,0.0,0.0,0.0,0.0,0.0,0.0,0.0,0.0,0.0,0.0,0.0,0.0,4.1395,4.2317,4.3143,4.3235,4.3342,4.3598,4.3822,4.3687,4.3005,0.0,0.0,0.0,0.0,0.0,0.0,0.0,0.0,0.0,0.0,0.0,0.0,0.0,0.0,0.0,0.0,0.0,0.0,0.0,0.0,0.0,0.0,0.0,0.0,0.0,0.0,0.0,0.0,0.0,0.0,0.0,0.0,0.0,0.0,0.0,0.0,0.0,0.0,0.0,0.0,0.0,0.0,0.0,0.0,0.0,0.0,0.0,0.0,0.0,0.0,0.0,0.0,0.0,0.0,0.0,0.0,0.0,0.0,0.0,0.0,0.0,0.0,0.0,0.0,0.0,0.0,0.0,0.0,0.0,0.0,0.0,0.0,0.0,0.0,0.0,0.0,0.0,0.0,0.0,0.0,0.0,0.0,0.0,0.0,0.0,0.0,0.0,0.0,0.0,0.0,0.0,0.0,0.0,0.0,0.0,0.0,0.0,0.0,0.0,0.0,0.0,0.0,4.0831,4.1965,4.2943,4.3539,4.3759,4.3818,4.3628,4.415,4.403,4.2974,0.0,0.0,0.0,0.0,0.0,0.0,0.0,0.0,0.0,0.0,0.0,0.0,0.0,0.0,0.0,0.0,0.0,0.0,0.0,0.0,0.0,0.0,0.0,0.0,0.0,0.0,0.0,0.0,0.0,0.0,0.0,0.0,0.0,0.0,0.0,0.0,0.0,0.0,0.0,0.0,0.0,0.0,0.0,0.0,0.0,0.0,0.0,0.0,0.0,0.0,0.0,0.0,0.0,0.0,0.0,0.0,0.0,0.0,0.0,0.0,0.0,0.0,0.0,0.0,0.0,0.0,0.0,0.0,0.0,0.0,0.0,0.0,0.0,0.0,0.0,0.0,0.0,0.0,0.0,0.0,0.0,0.0,0.0,0.0,0.0,0.0,0.0,0.0,0.0,0.0,0.0,0.0,0.0,0.0,0.0,0.0,0.0,0.0,0.0,0.0,0.0,0.0,4.0883,4.2489,4.3628,4.3628,4.415,4.4248,4.3671,4.4903,4.51,0.0,0.0,0.0,0.0,0.0,0.0,0.0,0.0,0.0,0.0,0.0,0.0,0.0,0.0,0.0,0.0,0.0,0.0,0.0,0.0,0.0,0.0,0.0,0.0,0.0,0.0,0.0,0.0,0.0,0.0,0.0,0.0,0.0,0.0,0.0,0.0,0.0,0.0,0.0,0.0,0.0,0.0,0.0,0.0,0.0,0.0,0.0,0.0,0.0,0.0,0.0,0.0,0.0,0.0,0.0,0.0,0.0,0.0,0.0,0.0,0.0,0.0,0.0,0.0,0.0,0.0,0.0,0.0,0.0,0.0,0.0,0.0,0.0,0.0,0.0,0.0,0.0,0.0,0.0,0.0,0.0,0.0,0.0,0.0,0.0,0.0,0.0,0.0,0.0,0.0,0.0,0.0,0.0,0.0,0.0,0.0,0.0,0.0,0.0,0.0,0.0,0.0,0.0,4.0966,4.2843,4.4219,4.4219,4.4746,4.5001,4.4811,4.5276,4.5355,4.4838,0.0,0.0,0.0,0.0,0.0,0.0,0.0,0.0,0.0,0.0,0.0,0.0,0.0,0.0,0.0,0.0,0.0,0.0,0.0,0.0,0.0,0.0,0.0,0.0,0.0,0.0,0.0,0.0,0.0,0.0,0.0,0.0,0.0,0.0,0.0,0.0,0.0,0.0,0.0,0.0,0.0,0.0,0.0,0.0,0.0,0.0,0.0,0.0,0.0,0.0,0.0,0.0,0.0,0.0,0.0,0.0,0.0,0.0,0.0,0.0,0.0,0.0,0.0,0.0,0.0,0.0,0.0,0.0,0.0,0.0,0.0,0.0,0.0,0.0,0.0,0.0,0.0,0.0,0.0,0.0,0.0,0.0,0.0,0.0,0.0,0.0,0.0,0.0,0.0,0.0,0.0,0.0,0.0,0.0,0.0,0.0,0.0,0.0,0.0,0.0,0.0,0.0,4.1334,4.3161,4.4586,4.4801,4.532,4.5554,4.5329,4.585,4.6032,4.5594,0.0,0.0,0.0,0.0,0.0,0.0,0.0,0.0,0.0,0.0,0.0,0.0,0.0,0.0,0.0,0.0,0.0,0.0,0.0,0.0,0.0,0.0,0.0,0.0,0.0,0.0,0.0,0.0,0.0,0.0,0.0,0.0,0.0,0.0,0.0,0.0,0.0,0.0,0.0,0.0,0.0,0.0,0.0,0.0,0.0,0.0,0.0,0.0,0.0,0.0,0.0,0.0,0.0,0.0,0.0,0.0,0.0,0.0,0.0,0.0,0.0,0.0,0.0,0.0,0.0,0.0,0.0,0.0,0.0,0.0,0.0,0.0,0.0,0.0,0.0,0.0,0.0,0.0,0.0,0.0,0.0,0.0,0.0,0.0,0.0,0.0,0.0,0.0,0.0,0.0,0.0,0.0,0.0,0.0,0.0,0.0,0.0,0.0,0.0,0.0,0.0,0.0,4.1965,4.3501,4.4828,4.5346,4.5903,4.6045,4.5485,4.6619,4.7017,4.6212,0.0,0.0,0.0,0.0,0.0,0.0,0.0,0.0,0.0,0.0,0.0,0.0,0.0,0.0,0.0,0.0,0.0,0.0,0.0,0.0,0.0,0.0,0.0,0.0,0.0,0.0,0.0,0.0,0.0,0.0,0.0,0.0,0.0,0.0,0.0,0.0,0.0,0.0,0.0,0.0,0.0,0.0,0.0,0.0,0.0,0.0,0.0,0.0,0.0,0.0,0.0,0.0,0.0,0.0,0.0,0.0,0.0,0.0,0.0,0.0,4.4631,4.3779,0.0,0.0,0.0,0.0,0.0,0.0,0.0,0.0,0.0,0.0,0.0,0.0,0.0,0.0,0.0,0.0,0.0,0.0,0.0,0.0,0.0,0.0,0.0,0.0,0.0,0.0,0.0,0.0,0.0,0.0,0.0,0.0,0.0,0.0,0.0,0.0,0.0,0.0,0.0,0.0,4.2745,4.451,4.587,4.5995,4.6501,4.6778,4.6643,4.7335,4.7658,4.7358,4.7966,0.0,0.0,0.0,0.0,0.0,0.0,0.0,0.0,0.0,0.0,0.0,0.0,0.0,0.0,0.0,0.0,0.0,0.0,0.0,0.0,0.0,0.0,0.0,0.0,0.0,0.0,0.0,0.0,0.0,0.0,0.0,0.0,0.0,0.0,0.0,0.0,0.0,0.0,0.0,0.0,0.0,0.0,0.0,0.0,0.0,0.0,0.0,0.0,0.0,0.0,0.0,0.0,0.0,0.0,0.0,0.0,0.0,0.0,0.0,4.5863,4.5337,0.0,0.0,0.0,0.0,0.0,0.0,0.0,0.0,0.0,0.0,0.0,0.0,0.0,0.0,0.0,0.0,0.0,0.0,0.0,0.0,0.0,0.0,0.0,0.0,0.0,0.0,0.0,0.0,0.0,0.0,0.0,0.0,0.0,0.0,0.0,0.0,0.0,0.0,0.0,0.0,4.3506,4.5041,4.6308,4.6566,4.6842,4.7088,4.7227,4.765,4.8002,4.8254,4.8476,0.0,0.0,0.0,0.0,0.0,0.0,0.0,0.0,0.0,0.0,0.0,0.0,0.0,0.0,0.0,0.0,0.0,0.0,0.0,0.0,0.0,0.0,0.0,0.0,0.0,0.0,0.0,0.0,0.0,0.0,0.0,0.0,0.0,0.0,0.0,0.0,0.0,0.0,0.0,0.0,0.0,0.0,0.0,0.0,0.0,0.0,0.0,0.0,0.0,0.0,0.0,0.0,0.0,4.7049,4.7138,4.7138,4.7138,4.7356,4.7674,4.7021,4.6999,4.732,4.6257,0.0,0.0,0.0,0.0,0.0,0.0,0.0,0.0,0.0,0.0,0.0,0.0,0.0,0.0,0.0,0.0,0.0,0.0,0.0,0.0,0.0,0.0,4.6359,4.6185,4.6612,4.6743,4.5561,0.0,0.0,0.0,0.0,0.0,0.0,0.0,0.0,0.0,0.0,0.0,4.4349,4.5519,4.6518,4.6957,4.7048,4.7205,4.7468,4.7838,4.8329,4.8911,4.8911,4.9051,0.0,0.0,0.0,0.0,0.0,0.0,0.0,0.0,0.0,0.0,0.0,0.0,0.0,0.0,0.0,0.0,0.0,0.0,0.0,0.0,0.0,0.0,0.0,0.0,0.0,0.0,0.0,0.0,0.0,0.0,0.0,0.0,4.6671,4.6955,0.0,0.0,0.0,0.0,0.0,0.0,0.0,0.0,0.0,0.0,0.0,0.0,0.0,4.6822,4.6822,4.7252,4.7485,4.7485,4.7915,4.8113,4.8113,4.8113,4.8152,4.8191,4.8094,0.0,4.7385,4.7216,0.0,0.0,0.0,0.0,0.0,0.0,0.0,0.0,0.0,0.0,0.0,0.0,0.0,0.0,0.0,0.0,0.0,0.0,0.0,0.0,0.0,0.0,4.8347,4.8018,4.8252,4.8476,4.8292,4.6834,4.5536,4.5571,4.5477,4.5399,0.0,0.0,0.0,0.0,0.0,0.0,4.5588,4.6394,4.6911,4.6998,4.7249,4.7446,4.749,4.8291,4.8876,4.9146,4.9683,4.9898,4.9675,4.9635,0.0,0.0,0.0,0.0,0.0,0.0,0.0,0.0,0.0,0.0,0.0,0.0,0.0,0.0,0.0,0.0,0.0,0.0,0.0,0.0,0.0,0.0,0.0,0.0,0.0,0.0,0.0,0.0,0.0,4.6507,4.7049,4.7656,4.7838,4.7937,0.0,0.0,0.0,0.0,0.0,0.0,0.0,0.0,0.0,4.7417,4.765,4.7793,4.7793,4.7935,4.7995,4.7995,4.8191,4.8306,4.8306,4.8306,4.8306,4.8306,4.8306,4.8152,4.7877,4.7551,4.7212,4.6882,0.0,0.0,0.0,0.0,4.6371,4.6401,4.6819,4.6955,4.6955,4.6892,0.0,0.0,0.0,0.0,0.0,0.0,0.0,4.7352,4.7377,4.7851,4.8384,4.855,4.8693,4.8799,4.8799,4.7945,4.7044,4.6616,4.6383,4.6098,4.5588,4.5216,0.0,0.0,0.0,4.5802,4.6027,4.6765,4.7272,4.7272,4.7578,4.7893,4.8135,4.8621,4.9092,4.9561,4.9981,5.0221,5.0265,5.0076,4.9985,0.0,0.0,0.0,0.0,0.0,0.0,0.0,0.0,0.0,0.0,0.0,0.0,0.0,0.0,0.0,0.0,0.0,0.0,0.0,0.0,0.0,0.0,0.0,0.0,0.0,0.0,0.0,0.0,4.699,4.7524,4.8267,4.8306,4.8306,0.0,0.0,0.0,0.0,0.0,0.0,4.7452,4.8094,4.842,4.8215,4.8439,4.8605,4.8695,4.8605,4.855,4.855,4.855,4.855,4.855,4.855,4.855,4.855,4.855,4.855,4.8513,4.7881,4.7632,4.7569,4.7062,4.6842,4.6819,4.6842,4.6864,4.6955,4.7539,4.77,4.7656,4.7846,4.7806,4.764,4.714,0.0,0.0,0.0,0.0,4.7826,4.7991,4.8274,4.8613,4.8932,4.9067,4.9115,4.9099,4.8833,4.8384,4.7629,4.7194,4.6753,4.6123,4.59,0.0,4.58,4.6084,4.6339,4.6572,4.7165,4.7575,4.7621,4.7953,4.8307,4.8658,4.8982,4.9386,4.993,5.0197,5.0453,5.0747,5.0508,5.0438,5.0539,0.0,0.0,0.0,0.0,0.0,0.0,0.0,0.0,0.0,0.0,0.0,0.0,0.0,0.0,0.0,0.0,0.0,0.0,0.0,0.0,0.0,0.0,0.0,0.0,0.0,0.0,0.0,0.0,0.0,4.8457,4.8382,0.0,0.0,0.0,0.0,4.8267,4.8401,4.8569,4.8795,4.8605,4.8748,4.9295,4.8965,4.8934,4.9271,4.9237,4.9237,4.9237,4.9237,4.9237,4.9237,4.9237,4.9237,4.9237,4.9237,4.9237,4.919,4.8532,4.8228,4.8168,4.811,4.8032,4.7933,4.807,4.811,4.8189,4.8586,4.8532,4.8364,4.8996,4.8949,4.8623,4.8586,4.8513,0.0,0.0,4.9034,4.9427,4.918,4.9565,4.9927,4.9627,4.98,5.0012,4.9946,4.9674,4.9198,4.8402,4.7911,4.7593,4.7428,0.0,4.6771,4.7129,4.6776,4.6753,4.7529,4.7657,4.7762,4.7951,4.8383,4.8658,4.8713,4.9409,4.9943,5.0171,5.0497,5.0747,5.0882,5.0863,5.0877,5.0872,5.0548,0.0,0.0,0.0,0.0,0.0,0.0,0.0,0.0,0.0,0.0,0.0,0.0,0.0,0.0,0.0,0.0,0.0,0.0,0.0,0.0,0.0,0.0,0.0,0.0,0.0,0.0,0.0,0.0,4.8343,4.8325,0.0,4.8363,4.8419,4.8476,4.8604,4.8767,4.892,4.9142,4.915,4.9233,4.9461,4.9324,4.9309,4.9431,4.9333,4.9299,4.9299,4.9299,4.9299,4.9299,4.9299,4.9299,4.9299,4.9299,4.9299,4.9268,4.9048,4.8915,4.8917,4.8917,4.8881,4.8829,4.8881,4.8917,4.8934,4.9064,4.9048,4.8982,4.9221,4.9209,4.9129,4.9333,4.9333,4.9287,4.9378,4.967,4.986,4.9579,4.9814,5.0082,4.9959,5.0012,5.0082,4.9999,4.9736,4.9389,4.9073,4.8495,4.8113,4.8195,4.7653,4.7327,4.7632,4.753,4.7491,4.7795,4.8213,4.8477,4.844,4.8802,4.9106,4.9321,4.9603,4.9981,5.0497,5.0625,5.0764,5.0898,5.0898,5.089,5.0901,5.0778,5.0689,0.0,0.0,0.0,0.0,0.0,0.0,0.0,0.0,0.0,0.0,0.0,0.0,0.0,0.0,0.0,0.0,0.0,0.0,0.0,0.0,0.0,0.0,0.0,0.0,0.0,4.7775,4.7955,4.8267,4.8306,4.8306,4.8363,4.8495,4.8678,4.885,4.9055,4.9262,4.9498,4.9491,4.9583,4.98,4.967,4.9655,4.9773,4.9674,4.9646,4.9646,4.9646,4.9646,4.9646,4.9646,4.9646,4.9646,4.9646,4.9646,4.9646,4.9646,4.9646,4.9613,4.9394,4.9299,4.9299,4.9299,4.9299,4.9299,4.9299,4.9453,4.9632,4.9512,4.9468,4.9512,4.973,4.9762,4.9735,4.979,4.9974,5.0133,4.9948,5.0031,5.017,5.017,5.017,5.0145,5.0057,4.986,4.9679,4.9596,4.8971,4.8513,4.8639,4.8252,4.7937,4.7959,4.8098,4.8176,4.8079,4.8584,4.8951,4.8937,4.9236,4.9544,4.9749,4.9917,5.0199,5.0673,5.0729,5.0819,5.0898,5.0909,5.0901,5.0901,5.0917,5.0928,5.0896,0.0,0.0,0.0,0.0,0.0,0.0,0.0,0.0,0.0,0.0,0.0,0.0,0.0,0.0,0.0,0.0,0.0,0.0,0.0,0.0,0.0,0.0,0.0,4.8207,4.8267,4.8306,4.8325,4.8325,4.8363,4.8513,4.8713,4.8885,4.9023,4.9327,4.9641,4.9897,4.967,4.9781,5.039,5.0006,4.9968,5.0302,5.0302,5.0302,5.0302,5.0302,5.0302,5.0302,5.0302,5.0302,5.0302,5.0302,5.0302,5.0302,5.0302,5.0302,5.0236,4.9584,4.9329,4.9329,4.9329,4.9329,4.9329,4.9329,4.9757,5.0248,4.9929,4.9817,4.9817,4.9817,4.9817,4.9817,4.9817,5.0051,5.0302,5.0302,5.0302,5.0302,5.0302,5.0302,5.0267,5.0133,5.0095,5.0057,4.9939,4.9309,4.8833,4.8833,4.8816,4.8658,4.8212,4.8532,0.0,4.8458,4.885,4.9201,4.9365,4.9698,4.9897,4.991,5.032,5.0606,5.0701,5.0829,5.0897,5.0898,5.0905,5.0916,5.0916,5.0977,5.105,5.1096,0.0,0.0,0.0,0.0,0.0,0.0,0.0,0.0,0.0,0.0,0.0,0.0,0.0,0.0,0.0,0.0,0.0,0.0,0.0,0.0,0.0,4.8568,4.855,4.8306,4.8287,4.8402,4.871,4.8745,4.8864,4.919,4.9321,4.9461,4.9632,4.9787,4.9954,5.0169,5.012,5.0163,5.0314,5.0224,5.0212,5.0302,5.0302,5.0302,5.0302,5.0302,5.0302,5.0302,5.0302,5.0302,5.0302,5.0302,5.0302,5.0302,5.0302,5.0302,5.029,5.0107,5.0038,5.0038,5.0038,5.0038,5.0038,5.0038,5.0144,5.029,5.0181,5.0156,5.0156,5.0156,5.0156,5.0156,5.0156,5.0224,5.0302,5.0302,5.0302,5.0302,5.0302,5.0267,5.02,5.012,5.007,5.0005,4.9925,4.9736,4.9602,4.9602,4.915,4.885,4.9005,4.9155,4.9204,4.9139,4.9583,4.9773,4.9446,4.9598,4.9798,4.9898,5.0016,5.0317,5.0805,5.0874,5.0909,5.0898,5.0983,5.1062,5.1113,5.1084,5.1074,0.0,0.0,0.0,0.0,0.0,0.0,0.0,0.0,0.0,0.0,0.0,0.0,0.0,0.0,0.0,0.0,0.0,0.0,0.0,0.0,0.0,0.0,4.8765,4.8799,4.8763,4.8728,4.8832,4.9094,4.9126,4.9221,4.9512,4.9646,4.9795,4.9935,5.0063,5.0182,5.029,5.0302,5.0302,5.0302,5.0302,5.0302,5.0302,5.0302,5.0302,5.0302,5.0302,5.0302,5.0302,5.0302,5.0302,5.0302,5.0302,5.0302,5.0302,5.0302,5.0302,5.0302,0.0,0.0,0.0,0.0,5.0302,5.0302,5.0302,5.0302,5.0302,5.0302,5.0302,5.0302,5.0302,5.0302,5.0302,5.0302,5.0302,5.0302,5.0302,5.0302,5.0302,5.0302,5.0278,5.0212,5.017,5.0101,5.005,5.0005,4.9973,0.0,4.9952,4.9554,4.9262,4.9315,4.9488,4.9558,4.9409,4.9876,5.0107,4.9844,5.0,5.0152,5.0229,5.0284,0.0,0.0,0.0,5.0906,5.0935,5.1035,0.0,0.0,0.0,5.1174,5.1234,5.1193,0.0,0.0,5.094,5.0895,0.0,0.0,0.0,0.0,0.0,0.0,0.0,0.0,0.0,0.0,0.0,0.0,0.0,0.0,0.0,0.0,4.8866,4.9048,4.9449,4.9435,4.942,4.9479,4.9479,4.9541,4.9698,4.9876,4.9981,5.0038,5.0207,5.0302,5.0302,5.0302,0.0,0.0,0.0,5.0302,5.0302,5.0302,5.0302,5.0302,5.0302,5.0302,5.0302,5.0302,5.0302,5.0302,5.0302,5.0302,5.0302,5.0302,5.0302,5.0302,5.0302,5.0302,5.0302,5.0302,5.0302,5.0302,5.0302,0.0,0.0,5.0302,5.0302,5.0302,5.0302,5.0302,5.0302,5.0302,5.0302,5.0302,5.0302,5.0302,5.0302,5.0302,5.029,5.0278,5.02,5.0188,5.0163,5.012,5.012,5.0101,5.0057,4.9973,4.9805,4.9386,4.967,4.9863,4.9556,4.9949,5.0287,5.0372,5.0547,0.0,5.0663,5.0784,5.0861,5.0898,5.0909,5.0959,5.1022,5.1089,5.1151,5.1213,5.1215,5.1277,5.1404,5.14,5.1395,5.1409,5.121,5.1167,0.0,0.0,0.0,0.0,0.0,0.0,0.0,0.0,0.0,0.0,0.0,0.0,0.0,0.0,0.0,4.9527,4.9603,4.9716,5.0076,5.01,5.0057,4.9981,4.9962,5.0087,5.0374,5.0385,5.0371,5.0344,5.0302,5.0302,5.0302,5.0302,5.0302,5.0302,5.0302,5.0302,5.0302,5.0302,5.0302,5.0302,5.0302,0.0,5.0302,5.0302,5.0302,5.0302,5.0302,5.0302,5.0302,5.0302,5.0302,5.0302,5.0302,5.0302,5.0302,5.0302,5.0302,5.0302,5.0302,5.0302,5.0302,5.0302,5.0302,5.0302,5.0302,5.0302,0.0,5.0302,5.0302,5.0302,5.0302,5.0302,5.0302,5.0302,5.0267,5.0231,5.02,5.017,5.012,5.0108,5.024,5.0325,5.0248,5.0243,5.0175,5.0031,5.0186,5.0275,5.0214,5.0436,5.0497,5.0264,5.0368,5.047,5.047,5.049,5.0605,5.089,5.0997,5.1116,5.1238,5.1255,5.1281,5.1365,5.1367,5.1367,5.14,5.1395,5.1407,5.1398,5.1366,5.1343,0.0,0.0,0.0,0.0,0.0,0.0,0.0,0.0,0.0,0.0,0.0,4.8816,4.8999,0.0,4.9424,4.9744,4.9803,4.9929,5.0302,5.0348,5.0337,5.0264,5.0245,5.0329,5.0478,5.0468,5.0424,5.0348,5.0314,5.0302,5.0302,5.0302,5.0302,5.0302,5.0302,5.0302,5.0302,5.0302,5.0302,5.0302,5.0302,5.0302,5.0302,5.0302,5.0302,5.0302,5.0302,5.0302,5.0302,5.0302,5.0302,5.0302,5.0302,5.0302,5.0302,5.0302,5.0302,5.0302,5.0302,5.0302,5.0302,5.0302,5.0302,5.0302,5.0302,5.0302,5.0302,5.0302,5.0302,5.0302,5.0302,5.0374,5.0442,5.0442,5.0477,5.05,5.05,5.047,5.0449,5.0449,5.0539,5.0586,5.05,5.0568,5.0567,5.0336,5.0369,5.0436,5.0537,5.0635,5.0663,5.0567,5.0615,5.0641,5.0641,5.0709,5.0813,5.0985,5.1128,5.1223,5.1302,5.1335,5.1363,5.1406,5.1405,5.1403,5.1398,5.1393,5.14,5.1396,5.1394,5.1376,0.0,0.0,0.0,0.0,0.0,0.0,0.0,4.8693,4.864,4.9193,4.9145,4.9064,4.9348,4.9453,4.9584,4.9857,4.9903,5.0006,5.0337,5.039,5.039,5.039,5.0412,5.0412,5.0401,5.0401,5.0359,5.0302,5.0302,5.0302,5.0302,5.0302,5.0302,5.0302,5.0302,5.0302,5.0302,5.0302,5.0302,5.0302,5.0302,5.0302,5.0302,5.0302,5.0302,5.0302,5.0302,5.0397,5.055,5.055,5.0646,5.0799,5.0799,5.0815,5.0811,5.0619,5.0681,5.0841,5.0841,5.0841,5.0841,5.0841,5.0841,5.0841,5.0841,5.0875,5.0889,5.0889,5.0889,5.0889,5.0889,5.1008,5.1135,5.1135,5.1106,5.1049,5.1049,5.0914,5.0798,5.0798,5.084,5.084,5.0766,5.0903,5.0928,5.0558,5.0519,5.0587,5.0763,5.0763,5.0789,5.0914,5.0906,5.0898,5.0898,5.1024,5.1109,5.1123,5.1235,5.1307,5.1318,5.1366,5.1406,5.1406,5.1405,5.1402,5.1398,5.1391,5.1392,5.1394,5.1388,5.1352,4.8383,4.855,4.8799,4.8799,4.9034,4.9237,0.0,4.9224,4.9206,4.9283,4.9512,4.9702,4.973,4.9981,5.0212,5.0236,5.0236,5.0248,5.0302,5.0314,5.0314,5.0314,5.0424,5.0468,5.0412,5.0401,5.0359,5.0302,5.0302,5.0302,5.0302,5.0302,5.0302,5.0302,5.0302,5.0302,5.0302,5.0302,5.0302,5.0302,5.0302,5.0302,5.0302,5.0302,5.0302,5.0302,5.0302,5.0741,5.1436,5.1436,5.1888,5.2518,5.2518,5.2621,5.267,5.1779,5.2008,5.2787,5.2787,5.2787,5.2787,5.2787,5.2787,5.2787,5.2787,5.2916,5.3039,5.3039,5.3039,5.3039,5.3039,5.3075,5.3091,5.3091,5.2519,5.1947,5.1947,5.1339,5.0798,5.0798,5.0939,5.1043,5.097,5.1074,5.1097,5.0874,5.0951,5.103,5.1043,5.101,5.0976,5.0983,5.0944,5.0898,5.0898,5.1024,5.1122,5.1195,5.1267,5.132,5.1386,5.1405,5.1406,5.1406,5.1403,5.1399,5.1398,5.1405,5.1403,5.1394,5.1342,5.132,4.8915,4.8982,4.9145,4.9333,4.9483,4.9584,4.9584,4.9453,4.9424,4.9784,4.9844,4.9857,5.0051,5.0212,5.0302,5.0302,5.0302,5.0302,5.0302,5.0302,5.0302,5.0302,5.0348,5.0371,5.0337,5.0337,5.0325,5.0302,5.0302,5.0302,5.0302,5.0302,5.0302,5.0302,5.0302,5.0302,5.0302,5.0302,5.0302,5.0302,5.0302,5.0302,5.0321,5.0837,5.1314,5.1754,5.1754,5.1964,5.2308,5.2308,5.2579,5.2965,5.2971,5.3406,5.3895,5.2864,5.2819,5.3277,5.3265,5.3275,5.3277,5.3265,5.3275,5.3268,5.3268,5.3329,5.3406,5.3406,5.3406,5.3406,5.3406,5.3456,5.3527,5.3566,5.3351,5.3149,5.3149,5.2858,5.2444,5.1956,5.1915,5.1799,5.1268,5.1225,5.1234,5.1141,5.1103,5.1099,5.1099,5.1043,5.0983,5.0959,5.0983,5.1017,5.1017,5.1132,5.1238,5.1256,5.1324,5.1366,5.1398,5.1403,5.1404,5.1404,5.14,5.1397,5.1394,5.141,5.1378,5.1342,5.1261,5.1215,4.9097,4.9209,4.9363,4.9716,4.987,4.9942,4.9942,4.9744,4.9716,5.0212,5.012,5.0006,5.0267,5.0302,5.0302,5.0302,5.0302,5.0302,5.0302,5.0302,5.0302,5.0302,5.0302,5.0302,5.0302,5.0302,5.0302,5.0302,5.0302,5.0302,5.0302,5.0302,5.0302,5.0302,5.0302,5.0302,5.0302,5.0302,5.0417,5.0665,5.0665,5.0779,5.1009,5.1639,5.2251,5.2805,5.2805,5.2938,5.3161,5.3207,5.3473,5.3812,5.3889,5.439,5.5012,5.4244,5.4047,5.4176,5.4166,5.4171,5.4176,5.4166,5.4163,5.4173,5.4173,5.4202,5.4257,5.4257,5.4257,5.4257,5.4271,5.4322,5.441,5.4456,5.4355,5.4261,5.4254,5.4079,5.3701,5.3077,5.2957,5.2762,5.2138,5.2021,5.2021,5.2021,5.1926,5.17,5.1208,5.1099,5.103,5.0954,5.1049,5.112,5.112,5.1238,5.1297,5.1302,5.1366,5.1394,5.1409,5.1398,5.1401,5.1398,5.1397,5.1394,5.1409,5.1396,5.1375,5.1296,5.1225,5.1159,4.8586,4.8952,4.929,4.9688,5.0051,5.029,5.029,5.0278,5.0278,5.0302,5.029,5.029,5.0302,5.0302,5.0302,5.0302,5.0302,5.0302,5.0302,5.0302,5.0302,5.0302,5.0302,5.0302,5.0302,5.0302,5.0302,5.0302,5.0302,5.0302,5.0302,5.0302,5.0302,5.0302,5.0302,5.0302,5.0302,5.0302,5.0722,5.1551,5.1551,5.1964,5.2728,5.2747,5.2785,5.2805,5.2805,5.3282,5.4071,5.4276,5.4852,5.5643,5.5833,5.6013,5.6147,5.6122,5.6105,5.6121,5.6121,5.6121,5.6121,5.6121,5.6122,5.611,5.611,5.6258,5.6401,5.6401,5.6401,5.6405,5.6402,5.641,5.6418,5.6416,5.5779,5.5152,5.5154,5.4507,5.3896,5.3876,5.3849,5.3849,5.3829,5.381,5.381,5.381,5.3829,5.3206,5.1511,5.1234,5.1166,5.1105,5.1162,5.1209,5.1209,5.1264,5.1302,5.1307,5.1363,5.1409,5.1409,5.139,5.1393,5.1398,5.1393,5.1409,5.1409,5.1396,5.1375,5.1296,5.123,5.1161,4.8952,4.9305,4.9674,5.0051,5.0224,5.0302,5.0302,5.0302,5.0302,5.0302,5.0302,5.0302,5.0302,5.0302,5.0302,5.0302,5.0302,5.0302,5.0302,5.0302,5.0302,5.0302,5.0302,5.0302,5.0302,5.0302,5.0302,5.0302,5.0302,5.0302,5.0302,5.0302,5.0302,5.0302,5.0856,5.1162,5.1162,5.1697,5.2117,5.2403,5.2403,5.2843,5.3664,5.3664,5.403,5.4671,5.4671,5.4895,5.5287,5.5371,5.5668,5.6104,5.6116,5.6232,5.6406,5.6391,5.6391,5.6395,5.6398,5.6405,5.6392,5.6392,5.6398,5.6398,5.6398,5.6441,5.6507,5.65,5.6504,5.6508,5.6507,5.6494,5.6498,5.6494,5.6277,5.6056,5.6062,5.5838,5.5457,5.4869,5.4768,5.4569,5.3993,5.3892,5.3908,5.3892,5.3907,5.3662,5.3038,5.2929,5.2902,5.2832,5.2927,5.2995,5.2995,5.3046,5.2847,5.2279,5.2249,5.2005,5.1419,5.1407,5.1408,5.1403,5.1396,5.1406,5.1396,5.1304,5.1269,5.123,5.1163,5.1075,4.929,4.956,4.9844,5.0212,5.0302,5.0302,5.0302,5.0302,5.0302,5.0302,5.0278,5.0278,5.0302,5.0278,5.0278,5.0302,5.0302,5.0302,5.0302,5.0363,5.0407,5.0407,5.0445,5.0477,5.0477,5.0477,5.0434,5.0314,5.0302,5.0436,5.076,5.076,5.0894,5.1181,5.1735,5.204,5.204,5.2537,5.2957,5.3263,5.3628,5.4096,5.4633,5.4698,5.5098,5.5712,5.5731,5.5814,5.5947,5.6003,5.6128,5.6295,5.6323,5.6413,5.6533,5.6542,5.6523,5.6506,5.6508,5.6494,5.6503,5.6496,5.65,5.6507,5.6496,5.6496,5.65,5.65,5.6503,5.6507,5.6508,5.6491,5.6517,5.6531,5.6548,5.6523,5.6506,5.65,5.6335,5.5763,5.5666,5.5487,5.4927,5.4811,5.4791,5.4782,5.4797,5.4569,5.393,5.3844,5.3821,5.3771,5.3877,5.3944,5.3944,5.3978,5.3766,5.3199,5.3155,5.2917,5.2351,5.231,5.2151,5.1833,5.1832,5.1658,5.133,5.1244,5.1184,5.1153,5.1075,5.0971,4.9589,4.9721,4.9817,5.0212,5.0302,5.0302,5.0302,5.0302,5.029,5.029,5.0243,5.02,5.0278,5.0243,5.0212,5.029,5.0302,5.0302,5.0314,5.0474,5.0596,5.0606,5.0711,5.0817,5.0856,5.0875,5.0754,5.0478,5.0413,5.0776,5.1632,5.1682,5.2038,5.2791,5.2867,5.2874,5.2862,5.29,5.3352,5.4186,5.5143,5.5598,5.5619,5.5822,5.5904,5.592,5.5978,5.602,5.6042,5.6225,5.63,5.6333,5.6523,5.6606,5.6606,5.6606,5.6558,5.6506,5.6491,5.6504,5.6501,5.65,5.6504,5.6492,5.6508,5.6496,5.65,5.6498,5.6504,5.6508,5.6503,5.6509,5.6511,5.6582,5.6604,5.6582,5.6511,5.6509,5.6503,5.6508,5.6508,5.6508,5.6508,5.6436,5.6404,5.64,5.6404,5.5838,5.4244,5.4027,5.4038,5.404,5.4082,5.4137,5.4117,5.412,5.4103,5.4064,5.4064,5.4045,5.3986,5.3922,5.3517,5.2681,5.266,5.2219,5.1326,5.1288,5.122,5.1145,5.0959,5.0874,4.9674,4.9916,5.0169,5.0259,5.0302,5.0302,5.0302,5.0267,5.0231,5.0231,5.0163,5.0133,5.0145,5.0182,5.0219,5.0212,5.0267,5.034,5.0506,5.0576,5.0644,5.0737,5.0786,5.1068,5.1715,5.1773,5.2012,5.2564,5.2006,5.1953,5.2668,5.2868,5.2974,5.3014,5.3648,5.3924,5.376,5.4409,5.4915,5.5297,5.5553,5.575,5.591,5.5939,5.6029,5.6115,5.6141,5.6227,5.6371,5.6436,5.6472,5.6523,5.658,5.6606,5.6606,5.6606,5.6584,5.658,5.6525,5.6494,5.6501,5.6498,5.6494,5.6491,5.6494,5.6494,5.6498,5.6497,5.65,5.6506,5.6558,5.6563,5.6582,5.6604,5.656,5.6533,5.658,5.6533,5.6509,5.6555,5.6538,5.6493,5.6493,5.6445,5.6403,5.6399,5.6406,5.6268,5.5894,5.5839,5.5836,5.5847,5.5853,5.584,5.5799,5.5785,5.5502,5.4855,5.4816,5.4523,5.3876,5.383,5.3724,5.3491,5.3434,5.3296,5.3058,5.2305,5.1949,5.1896,5.0951,5.0469,4.9968,5.0132,5.0302,5.0302,5.0302,5.029,5.0267,5.0243,5.0188,5.0151,5.0108,5.007,5.0095,5.0133,5.017,5.0207,5.034,5.0464,5.0577,5.0735,5.0856,5.0925,5.1322,5.1786,5.2272,5.266,5.3204,5.3996,5.3193,5.2989,5.3725,5.387,5.4044,5.4313,5.4795,5.5007,5.4891,5.5374,5.568,5.5788,5.5874,5.5986,5.6084,5.6178,5.6261,5.6336,5.6363,5.6436,5.6536,5.6536,5.658,5.6606,5.6606,5.6606,5.6606,5.6606,5.6582,5.6558,5.6555,5.6525,5.6494,5.6504,5.6501,5.6504,5.6491,5.6494,5.6517,5.6533,5.6536,5.6558,5.6584,5.6606,5.6606,5.6606,5.656,5.6558,5.6584,5.656,5.6545,5.6548,5.6539,5.6484,5.6412,5.6374,5.6352,5.6361,5.6363,5.6359,5.6404,5.6433,5.6455,5.6468,5.6461,5.6434,5.639,5.6409,5.6191,5.5704,5.5665,5.545,5.4959,5.4918,5.4728,5.4324,5.4255,5.4019,5.3604,5.305,5.2649,5.2396,5.168,5.119,5.0302,5.0302,5.0302,5.0302,5.0302,5.029,5.0231,5.0188,5.0182,5.0108,5.0031,4.9986,5.007,5.0082,5.0108,5.0182,5.0421,5.0587,5.0625,5.0901,5.115,5.1278,5.2067,5.2684,5.2918,5.3638,5.4363,5.506,5.4296,5.4099,5.4785,5.4839,5.5188,5.593,5.5913,5.5896,5.5896,5.5907,5.592,5.5951,5.6135,5.6227,5.6266,5.642,5.6511,5.6511,5.6563,5.6606,5.6606,5.6606,5.6606,5.6606,5.6606,5.6606,5.6606,5.6606,5.656,5.6511,5.6582,5.656,5.6509,5.6514,5.6511,5.6511,5.6506,5.6511,5.6533,5.6582,5.6606,5.6606,5.6606,5.6606,5.6606,5.6608,5.6606,5.6606,5.6608,5.6606,5.6579,5.6503,5.6484,5.6455,5.6317,5.6299,5.63,5.6291,5.6302,5.6297,5.6297,5.6354,5.6405,5.6401,5.6401,5.6396,5.6392,5.6387,5.6387,5.6387,5.6387,5.6387,5.6387,5.6324,5.593,5.5163,5.5087,5.4645,5.3837,5.3632,5.3311,5.2853,5.2552,5.2163,5.029,5.0302,5.0302,5.0302,5.0302,5.029,5.0231,5.017,5.0108,5.0031,4.9946,4.9925,4.992,4.9992,5.0044,5.0108,5.0344,5.0577,5.0745,5.0965,5.1411,5.2241,5.2496,5.3171,5.4608,5.4881,5.5325,5.6149,5.6057,5.5947,5.5916,5.6072,5.6161,5.6142,5.5982,5.5907,5.5907,5.5947,5.6077,5.623,5.6276,5.6375,5.6528,5.6577,5.6582,5.6582,5.6584,5.6606,5.6606,5.6606,5.6606,5.6606,5.6606,5.6606,5.6606,5.6606,5.6584,5.6582,5.6604,5.6584,5.6582,5.658,5.658,5.658,5.6582,5.6582,5.6582,5.6604,5.6606,5.6606,5.6606,5.6606,5.6608,5.6596,5.6593,5.6608,5.6596,5.6593,5.6579,5.6503,5.6457,5.6385,5.6309,5.6299,5.6303,5.6298,5.6304,5.6291,5.6291,5.6349,5.6372,5.631,5.6324,5.6328,5.6315,5.6329,5.6329,5.6329,5.6329,5.6329,5.6329,5.6253,5.6149,5.5986,5.587,5.5719,5.5559,5.441,5.3788,5.3652,5.2193,5.1457,5.029,5.0302,5.0302,5.0302,5.0278,5.0243,5.0151,5.0108,5.0031,4.9965,4.9906,4.9912,4.9912,4.9946,5.0031,5.0095,5.0374,5.0659,5.0774,5.1023,5.1541,5.2481,5.2995,5.3771,5.5076,5.5606,5.6039,5.6461,5.65,5.6459,5.6358,5.645,5.6468,5.6354,5.6255,5.6214,5.6214,5.6241,5.6309,5.6402,5.6432,5.6514,5.6606,5.6606,5.6606,5.6606,5.6606,5.6606,5.6606,5.6606,5.6606,5.6606,5.6606,5.6606,5.6606,5.6606,5.6606,5.6606,5.6606,5.6606,5.6606,5.6606,5.6606,5.6606,5.6606,5.6606,5.6606,5.6606,5.6606,5.6606,5.6593,5.6595,5.6596,5.6606,5.6602,5.6582,5.652,5.6518,5.6521,5.6459,5.6387,5.6344,5.6305,5.6296,5.6291,5.6291,5.6291,5.6291,5.6291,5.6327,5.6336,5.6308,5.6302,5.6309,5.6298,5.6291,5.6291,5.6291,5.6278,5.6246,5.6246,5.6231,5.6182,5.616,5.5882,5.5682,5.5581,5.4734,5.4126,5.372,5.2877,5.2305,5.0243,5.0278,5.029,5.0267,5.0231,5.0175,5.0095,5.0044,4.9992,4.9906,4.9912,4.9912,4.9912,4.9933,5.0005,5.0095,5.042,5.0715,5.079,5.125,5.1904,5.2781,5.3654,5.4515,5.5392,5.6093,5.6496,5.6492,5.6496,5.6496,5.65,5.6492,5.6507,5.6501,5.6508,5.6508,5.6508,5.6503,5.6511,5.6511,5.6563,5.6606,5.6606,5.6606,5.6606,5.6606,5.6606,5.6606,5.6606,5.6606,5.6606,5.6606,5.6606,5.6606,5.6606,5.6606,5.6606,5.6606,5.6606,5.6606,5.6608,5.6579,5.6575,5.6606,5.6606,5.6575,5.6563,5.6563,5.6549,5.6535,5.6554,5.6558,5.654,5.656,5.6573,5.6572,5.6445,5.6464,5.6482,5.6387,5.6335,5.63,5.6297,5.6291,5.6291,5.6291,5.6291,5.6291,5.6291,5.6291,5.6291,5.6285,5.6291,5.6291,5.6285,5.6285,5.6278,5.6272,5.6225,5.6204,5.6204,5.6187,5.6149,5.6082,5.5672,5.5359,5.5204,5.4695,5.4163,5.359,5.3454,5.3067,5.012,5.0207,5.0267,5.0145,5.017,5.0163,5.0044,4.9986,4.9992,4.9906,4.9912,4.9912,4.9912,4.9912,4.9952,5.0082,5.0389,5.0662,5.0782,5.1775,5.2801,5.3677,5.455,5.5411,5.6292,5.6448,5.6496,5.6492,5.6491,5.6498,5.6498,5.6498,5.6501,5.6501,5.6497,5.6506,5.6506,5.6558,5.6584,5.6584,5.6604,5.6606,5.6606,5.6606,5.6606,5.6606,5.6606,5.6606,5.6606,5.6606,5.6606,5.6606,5.6606,5.6606,5.6606,5.6606,5.6606,5.6606,5.6606,5.6606,5.6575,5.6464,5.6499,5.6606,5.6606,5.6516,5.6425,5.6425,5.637,5.6343,5.6396,5.6362,5.6341,5.6395,5.6504,5.6577,5.6503,5.6503,5.646,5.6331,5.6297,5.63,5.6297,5.6291,5.6291,5.6291,5.6291,5.6291,5.6291,5.6291,5.6278,5.6225,5.6252,5.6278,5.6206,5.6206,5.6211,5.6214,5.6206,5.6206,5.6206,5.6141,5.6082,5.6012,5.5498,5.5216,5.5205,5.4194,5.3665,5.3589,5.2978,5.2527,5.0158,5.0231,5.0278,5.0175,5.0158,5.012,5.0031,4.9978,4.992,4.9912,4.9912,4.9912,4.9912,4.9912,4.9933,5.0082,5.0309,5.0558,5.0766,5.1768,5.283,5.3786,5.466,5.5545,5.6426,5.6496,5.651,5.6508,5.6542,5.655,5.655,5.6523,5.6523,5.655,5.6555,5.6558,5.6558,5.6584,5.6606,5.6606,5.6606,5.6606,5.6606,5.6606,5.6606,5.6606,5.6606,5.6606,5.6606,5.6606,5.661,5.6595,5.6608,5.6585,5.6539,5.6598,5.6554,5.6483,5.6483,5.6484,5.6458,5.636,5.6385,5.6417,5.6417,5.6409,5.6399,5.6352,5.6313,5.6312,5.633,5.6326,5.6289,5.6273,5.6358,5.6393,5.6329,5.6352,5.6352,5.6301,5.6266,5.6245,5.6233,5.6245,5.6243,5.6243,5.6243,5.6243,5.6243,5.6243,5.6223,5.6202,5.6218,5.6225,5.6209,5.6202,5.6194,5.6199,5.6114,5.6082,5.6082,5.6014,5.5837,5.5519,5.5116,5.4743,5.4428,5.3702,5.3285,5.3101,5.2599,5.2226,5.0126,5.02,5.0255,5.0151,5.012,5.0057,4.9992,4.992,4.9912,4.9912,4.9912,4.9912,4.9912,4.9912,4.9959,5.0163,5.0331,5.0558,5.0847,5.2013,5.3112,5.3825,5.4898,5.5825,5.6434,5.6498,5.6494,5.6506,5.656,5.6606,5.6606,5.6558,5.6558,5.6606,5.6606,5.6606,5.6606,5.6606,5.6606,5.6606,5.6608,5.6591,5.6591,5.6595,5.6595,5.6595,5.6595,5.6595,5.6596,5.6567,5.6534,5.6538,5.652,5.6484,5.6455,5.6484,5.6441,5.6363,5.6367,5.6376,5.6358,5.6297,5.627,5.625,5.6227,5.6269,5.6324,5.6289,5.6277,5.6264,5.6217,5.6261,5.6285,5.6226,5.6256,5.6285,5.6202,5.6241,5.6276,5.6266,5.6233,5.6204,5.6204,5.6202,5.6199,5.6199,5.6199,5.6199,5.6199,5.6199,5.6191,5.6164,5.616,5.6141,5.6164,5.6149,5.6133,5.6145,5.6031,5.5959,5.595,5.5778,5.5542,5.5186,5.4699,5.4249,5.3813,5.3324,5.2915,5.2608,5.225,5.1629,5.0031,5.0089,5.0163,5.0044,5.0005,4.9992,4.9925,4.9912,4.9912,4.9912,4.9912,4.9912,4.9912,4.9912,5.0006,5.0339,5.051,5.0711,5.1056,5.2719,5.3888,5.3907,5.5431,5.6496,5.6492,5.6508,5.6506,5.6506,5.656,5.6606,5.6606,5.6606,5.6606,5.6606,5.6606,5.6606,5.6606,5.6606,5.6606,5.6606,5.6596,5.6602,5.6602,5.6609,5.6593,5.6593,5.6593,5.6593,5.6594,5.6463,5.6398,5.6395,5.6338,5.6293,5.6293,5.629,5.6309,5.6306,5.6309,5.6306,5.6292,5.6216,5.6189,5.6183,5.6036,5.6105,5.6211,5.6211,5.6206,5.6168,5.6043,5.6155,5.6285,5.6226,5.6256,5.6281,5.6214,5.6195,5.6197,5.6197,5.6199,5.6199,5.6199,5.6199,5.6199,5.6199,5.6199,5.6199,5.6199,5.6199,5.6164,5.6098,5.6037,5.6029,5.609,5.6037,5.6005,5.5999,5.5953,5.5856,5.5797,5.5416,5.5167,5.5101,5.4315,5.3813,5.359,5.3078,5.2608,5.2185,5.1946,5.061,4.9736,4.9887,5.012,5.0031,5.0005,4.9992,4.9925,4.9912,4.9912,4.9912,4.9912,4.9906,4.9965,5.0076,5.0237,5.0445,5.0576,5.0763,5.1062,5.2603,5.375,5.3884,5.5438,5.6511,5.6564,5.6575,5.656,5.656,5.6584,5.6606,5.6606,5.6606,5.6606,5.6606,5.6606,5.6606,5.6606,5.6606,5.6608,5.6596,5.66,5.6555,5.6464,5.6464,5.6464,5.6463,5.6409,5.6412,5.6463,5.6378,5.6333,5.6325,5.6312,5.627,5.6247,5.6285,5.6275,5.6232,5.6236,5.6203,5.6149,5.6083,5.6067,5.606,5.6018,5.6059,5.6109,5.6079,5.6064,5.604,5.6001,5.6056,5.6078,5.6064,5.6083,5.6107,5.6124,5.6124,5.6151,5.6187,5.6157,5.6133,5.6133,5.6084,5.6059,5.6065,5.6014,5.6007,5.6061,5.6016,5.5989,5.5971,5.5933,5.5971,5.6035,5.598,5.5904,5.5866,5.5806,5.5735,5.5682,5.5275,5.4919,5.4628,5.4011,5.3512,5.3201,5.2662,5.1795,5.0699,5.0355,4.9185,4.9588,4.9778,5.0057,5.0018,4.9992,4.9946,4.9912,4.9912,4.9912,4.9912,4.9912,4.9925,4.9992,5.0155,5.0363,5.0558,5.0709,5.1002,5.1597,5.2849,5.3993,5.4792,5.5844,5.6511,5.6558,5.6582,5.6606,5.6606,5.6606,5.6606,5.6606,5.6606,5.6606,5.6606,5.6606,5.6606,5.6606,5.661,5.6595,5.6602,5.6558,5.6484,5.6393,5.6376,5.6367,5.6365,5.6329,5.6312,0.0,5.6293,5.627,5.6257,5.6207,5.616,5.6122,5.6164,5.6155,5.6122,5.6119,5.6102,5.6065,5.602,5.6012,5.6012,5.6012,5.6029,5.6046,5.6012,5.6012,5.6012,5.6012,5.6012,5.6012,5.6012,5.6012,5.6012,5.6046,5.6054,5.6073,5.612,5.6084,5.6059,5.6023,5.5989,5.5961,5.5969,5.5943,5.5933,5.5962,5.5933,5.5895,5.5895,5.5885,5.5885,5.5924,5.5895,5.5836,5.5766,5.5703,5.5618,5.5527,5.5026,5.4613,5.4292,5.3702,5.3146,5.2698,5.1801,5.0708,4.9414,4.8795,4.7654,0.0,4.9736,5.0005,5.0005,4.9952,4.9912,4.9912,4.9912,0.0,4.9912,4.9912,4.9939,5.0012,5.019,5.041,5.0681,5.0886,5.14,5.2457,5.3409,5.4625,5.6301,5.6491,5.6509,5.6509,5.656,5.6606,5.6606,5.6606,5.6606,5.6606,5.6606,5.6608,5.6591,5.6591,5.6591,5.6606,5.66,5.6585,5.6588,5.6441,5.638,5.6376,5.6324,5.6279,5.6279,5.6275,5.6275,5.6294,5.6218,5.6201,5.6168,5.6051,5.6012,5.6012,5.6012,5.6012,5.6012,5.6012,5.6012,5.6012,5.6012,5.6012,5.6012,5.6012,5.6012,5.6012,5.6012,5.6012,5.6012,5.6012,5.6012,5.6003,5.6003,5.6003,5.6003,5.5995,5.5995,5.5986,5.5999,5.599,5.5971,5.5905,5.5895,5.5895,5.5895,5.5895,5.5885,5.5895,5.5885,5.5885,5.5885,5.5826,5.5776,5.5776,5.5776,5.5756,5.5703,5.5618,5.5516,5.5351,5.4724,5.4276,5.4031,5.3285,5.2613,5.2048,5.0618,4.9397,4.836,4.719,4.609,4.9503,0.0,4.9906,4.9906,4.9906,4.9912,0.0,4.9912,4.9912,4.9912,4.9912,4.998,5.0268,5.043,5.0628,5.0952,5.1131,5.1548,5.2469,5.392,5.5285,5.638,5.6553,5.6582,5.6582,5.6584,5.6606,5.6606,5.6606,5.6606,5.6606,5.6606,5.6545,5.6445,5.6445,5.6501,5.6598,5.6502,5.6444,5.6459,5.636,5.6309,5.6255,5.6242,5.6224,5.6218,5.6126,5.6121,5.6212,5.6102,5.6051,5.6051,5.601,5.6012,5.6012,5.6012,5.6012,5.6012,5.6012,5.6012,5.6012,5.6012,5.6012,5.6012,5.6012,5.6012,5.6012,5.6012,5.6012,5.6012,5.6012,5.6012,5.5995,5.5998,5.5989,5.598,5.5923,5.5914,5.5914,5.5914,5.5914,5.5914,5.5895,5.5846,5.5836,5.5895,5.5816,5.5775,5.5826,5.5766,5.5745,5.5745,5.5692,5.564,5.564,5.564,5.5618,5.5551,5.548,5.5237,5.4823,5.4387,5.3869,5.3274,5.2386,5.1472,5.0509,4.9758,4.8638,4.7173,4.5916,4.4738,4.9683,4.9755,4.9912,4.9912,4.9912,4.9912,4.9912,4.9912,4.9912,4.9952,4.9952,5.0044,5.0372,5.0558,5.0747,5.1056,5.1551,5.2337,5.3615,5.4947,5.5961,5.6436,5.6531,5.658,5.6604,5.6564,5.6551,5.6551,5.6521,5.6504,5.6504,5.6504,5.6462,5.6364,5.6343,5.6391,5.6462,5.6388,5.635,5.6355,5.6292,5.6239,5.6194,5.6146,5.6109,5.6102,5.6035,5.6043,5.6102,5.6026,5.6012,5.6012,5.6012,5.6012,5.6012,5.6012,5.6012,5.6012,5.6012,5.6012,5.6012,5.6012,5.6012,5.6012,5.6012,5.6012,5.6012,5.6012,5.6012,5.6012,5.6012,5.6012,5.5995,5.6008,5.5999,5.5981,5.5905,5.5895,5.5895,5.5856,5.5846,5.5836,5.5816,5.5766,5.5766,5.5806,5.5745,5.5714,5.5714,5.5682,5.564,5.5607,5.5573,5.5527,5.5468,5.5425,5.5389,5.5351,5.5166,5.4848,5.4347,5.3868,5.3216,5.2368,5.131,5.0251,4.9155,4.8452,4.7142,4.5259,4.4492,4.3452,4.9912,4.9933,4.9959,4.9906,4.9912,4.9925,4.9925,4.9946,4.9986,5.0018,5.0063,5.0166,5.0477,5.0659,5.0828,5.1086,5.2071,5.3354,5.4976,5.5969,5.6514,5.6527,5.6523,5.6538,5.6575,5.6539,5.6504,5.6483,5.6427,5.6402,5.6386,5.6386,5.6355,5.6289,5.6285,5.6278,5.6242,5.6262,5.6281,5.6277,5.6205,5.6161,5.6181,5.6059,5.6012,5.6012,5.6012,5.6012,5.6012,5.6012,5.6012,5.6012,5.6012,5.6012,5.6012,5.6012,5.6012,5.6012,5.6012,5.6012,5.6012,5.6012,5.6012,5.6012,5.6012,5.6012,5.6012,5.6012,5.6012,5.6012,5.6012,5.6003,5.6005,5.5999,5.5981,5.5962,5.5885,5.5875,5.5846,5.5806,5.5776,5.5766,5.5714,5.5703,5.5703,5.5692,5.5673,5.5651,5.5596,5.5585,5.5551,5.548,5.5468,5.5364,5.5132,5.505,5.4962,5.4871,5.4697,5.4326,5.3757,5.3056,5.2322,5.1475,5.0286,4.9214,4.8304,4.7286,4.5735,4.3747,4.3374,4.2455,4.9912,5.0063,5.0171,4.9959,4.9933,4.9973,4.9973,5.0149,5.0291,5.0114,5.0312,5.0547,5.0647,5.082,5.1023,5.1224,5.2648,5.4044,5.5054,5.6004,5.6577,5.658,5.6582,5.6579,5.6522,5.6504,5.6481,5.6428,5.6419,5.6386,5.6312,5.6312,5.6278,5.6225,5.622,5.6155,5.6052,5.6168,5.6222,5.6212,5.6094,5.6035,5.6026,5.6001,5.6012,5.6012,5.6012,5.6012,5.6012,5.6012,5.6012,5.6012,5.6012,5.6012,5.6012,5.6012,5.6012,5.6012,5.6012,5.6012,5.6012,5.6012,5.6012,5.6012,5.6012,5.6012,5.6012,5.6012,5.6012,5.6012,5.6012,5.5996,5.599,5.5924,5.5866,5.5797,5.5745,5.5735,5.5724,5.5724,5.5724,5.5714,5.5703,5.5703,5.5673,5.5618,5.5607,5.5585,5.5527,5.5516,5.5468,5.5345,5.5281,5.4971,5.4342,5.423,5.3918,5.3284,5.3793,5.3628,5.2532,5.1716,5.1174,5.0937,4.9641,4.8854,4.8696,4.7303,4.6034,4.4829,4.3657,4.2471,4.9912,4.9993,5.01,5.0106,5.0222,5.0317,5.0317,5.0421,5.0481,5.0449,5.0548,5.0715,5.0884,5.1386,5.2113,5.3229,5.4076,5.4908,5.5772,5.6266,5.6548,5.6555,5.6555,5.6547,5.655,5.6483,5.6421,5.6391,5.6323,5.6258,5.6191,5.6191,5.6168,5.6085,5.6097,5.6052,5.6012,5.6052,5.609,5.6087,5.6026,5.6012,5.6012,5.6012,5.6012,5.6012,5.6012,5.6012,5.6012,5.6012,5.6012,5.6012,5.6012,5.6012,5.6012,5.6012,5.6012,5.6012,5.6012,5.6012,5.6012,5.6012,5.6012,5.6012,5.6012,5.6005,5.6007,5.6007,5.6005,5.6012,5.6012,5.5996,5.5981,5.5914,5.5846,5.5776,5.5724,5.5703,5.5703,5.5703,5.5703,5.5692,5.564,5.566,5.5618,5.5551,5.548,5.542,5.5358,5.5262,5.5157,5.4985,5.472,5.4347,5.3866,5.3572,5.3145,5.2572,5.2601,5.2291,5.1487,5.1262,5.088,5.0324,4.9544,4.8536,4.732,4.6152,4.4687,4.3022,4.2385,4.1276,4.9912,4.9946,5.0038,5.0252,5.042,5.0557,5.0619,5.0662,5.0706,5.0715,5.0786,5.0963,5.134,5.2147,5.3288,5.4934,5.5201,5.5516,5.6397,5.6514,5.652,5.6511,5.6511,5.6543,5.6563,5.6476,5.638,5.6358,5.6251,5.6149,5.6082,5.6082,5.6046,5.6012,5.6012,5.6012,5.6012,5.6012,5.6012,5.6012,5.6012,5.6012,5.6012,5.6012,5.6003,5.5995,5.6003,5.5995,5.5977,5.5986,5.5986,5.5977,5.5977,5.5977,5.5977,5.5986,5.5986,5.5977,5.5986,5.5986,5.5977,5.5977,5.5977,5.5977,5.5977,5.5989,5.5981,5.5981,5.5989,5.5977,5.5977,5.596,5.5933,5.5895,5.5826,5.5766,5.5714,5.5692,5.5682,5.5682,5.5651,5.5649,5.5585,5.5551,5.5504,5.5444,5.532,5.5203,5.5102,5.5166,5.5151,5.4928,5.4601,5.4167,5.3652,5.3142,5.2663,5.2243,5.208,5.1722,5.1154,5.1182,5.0861,5.0062,4.9332,4.8232,4.6685,4.5402,4.3878,4.2072,4.1715,4.0483,4.9912,5.0088,5.0275,5.0298,5.0313,5.038,5.0629,5.0852,5.0949,5.0825,5.1041,5.1468,5.2172,5.3122,5.4098,5.5058,5.519,5.5536,5.6465,5.6582,5.6584,5.6584,5.6584,5.6564,5.6503,5.644,5.6351,5.622,5.6146,5.6082,5.6012,5.6012,5.5993,5.6012,5.6012,5.6012,5.6012,5.6012,5.6012,5.6012,5.6012,5.6012,5.6012,5.6012,5.6005,5.5999,5.6005,5.5959,5.5914,5.5961,5.5952,5.5905,5.5905,5.5905,5.5914,5.5981,5.5952,5.5914,5.5981,5.5971,5.5905,5.5905,5.5905,5.5905,5.5905,5.5905,5.5905,5.5905,5.5905,5.5905,5.5905,5.5856,5.5807,5.5816,5.5756,5.5714,5.5703,5.564,5.5607,5.5607,5.5551,5.5516,5.5504,5.5408,5.5307,5.5223,5.5107,5.4952,5.4769,5.5423,5.5837,5.5551,5.5546,5.5034,5.3705,5.306,5.2561,5.2238,5.2986,5.3024,5.2136,5.1427,5.0836,5.0459,4.8675,4.7966,4.8403,4.6179,4.4847,4.4315,4.2979,4.1188,4.9912,5.01,5.0333,5.0461,5.0576,5.0713,5.0843,5.0985,5.1236,5.18,5.2027,5.2524,5.3888,5.4453,5.4992,5.5873,5.6043,5.6189,5.6545,5.6606,5.6606,5.6606,5.6593,5.6584,5.6557,5.6458,5.635,5.626,5.6206,5.6102,5.6012,5.6012,5.6012,5.6012,5.6012,5.6012,5.6012,5.6012,5.5995,5.6007,5.6007,5.6007,5.5998,5.5951,5.5943,5.5943,5.5952,5.5914,5.5895,5.5943,5.5914,5.5895,5.5895,5.5895,5.5895,5.5943,5.5914,5.5905,5.5924,5.5914,5.5895,5.5895,5.5895,5.5895,5.5895,5.5875,5.5836,5.5836,5.5785,5.5735,5.5875,5.5846,5.5797,5.5797,5.5745,5.5692,5.566,5.5618,5.5585,5.5551,5.5516,5.5468,5.5326,5.5262,5.5189,5.5042,5.5337,5.5505,5.5338,5.5956,5.6199,5.5551,5.4747,5.39,5.2908,5.2976,5.2986,5.2788,5.2726,5.2235,5.118,5.1293,5.072,4.9369,4.8326,4.7132,4.5844,4.4217,4.2965,4.2012,4.0729,3.9237,5.0031,5.0218,5.0431,5.0582,5.072,5.0865,5.0991,5.1072,5.1413,5.2403,5.3034,5.3793,5.498,5.5421,5.582,5.6408,5.6558,5.6606,5.6606,5.6606,5.6606,5.6591,5.6596,5.6603,5.6607,5.6483,5.6367,5.6301,5.6244,5.6134,5.602,5.6012,5.6012,5.6012,5.6012,5.6003,5.6005,5.6005,5.5979,5.5971,5.5953,5.5962,5.5971,5.5914,5.5885,5.5875,5.5895,5.5875,5.5836,5.5846,5.5865,5.5836,5.5836,5.5836,5.5836,5.5856,5.5865,5.5836,5.5856,5.5846,5.5836,5.5836,5.5836,5.5836,5.5836,5.5787,5.5766,5.5745,5.5662,5.5638,5.5735,5.5735,5.5714,5.5714,5.5662,5.5618,5.5573,5.5551,5.5527,5.548,5.542,5.5326,5.5183,5.5303,5.5365,5.5189,5.5732,5.6091,5.5878,5.65,5.6634,5.5783,5.4686,5.3712,5.3047,5.3297,5.3337,5.2951,5.2473,5.1859,5.106,5.1008,5.0175,4.8346,4.7683,4.6314,4.4214,4.2992,4.1716,4.0363,3.921,3.7731,5.0298,5.0451,5.0598,5.0593,5.0642,5.0753,5.0967,5.1113,5.1483,5.243,5.4001,5.5213,5.5214,5.5919,5.6508,5.6506,5.6558,5.6606,5.6606,5.6606,5.661,5.66,5.6602,5.6607,5.6599,5.648,5.6365,5.6301,5.6233,5.6134,5.6001,5.5993,5.5993,5.6012,5.6003,5.6005,5.5999,5.599,5.5971,5.5895,5.5836,5.5836,5.5895,5.5895,5.5856,5.5797,5.5875,5.5816,5.5714,5.5766,5.5756,5.5703,5.5703,5.5703,5.5714,5.5766,5.5756,5.5714,5.5776,5.5756,5.5703,5.5703,5.5703,5.5703,5.5703,5.5703,5.5692,5.5618,5.5596,5.5585,5.5516,5.5504,5.5504,5.5504,5.5504,5.5504,5.5504,5.5444,5.5395,5.5395,5.5242,5.5094,5.5094,5.5553,5.585,5.5729,5.627,5.6594,5.6247,5.6969,5.7203,5.6472,5.5713,5.4991,5.4254,5.4078,5.355,5.2542,5.2279,5.2156,5.2156,5.0627,4.9103,4.7733,4.6622,4.5436,4.4167,4.2944,4.1601,4.0134,3.8837,3.7026,5.0156,5.0411,5.0662,5.067,5.092,5.1217,5.1269,5.1672,5.2505,5.4102,5.5334,5.6104,5.611,5.6352,5.6553,5.6509,5.6558,5.6606,5.6606,5.6593,5.6598,5.6602,5.6591,5.6597,5.6599,5.6562,5.6514,5.645,5.6426,5.6333,5.6141,5.6146,5.6094,5.5993,5.5996,5.6008,5.5999,5.5962,5.5895,5.5836,5.5816,5.5816,5.5826,5.5776,5.5745,5.5735,5.5745,5.5735,5.5703,5.5724,5.5724,5.5703,5.5703,5.5703,5.5714,5.5724,5.5724,5.5714,5.5724,5.5724,5.5703,5.5703,5.5703,5.5703,5.5703,5.5682,5.5618,5.5607,5.5527,5.5456,5.5432,5.5434,5.544,5.548,5.5504,5.5492,5.5444,5.5345,5.5255,5.5203,5.499,5.4973,5.5451,5.5609,5.5834,5.6274,5.6911,5.7289,5.7199,5.6836,5.6345,5.5678,5.487,5.4188,5.37,5.3094,5.2491,5.1905,5.0741,5.0142,5.0265,4.8823,4.748,4.63,4.4418,4.3081,4.235,4.0451,3.9185,3.8509,3.6553,3.5278,5.045,5.0708,5.0975,5.0986,5.1187,5.1578,5.2261,5.2749,5.3448,5.4905,5.5895,5.6509,5.6533,5.6558,5.6558,5.6536,5.656,5.6606,5.6593,5.6598,5.6603,5.661,5.6597,5.66,5.6601,5.6601,5.6579,5.6511,5.6508,5.6416,5.6207,5.6194,5.6139,5.6005,5.5989,5.5981,5.5924,5.5885,5.5826,5.5756,5.5756,5.5756,5.5756,5.5724,5.5703,5.5703,5.5662,5.5682,5.5703,5.5662,5.5682,5.5703,5.5662,5.5682,5.5703,5.5662,5.5651,5.5651,5.5651,5.564,5.5618,5.5618,5.5618,5.5618,5.5618,5.5585,5.5551,5.5527,5.5468,5.5383,5.5307,5.5275,5.5313,5.5434,5.5402,5.5333,5.5294,5.5176,5.5166,5.5403,5.5246,5.5303,5.5946,5.6236,5.65,5.6832,5.7135,5.7353,5.7352,5.6367,5.5501,5.5077,5.3973,5.3163,5.2819,5.1977,5.1266,5.0665,4.9153,4.8186,4.7993,4.7126,4.5887,4.4275,4.2903,4.1551,4.0274,3.8938,3.769,3.6534,3.5124,3.4256,5.0901,5.1167,5.1372,5.1366,5.1396,5.1867,5.3601,5.3994,5.4248,5.5143,5.5943,5.6533,5.6584,5.6558,5.6533,5.6584,5.6606,5.661,5.66,5.6602,5.6607,5.6599,5.6599,5.6601,5.6601,5.6601,5.656,5.6516,5.6515,5.6426,5.6226,5.6194,5.6139,5.5999,5.599,5.5924,5.5797,5.5787,5.5756,5.5703,5.5703,5.5703,5.5703,5.5703,5.5703,5.5692,5.5618,5.5618,5.5682,5.5607,5.5618,5.5682,5.5607,5.5618,5.5662,5.5607,5.5585,5.5585,5.5585,5.5551,5.5504,5.5504,5.5504,5.5504,5.5504,5.5492,5.548,5.5408,5.5383,5.5333,5.5135,5.508,5.5127,5.5319,5.5214,5.508,5.508,5.5028,5.5182,5.5845,5.5871,5.5966,5.6593,5.717,5.7492,5.7297,5.7076,5.687,5.6794,5.5656,5.4717,5.4385,5.3027,5.2048,5.176,5.0709,4.9758,4.9019,4.7465,4.6197,4.5345,4.5345,4.4214,4.1861,4.1677,4.0451,3.8113,3.8007,3.6769,3.448,3.4368,3.3773,5.0675,5.092,5.1156,5.116,5.1274,5.1859,5.3596,5.4006,5.4413,5.5906,5.6419,5.6582,5.6604,5.6584,5.6582,5.6604,5.6606,5.661,5.66,5.6606,5.6594,5.6599,5.6601,5.6601,5.6601,5.6601,5.6582,5.658,5.658,5.6483,5.629,5.6237,5.6142,5.6008,5.5905,5.5836,5.5797,5.5745,5.5724,5.5703,5.5703,5.5662,5.5618,5.5682,5.5662,5.5618,5.5551,5.5527,5.5539,5.5527,5.5527,5.5539,5.5527,5.5527,5.5539,5.5527,5.5527,5.5527,5.5527,5.5516,5.5504,5.5504,5.5504,5.5504,5.5504,5.5468,5.5395,5.5281,5.5216,5.5121,5.4971,5.4927,5.4941,5.499,5.4975,5.4927,5.4927,5.5256,5.5569,5.5741,5.6029,5.6462,5.7183,5.734,5.7285,5.7096,5.6531,5.5885,5.5185,5.4709,5.3922,5.2615,5.2032,5.1398,5.055,4.8736,4.7519,4.7239,4.5349,4.3732,4.2531,4.2496,4.1771,4.0273,3.9276,3.806,3.6673,3.5761,3.5013,3.448,3.3547,3.2944,5.0801,5.0975,5.1124,5.1213,5.1313,5.1863,5.36,5.401,5.4476,5.6207,5.6582,5.6606,5.6606,5.6591,5.6593,5.6593,5.6598,5.6603,5.6592,5.6595,5.6598,5.6601,5.6601,5.6601,5.6601,5.6601,5.6601,5.6601,5.6601,5.6536,5.6391,5.6328,5.6202,5.6007,5.5929,5.5837,5.5756,5.5724,5.5673,5.564,5.564,5.5618,5.5551,5.5585,5.5585,5.5551,5.548,5.5468,5.5504,5.5468,5.5468,5.5492,5.5468,5.5468,5.5492,5.5468,5.5456,5.5456,5.5456,5.5451,5.5446,5.5446,5.5446,5.5434,5.5333,5.5275,5.5229,5.5094,5.5042,5.4971,5.4788,5.473,5.4683,5.4622,5.4702,5.4855,5.5224,5.5392,5.573,5.6425,5.6702,5.6959,5.735,5.7013,5.6579,5.6322,5.5631,5.4791,5.3851,5.3296,5.2495,5.1176,5.048,4.986,4.9256,4.7239,4.5976,4.5872,4.3826,4.2043,4.0778,4.016,3.9546,3.8889,3.7678,3.6534,3.5388,3.4803,3.4201,3.3604,3.3001,3.2373,5.094,5.1059,5.116,5.134,5.1394,5.1824,5.3405,5.3893,5.4459,5.6059,5.6508,5.6606,5.6606,5.6595,5.6602,5.6602,5.6607,5.6595,5.6599,5.6599,5.66,5.6601,5.6601,5.6601,5.6601,5.6601,5.6601,5.6601,5.6601,5.6579,5.6487,5.6433,5.6288,5.6005,5.599,5.5882,5.5714,5.5692,5.5651,5.5596,5.5573,5.5539,5.548,5.5468,5.548,5.548,5.542,5.5439,5.5488,5.5427,5.5439,5.5488,5.5427,5.5439,5.5476,5.5427,5.5402,5.5402,5.5402,5.5403,5.539,5.5358,5.5345,5.5319,5.5127,5.5085,5.5042,5.4882,5.4856,5.4807,5.46,5.4503,5.4478,5.4475,5.4597,5.4863,5.5474,5.5639,5.5993,5.7091,5.7211,5.7116,5.7096,5.634,5.557,5.5138,5.4378,5.3462,5.2466,5.1753,5.0951,4.9876,4.8973,4.8247,4.7686,4.5841,4.4595,4.4396,4.2239,4.0502,3.9522,3.8089,3.7299,3.7299,3.636,3.5333,3.4145,3.4155,3.366,3.2612,3.243,3.1835,5.0649,5.0875,5.116,5.134,5.1394,5.1668,5.2644,5.3463,5.4283,5.5279,5.6079,5.6606,5.6606,5.6595,5.6602,5.6602,5.6607,5.6595,5.6599,5.6599,5.66,5.6601,5.6601,5.6601,5.6601,5.6601,5.6601,5.6601,5.6601,5.6558,5.6416,5.64,5.6285,5.6017,5.5941,5.5845,5.5714,5.564,5.5607,5.5596,5.548,5.542,5.542,5.5415,5.5415,5.5408,5.5403,5.5416,5.5409,5.5396,5.5416,5.5409,5.5396,5.5416,5.5409,5.5396,5.5396,5.5396,5.5396,5.5403,5.5377,5.52,5.514,5.5113,5.4975,5.4931,5.4882,5.4676,5.4645,5.46,5.4392,5.4342,5.4458,5.5042,5.5137,5.5156,5.5249,5.6271,5.707,5.6624,5.6441,5.6331,5.6349,5.535,5.4284,5.3524,5.2584,5.1602,5.0579,5.0365,4.9836,4.8579,4.8346,4.7473,4.5586,4.4149,4.2978,4.2119,3.9764,3.8348,3.8178,3.6088,3.4969,3.4969,3.4803,3.4022,3.2581,3.283,3.2716,3.2305,3.1478,3.0937,5.0709,5.0939,5.116,5.134,5.1394,5.1629,5.2509,5.2995,5.3659,5.5025,5.5597,5.603,5.6516,5.6603,5.6609,5.6593,5.6597,5.66,5.6601,5.6601,5.6601,5.6601,5.6601,5.6601,5.6601,5.6601,5.6601,5.6601,5.6601,5.6579,5.6527,5.6513,5.6383,5.6122,5.6054,5.5913,5.5695,5.5629,5.5562,5.5492,5.5434,5.5403,5.5403,5.5396,5.5396,5.5403,5.5396,5.5332,5.5227,5.5345,5.5292,5.5123,5.52,5.5192,5.5123,5.5123,5.5123,5.5123,5.5123,5.5123,5.5109,5.5033,5.4985,5.4956,5.4773,5.4726,5.4695,5.4519,5.4455,5.4407,5.4324,5.4537,5.4857,5.5081,5.5512,5.5807,5.5574,5.6183,5.6649,5.6259,5.579,5.5402,5.5173,5.4031,5.2908,5.225,5.1365,5.0342,4.9175,4.9054,4.8368,4.6593,4.63,4.5616,4.4069,4.2786,4.1565,4.0502,3.8847,3.7352,3.6045,3.5024,3.4201,3.3491,3.331,3.2924,3.2305,3.243,3.2076,3.1237,3.0946,3.0051,5.0734,5.0901,5.1035,5.1271,5.1313,5.1513,5.2212,5.2548,5.3075,5.4365,5.4997,5.549,5.6157,5.6455,5.6596,5.6599,5.6601,5.6601,5.6601,5.6601,5.6601,5.6601,5.6601,5.6601,5.6601,5.6601,5.6601,5.6601,5.66,5.6599,5.6597,5.6561,5.642,5.6179,5.6097,5.5938,5.5692,5.5585,5.5492,5.539,5.5409,5.5358,5.5332,5.5332,5.5305,5.5279,5.5319,5.5214,5.5071,5.5206,5.5123,5.4916,5.5014,5.4985,5.4901,5.4901,5.4901,5.4901,5.4901,5.4901,5.4886,5.4837,5.4822,5.4791,5.46,5.4536,5.4486,5.439,5.4455,5.4536,5.4482,5.4857,5.5255,5.5318,5.5691,5.6007,5.5934,5.5869,5.5817,5.5663,5.4878,5.4085,5.376,5.2547,5.1451,5.0811,5.0103,4.9215,4.8027,4.7588,4.6739,4.5115,4.4531,4.3707,4.2323,4.1317,4.016,3.8733,3.7624,3.6263,3.4591,3.4201,3.348,3.2248,3.195,3.1835,3.1835,3.1835,3.1179,2.9874,2.9874,2.8801,5.0568,5.0632,5.0706,5.1021,5.112,5.1187,5.1401,5.2117,5.2726,5.2811,5.4141,5.5319,5.5367,5.6032,5.6599,5.6599,5.6601,5.6601,5.6601,5.6601,5.6601,5.6601,5.6601,5.6601,5.6601,5.6601,5.6601,5.66,5.6599,5.6596,5.6603,5.6481,5.6318,5.6104,5.5975,5.5808,5.5607,5.548,5.5421,5.5403,5.5403,5.53,5.5127,5.5127,5.5042,5.4931,5.5071,5.5042,5.4916,5.4916,5.4916,5.4901,5.4901,5.4901,5.4901,5.4901,5.4901,5.4901,5.4901,5.4901,5.4871,5.468,5.4613,5.4581,5.4458,5.4357,5.4307,5.4308,5.4742,5.5193,5.5023,5.518,5.5548,5.6085,5.5577,5.5196,5.6009,5.5535,5.4896,5.4713,5.3431,5.2262,5.2048,5.1026,4.9915,4.9054,4.8579,4.7985,4.7076,4.5913,4.507,4.473,4.3801,4.2212,3.9867,3.9611,3.8681,3.6499,3.5333,3.4636,3.448,3.3388,3.219,3.0937,3.0645,3.0519,3.0519,3.0519,2.9816,2.8453,2.7615,2.7134,5.0548,5.0596,5.0666,5.0972,5.1042,5.1074,5.1174,5.1472,5.1908,5.2503,5.3097,5.371,5.4349,5.5642,5.66,5.6601,5.6601,5.6601,5.6601,5.6601,5.6601,5.6601,5.6601,5.6601,5.6601,5.6601,5.66,5.6599,5.6594,5.6559,5.6481,5.6386,5.6197,5.5924,5.5868,5.5711,5.548,5.5432,5.5409,5.5403,5.5273,5.5168,5.5094,5.5014,5.4863,5.4711,5.4754,5.4754,5.4711,5.4856,5.478,5.459,5.4664,5.4648,5.4573,5.4573,5.4573,5.4573,5.4573,5.4573,5.4557,5.4441,5.4407,5.4373,5.4252,5.3888,5.364,5.4158,5.4126,5.4048,5.4465,5.4965,5.544,5.5607,5.5175,5.4508,5.38,5.4193,5.4371,5.3264,5.2492,5.176,5.0892,4.9836,4.8932,4.8455,4.7115,4.6004,4.5568,4.4517,4.3143,4.1548,4.1015,3.9842,3.7589,3.7388,3.6757,3.5234,3.4747,3.3786,3.2197,3.17,3.0888,2.9639,2.9294,2.9176,2.9107,2.9107,2.8453,2.7211,2.7082,2.6537,5.0537,5.0567,5.0634,5.0874,5.0926,5.0966,5.1075,5.1127,5.1361,5.2001,5.2359,5.2734,5.3404,5.4723,5.5722,5.5722,5.5976,5.6152,5.6152,5.6426,5.6601,5.6601,5.6601,5.6601,5.6601,5.66,5.6598,5.6596,5.6607,5.6523,5.6375,5.629,5.6078,5.5741,5.5691,5.5585,5.5408,5.5333,5.5301,5.5286,5.5132,5.4995,5.4918,5.4833,5.4695,5.4536,5.4536,5.4536,5.4552,5.4667,5.4606,5.4407,5.4505,5.4472,5.4409,5.4375,5.4357,5.4357,5.4304,5.4304,5.4287,5.4253,5.4218,5.4163,5.387,5.3617,5.3506,5.384,5.3938,5.4046,5.4493,5.4971,5.517,5.4774,5.4227,5.3447,5.2281,5.2874,5.3263,5.1783,5.1101,5.048,4.9599,4.8285,4.7287,4.713,4.5557,4.4163,4.3665,4.26,4.1102,3.9098,3.85,3.7524,3.5761,3.5542,3.5002,3.3987,3.3515,3.254,3.0878,3.0412,2.9571,2.8265,2.8104,2.7684,2.7142,2.7555,2.7151,2.6014,2.625,2.5823,0.0,0.0,0.0,5.0735,5.0795,5.084,5.1041,5.1086,5.1102,5.1176,5.1918,5.255,5.2563,5.3294,5.3926,5.3926,5.4668,5.5254,5.5254,5.5996,5.6523,5.6523,5.6543,5.6562,5.656,5.658,5.6596,5.6603,5.6602,5.6519,5.6312,5.6158,5.5924,5.5607,5.5468,5.5395,5.5395,5.5203,5.5094,5.5094,5.4975,5.4791,5.4597,5.4597,5.4519,5.4409,5.4409,5.4409,5.4409,5.4409,5.4409,5.4409,5.439,5.4373,5.4392,5.4324,5.4289,5.429,5.4146,5.4109,5.4091,5.4072,5.4073,5.3963,5.3313,5.3558,5.3957,5.3375,5.4241,5.5299,5.5204,5.5108,5.4747,5.3633,5.2733,5.2032,5.1598,5.1634,5.1414,5.0227,4.9159,4.8372,4.8122,4.6329,4.4918,4.4918,4.3821,4.2587,4.1482,4.0223,3.8956,3.7733,3.6418,3.53,3.4536,3.4134,3.3582,3.2727,3.1478,3.0762,3.0704,2.9512,2.8206,2.6952,2.6892,2.6181,2.461,2.5823,2.5953,2.505,2.505,2.4919,5.05,0.0,0.0,0.0,0.0,0.0,5.0795,5.0887,5.0969,5.1029,5.1223,5.1414,5.1565,5.1798,5.1999,5.2031,5.3356,5.4355,5.4355,5.457,5.4726,5.4726,5.5273,5.5662,5.5662,5.6223,5.6606,5.6602,5.6595,5.6469,5.6164,5.584,5.5605,5.5468,5.5409,5.532,5.5189,5.5121,5.5038,5.4941,5.4773,5.4645,5.4597,5.4505,5.4441,5.4409,5.4359,5.4324,5.4324,5.4324,5.4324,5.4324,5.4217,5.418,5.418,5.4163,5.4163,5.4146,5.4109,5.4109,5.4018,5.3469,5.3658,5.3955,5.324,5.3228,5.353,5.3885,5.3971,5.4032,5.4374,5.3832,5.3028,5.263,5.1724,5.0649,4.9758,4.8873,4.8168,4.7825,4.7561,4.6808,4.5106,4.4135,4.3646,4.3646,4.1856,4.0349,4.0083,3.8303,3.6692,3.5508,3.4869,3.4123,3.3275,3.2924,3.2342,3.1421,3.1005,2.9865,2.7778,2.7357,2.6459,2.4956,2.4895,2.4656,2.4232,2.4849,2.4849,2.4363,2.4363,2.4487,5.0573,5.0573,5.0584,5.0633,0.0,0.0,5.0739,5.0793,5.0877,5.0942,5.0963,5.1011,5.1142,5.1207,5.1241,5.1293,5.2201,5.3047,5.3418,5.3769,5.4004,5.4003,5.4452,5.4762,5.4759,5.5553,5.6053,5.6069,5.6395,5.6432,5.6071,5.575,5.5527,5.5408,5.539,5.53,5.5094,5.5038,5.4941,5.4757,5.46,5.4519,5.4503,5.4409,5.4376,5.434,5.4253,5.4218,5.4218,5.4183,5.4201,5.4218,5.4127,5.4109,5.4091,5.4073,5.4055,5.4055,5.3981,5.4018,5.3986,5.3558,5.3748,5.4,5.3289,5.3335,5.3708,5.3883,5.3823,5.369,5.3547,5.2907,5.2177,5.1581,5.024,4.8879,4.8087,4.6751,4.5754,4.6182,4.5754,4.4898,4.3571,4.2738,4.2155,4.1673,4.002,3.8497,3.7524,3.6271,3.5068,3.3875,3.2995,3.2369,3.195,3.1063,3.0285,2.9806,2.9139,2.8059,2.639,2.579,2.5071,2.4108,2.4108,2.379,2.3029,2.3976,2.4293,2.4108,2.3347,2.3153,5.0712,5.0702,5.0702,5.0702,5.0702,0.0,5.0784,5.0801,5.0827,5.0901,5.099,5.1081,5.1081,5.1191,5.1282,5.1282,5.1337,5.166,5.2441,5.3223,5.3711,5.3709,5.3806,5.3881,5.3987,5.4786,5.5349,5.5437,5.6126,5.6387,5.6012,5.5789,5.5573,5.5383,5.5365,5.526,5.5052,5.4927,5.4776,5.4581,5.4458,5.4392,5.4392,5.4324,5.4272,5.4272,5.4146,5.4091,5.4073,5.4019,5.4019,5.4091,5.4073,5.4018,5.3981,5.3926,5.3906,5.3904,5.3789,5.3865,5.4009,5.3941,5.405,5.4096,5.3389,5.371,5.4168,5.3521,5.3693,5.3765,5.2647,5.212,5.1581,5.0365,4.8563,4.6937,4.6475,4.485,4.3712,4.4613,4.3665,4.2662,4.2531,4.1465,4.0325,3.9303,3.8206,3.6804,3.4747,3.4246,3.3639,3.2545,3.1053,3.0227,3.0461,2.892,2.8026,2.8119,2.6797,2.5896,2.5713,2.4649,2.4046,2.3984,2.386,2.2966,2.1321,2.3036,2.3798,2.3604,2.2208,2.158,5.0801,5.0739,5.072,5.0757,5.0775,0.0,5.0793,5.0846,5.0872,5.0908,5.0925,5.0944,5.0944,5.1056,5.1132,5.1132,5.1241,5.1401,5.1621,5.1796,5.1912,5.1909,5.2529,5.3227,5.3927,5.48,5.5593,5.6294,5.6193,5.6078,5.6001,5.566,5.5371,5.5162,5.5168,5.5009,5.4707,5.4676,5.4584,5.4441,5.4376,5.4307,5.4307,5.4181,5.4146,5.4127,5.4037,5.4019,5.4019,5.3888,5.3907,5.4019,5.3907,5.364,5.3304,5.3283,5.3353,5.3435,5.3411,5.3712,5.4069,5.353,5.3796,5.4127,5.335,5.3646,5.406,5.3179,5.2994,5.2786,5.1598,5.0633,4.9615,4.8245,4.6809,4.5526,4.4631,4.2423,4.065,4.0837,4.065,4.0134,3.9082,3.793,3.7079,3.6865,3.587,3.5024,3.4536,3.2768,3.1333,3.0801,2.9394,2.8495,2.8468,2.7949,2.7297,2.6495,2.6192,2.5415,2.4092,2.3852,2.3549,2.3293,2.2215,2.0943,1.9477,2.1524,2.1915,2.0899,2.1096,2.1348,5.2061,5.2057,5.1942,5.1545,5.1457,0.0,0.0,5.0883,5.0908,5.0905,5.0909,5.0898,5.0898,5.101,5.1099,5.1099,5.1587,5.1805,5.1405,5.1386,5.1556,5.1999,5.2425,5.3047,5.392,5.4795,5.5645,5.6489,5.6276,5.607,5.5962,5.5668,5.5383,5.5107,5.5094,5.4933,5.4613,5.4597,5.4519,5.4359,5.4326,5.4254,5.42,5.411,5.4055,5.4037,5.3945,5.3717,5.3444,5.3383,5.3203,5.2999,5.3324,5.3099,5.2644,5.304,5.3191,5.3212,5.3608,5.3977,5.417,5.3792,5.3935,5.4161,5.3702,5.3541,5.3298,5.235,5.2048,5.176,5.0589,4.9393,4.8223,4.6997,4.4821,4.2869,4.2194,4.0045,3.8186,3.8028,3.7553,3.7139,3.7049,3.6576,3.6034,3.5443,3.4858,3.4011,3.2566,3.1313,3.0207,2.9179,2.782,2.6987,2.697,2.6078,2.5362,2.481,2.4625,2.4201,2.3355,2.3362,2.2981,2.209,2.0753,1.9349,1.8011,1.9737,2.0259,1.9559,1.9559,1.9616,5.3378,5.3366,5.3231,5.2545,5.2371,5.2206,0.0,0.0,0.0,5.1188,5.1149,5.1149,5.1149,5.1242,5.1263,5.112,5.2049,5.245,5.1426,5.164,5.2042,5.2402,5.2752,5.3237,5.3932,5.4947,5.5792,5.6413,5.628,5.6082,5.5861,5.5626,5.5383,5.5066,5.5023,5.4859,5.4549,5.4552,5.4455,5.4308,5.4273,5.4201,5.4091,5.4,5.3926,5.3813,5.3678,5.3283,5.2736,5.2736,5.2431,5.2047,5.2785,5.2695,5.2221,5.3048,5.3214,5.3207,5.3867,5.4166,5.4256,5.4156,5.4001,5.3848,5.3749,5.3128,5.2279,5.1283,5.0984,5.0627,4.9296,4.8171,4.6982,4.5423,4.2794,4.0386,3.9677,3.7765,3.6143,3.5925,3.4725,3.4235,3.5651,3.5706,3.5223,3.419,3.3909,3.2928,3.0558,2.9846,2.9002,2.7623,2.6313,2.5538,2.5476,2.427,2.3487,2.3487,2.323,2.3106,2.3106,2.3106,2.2411,2.0956,1.9807,1.846,1.6985,1.8145,1.8658,1.8594,1.8337,1.8209,5.3518,5.3436,5.3391,5.3357,5.3335,5.3315,5.3219,0.0,5.2995,5.2202,0.0,5.2047,5.2047,0.0,0.0,5.1125,5.2458,5.3015,5.1437,5.2648,5.3178,5.1712,5.2919,5.3893,5.399,5.5493,5.6425,5.6333,5.6149,5.5935,5.573,5.5363,5.508,5.4931,5.4757,5.4584,5.4424,5.4357,5.4324,5.4308,5.4129,5.4037,5.4,5.387,5.3601,5.3201,5.3057,5.2696,5.2183,5.2071,5.2115,5.2289,5.2806,5.2724,5.2369,5.3105,5.3451,5.3547,5.3652,5.39,5.4213,5.4181,5.3498,5.2699,5.2664,5.201,5.1129,5.0236,4.9829,4.9256,4.7317,4.6535,4.5438,4.2105,4.0774,3.9677,3.7471,3.5804,3.4747,3.4692,3.2815,3.1957,3.4291,3.3818,3.2991,3.2592,3.1815,3.0927,3.0051,2.8197,2.6624,2.5879,2.4625,2.372,2.3472,2.3293,2.3175,2.3175,2.3106,2.3106,2.3106,2.3106,2.216,2.0265,2.0075,1.8984,1.7001,1.713,1.726,1.726,1.8425,1.9008,5.5081,5.5045,5.4907,5.4381,5.427,5.4173,5.3627,5.3498,5.3401,5.3033,0.0,0.0,0.0,0.0,0.0,0.0,5.3662,5.4099,5.2886,5.4286,5.4997,5.3742,5.4294,5.4943,5.5413,5.6078,5.6398,5.6205,5.602,5.5806,5.5489,5.5224,5.4995,5.4726,5.4645,5.4536,5.439,5.4342,5.4254,5.4182,5.3738,5.3524,5.3482,5.3101,5.2766,5.2522,5.2454,5.2024,5.1447,5.1851,5.1864,5.1712,5.2825,5.2912,5.2507,5.3259,5.35,5.3535,5.3967,5.4173,5.4093,5.3449,5.2854,5.2222,5.1278,5.0729,5.0073,4.8481,4.7981,4.7543,4.5855,4.4251,4.2719,4.1086,3.8894,3.6836,3.5825,3.4458,3.3264,3.2483,3.1506,3.0869,3.1187,3.0849,3.0402,3.009,2.9679,2.8893,2.7512,2.6495,2.5468,2.4255,2.3658,2.323,2.3113,2.33,2.3417,2.3417,2.3549,2.3604,2.3425,2.2849,2.1839,2.0386,1.961,1.8466,1.7001,1.7389,1.7582,1.7582,1.8168,1.8489,5.6182,5.6188,5.6036,5.5348,5.5223,5.5067,5.4371,5.4215,5.4165,5.3956,5.395,0.0,0.0,0.0,5.3973,5.3751,0.0,5.5058,5.3977,5.5358,5.6073,5.4998,5.5118,5.5594,5.6426,5.643,5.628,5.5986,5.5874,5.5623,5.5218,5.5042,5.4859,5.4613,5.4552,5.4472,5.4375,5.4272,5.411,5.3851,5.3388,5.3062,5.2867,5.2436,5.2136,5.1916,5.2041,5.1699,5.1074,5.1826,5.1975,5.1856,5.2959,5.3245,5.3108,5.3662,5.3777,5.3787,5.4259,5.4126,5.355,5.2472,5.1882,5.1438,5.0245,4.9494,4.8733,4.7231,4.6506,4.5796,4.4153,4.2312,4.0648,3.9511,3.6985,3.4814,3.438,3.3176,3.1903,3.1005,3.0227,2.9453,2.8564,2.8683,2.8733,2.8367,2.8068,2.728,2.5591,2.5162,2.4502,2.3355,2.3238,2.3293,2.3355,2.3611,2.3736,2.3736,2.3736,2.3611,2.3362,2.2341,2.1398,2.0456,1.9483,1.846,1.7588,1.8039,1.8296,1.8296,1.8296,1.8296,5.6092,5.6149,5.6188,5.6153,5.6166,5.6122,5.6047,5.6017,5.5814,5.5094,5.4957,5.4957,5.4957,5.4957,5.4704,0.0,5.518,0.0,0.0,5.5334,5.5801,5.4237,5.4734,5.5549,5.6423,5.643,5.6183,5.5662,5.5605,5.5415,5.4941,5.4726,5.4613,5.4597,5.4407,5.4308,5.4308,5.4111,5.3756,5.323,5.3143,5.2827,5.2304,5.2165,5.1868,5.146,5.1918,5.1791,5.1344,5.1946,5.2632,5.3339,5.3391,5.3822,5.4443,5.446,5.4477,5.4445,5.4254,5.3483,5.2402,5.1463,5.0631,4.9947,4.9924,4.8512,4.6899,4.6812,4.5766,4.4181,4.207,4.1136,3.9829,3.6333,3.5178,3.4492,3.3105,3.1767,3.082,3.083,2.8801,2.7134,2.7073,2.8086,2.8683,2.8095,2.7185,2.6216,2.5256,2.4278,2.3666,2.3604,2.3611,2.3736,2.4046,2.4108,2.4108,2.4108,2.3175,2.2668,2.2613,2.167,2.0786,2.0138,2.0075,1.9699,1.9008,1.9072,1.9072,1.9072,1.9072,1.9072,5.5898,5.5911,5.5956,5.6056,5.6097,5.6156,5.6222,5.6227,5.6159,5.591,5.5896,5.5903,5.5867,5.5909,5.5842,0.0,0.0,5.6185,0.0,5.605,5.6198,5.5642,5.5783,5.6032,5.6344,5.6317,5.6073,5.5623,5.5551,5.5279,5.4723,5.4629,5.4536,5.4409,5.4342,5.411,5.3719,5.3564,5.3208,5.2744,5.2224,5.1886,5.169,5.12,5.1103,5.1336,5.1486,5.1674,5.195,5.2684,5.3166,5.346,5.38,5.3772,5.3565,5.4108,5.4303,5.419,5.3365,5.2455,5.1541,5.0615,4.9536,4.8543,4.8023,4.6811,4.5421,4.4599,4.3312,4.1874,4.0349,3.8423,3.6568,3.5343,3.4224,3.3084,3.17,3.1121,3.0285,2.8623,2.7615,2.6719,2.5884,2.612,2.6172,2.5501,2.5325,2.4895,2.3907,2.3666,2.3611,2.3611,2.3611,2.3736,2.4046,2.3673,2.3417,2.3417,2.2668,2.2174,2.1922,2.1796,2.1348,2.0456,2.0456,2.0011,1.9078,1.9078,1.9078,1.9078,1.9078,1.9078,5.5754,5.5811,5.5855,5.5903,5.5957,5.602,5.6151,5.6183,5.6192,5.6218,5.6315,5.6352,5.619,5.6289,5.6386,0.0,0.0,5.6393,0.0,5.6369,5.6363,5.6364,5.6319,5.6308,5.6297,5.624,5.6004,5.5533,5.5435,5.5173,5.4549,5.4522,5.4441,5.4308,5.4219,5.3907,5.3328,5.3208,5.2809,5.2107,5.1633,5.127,5.1026,5.0826,5.0933,5.1332,5.1827,5.2274,5.267,5.3384,5.3501,5.3278,5.3611,5.323,5.258,5.3415,5.3466,5.3027,5.1977,5.1299,5.0583,4.9247,4.8258,4.7398,4.6461,4.5015,4.3549,4.2718,4.1149,3.9472,3.8287,3.6433,3.4692,3.38,3.2825,3.1662,3.0402,2.9747,2.8979,2.7315,2.6658,2.6059,2.5226,2.5111,2.4919,2.4363,2.4487,2.4293,2.3549,2.3666,2.3798,2.3922,2.3611,2.3417,2.3417,2.2981,2.2731,2.2731,2.1978,2.1475,2.1222,2.1096,2.0716,2.0081,2.0075,1.9763,1.9078,1.9078,1.9078,1.9078,1.9078,1.9078]}]]